<?xml version="1.0" encoding="UTF-8" ?>
<gpx version="1.1" xmlns:xsi="http://www.w3.org/2001/XMLSchema-instance"
    xmlns="http://www.topografix.com/GPX/1/1"
    xsi:schemaLocation="http://www.topografix.com/GPX/1/1 http://www.topografix.com/GPX/1/1/gpx.xsd"
    creator="Openrunner - https://www.openrunner.com" >	<trk>
	                   <name>grande sortie barrage de Poses-23763488</name>
						<trkseg>
					<trkpt lat="49.585020" lon="1.358760">
						<ele>197</ele>
						<time>2026-05-01T12:16:37Z</time>
					</trkpt>
					<trkpt lat="49.584870" lon="1.358920">
						<ele>196</ele>
						<time>2026-05-01T12:16:40Z</time>
					</trkpt>
					<trkpt lat="49.584810" lon="1.358970">
						<ele>196</ele>
						<time>2026-05-01T12:16:41Z</time>
					</trkpt>
					<trkpt lat="49.584710" lon="1.358990">
						<ele>196</ele>
						<time>2026-05-01T12:16:43Z</time>
					</trkpt>
					<trkpt lat="49.584450" lon="1.359090">
						<ele>195</ele>
						<time>2026-05-01T12:16:48Z</time>
					</trkpt>
					<trkpt lat="49.584390" lon="1.359110">
						<ele>195</ele>
						<time>2026-05-01T12:16:49Z</time>
					</trkpt>
					<trkpt lat="49.584180" lon="1.359220">
						<ele>194</ele>
						<time>2026-05-01T12:16:53Z</time>
					</trkpt>
					<trkpt lat="49.584120" lon="1.359300">
						<ele>194</ele>
						<time>2026-05-01T12:16:54Z</time>
					</trkpt>
					<trkpt lat="49.584060" lon="1.359410">
						<ele>194</ele>
						<time>2026-05-01T12:16:56Z</time>
					</trkpt>
					<trkpt lat="49.584010" lon="1.359570">
						<ele>194</ele>
						<time>2026-05-01T12:16:58Z</time>
					</trkpt>
					<trkpt lat="49.583940" lon="1.359720">
						<ele>194</ele>
						<time>2026-05-01T12:17:00Z</time>
					</trkpt>
					<trkpt lat="49.583510" lon="1.360300">
						<ele>193</ele>
						<time>2026-05-01T12:17:10Z</time>
					</trkpt>
					<trkpt lat="49.583380" lon="1.360470">
						<ele>192</ele>
						<time>2026-05-01T12:17:14Z</time>
					</trkpt>
					<trkpt lat="49.583170" lon="1.360780">
						<ele>191</ele>
						<time>2026-05-01T12:17:19Z</time>
					</trkpt>
					<trkpt lat="49.582430" lon="1.361810">
						<ele>186</ele>
						<time>2026-05-01T12:17:36Z</time>
					</trkpt>
					<trkpt lat="49.582230" lon="1.362080">
						<ele>187</ele>
						<time>2026-05-01T12:17:41Z</time>
					</trkpt>
					<trkpt lat="49.581660" lon="1.362880">
						<ele>186</ele>
						<time>2026-05-01T12:17:55Z</time>
					</trkpt>
					<trkpt lat="49.581340" lon="1.363320">
						<ele>189</ele>
						<time>2026-05-01T12:18:02Z</time>
					</trkpt>
					<trkpt lat="49.581210" lon="1.363490">
						<ele>189</ele>
						<time>2026-05-01T12:18:06Z</time>
					</trkpt>
					<trkpt lat="49.580280" lon="1.364750">
						<ele>198</ele>
						<time>2026-05-01T12:18:28Z</time>
					</trkpt>
					<trkpt lat="49.580050" lon="1.365060">
						<ele>198</ele>
						<time>2026-05-01T12:18:33Z</time>
					</trkpt>
					<trkpt lat="49.579640" lon="1.365650">
						<ele>199</ele>
						<time>2026-05-01T12:18:43Z</time>
					</trkpt>
					<trkpt lat="49.579390" lon="1.365970">
						<ele>199</ele>
						<time>2026-05-01T12:18:49Z</time>
					</trkpt>
					<trkpt lat="49.579190" lon="1.366160">
						<ele>199</ele>
						<time>2026-05-01T12:18:53Z</time>
					</trkpt>
					<trkpt lat="49.578990" lon="1.366300">
						<ele>199</ele>
						<time>2026-05-01T12:18:57Z</time>
					</trkpt>
					<trkpt lat="49.578830" lon="1.366380">
						<ele>199</ele>
						<time>2026-05-01T12:19:00Z</time>
					</trkpt>
					<trkpt lat="49.578620" lon="1.366420">
						<ele>198</ele>
						<time>2026-05-01T12:19:04Z</time>
					</trkpt>
					<trkpt lat="49.578480" lon="1.366440">
						<ele>198</ele>
						<time>2026-05-01T12:19:06Z</time>
					</trkpt>
					<trkpt lat="49.576320" lon="1.366410">
						<ele>196</ele>
						<time>2026-05-01T12:19:45Z</time>
					</trkpt>
					<trkpt lat="49.575930" lon="1.366400">
						<ele>195</ele>
						<time>2026-05-01T12:19:51Z</time>
					</trkpt>
					<trkpt lat="49.573090" lon="1.366360">
						<ele>182</ele>
						<time>2026-05-01T12:20:42Z</time>
					</trkpt>
					<trkpt lat="49.573010" lon="1.366370">
						<ele>182</ele>
						<time>2026-05-01T12:20:43Z</time>
					</trkpt>
					<trkpt lat="49.572970" lon="1.366270">
						<ele>182</ele>
						<time>2026-05-01T12:20:45Z</time>
					</trkpt>
					<trkpt lat="49.571480" lon="1.365730">
						<ele>180</ele>
						<time>2026-05-01T12:21:12Z</time>
					</trkpt>
					<trkpt lat="49.571000" lon="1.365460">
						<ele>179</ele>
						<time>2026-05-01T12:21:21Z</time>
					</trkpt>
					<trkpt lat="49.570490" lon="1.365100">
						<ele>180</ele>
						<time>2026-05-01T12:21:31Z</time>
					</trkpt>
					<trkpt lat="49.569570" lon="1.364180">
						<ele>181</ele>
						<time>2026-05-01T12:21:51Z</time>
					</trkpt>
					<trkpt lat="49.569080" lon="1.363790">
						<ele>182</ele>
						<time>2026-05-01T12:22:00Z</time>
					</trkpt>
					<trkpt lat="49.567450" lon="1.363040">
						<ele>179</ele>
						<time>2026-05-01T12:22:31Z</time>
					</trkpt>
					<trkpt lat="49.566540" lon="1.362730">
						<ele>178</ele>
						<time>2026-05-01T12:22:47Z</time>
					</trkpt>
					<trkpt lat="49.565530" lon="1.362520">
						<ele>176</ele>
						<time>2026-05-01T12:23:05Z</time>
					</trkpt>
					<trkpt lat="49.565170" lon="1.362400">
						<ele>174</ele>
						<time>2026-05-01T12:23:12Z</time>
					</trkpt>
					<trkpt lat="49.564900" lon="1.362370">
						<ele>172</ele>
						<time>2026-05-01T12:23:17Z</time>
					</trkpt>
					<trkpt lat="49.562470" lon="1.362580">
						<ele>169</ele>
						<time>2026-05-01T12:24:00Z</time>
					</trkpt>
					<trkpt lat="49.561510" lon="1.362900">
						<ele>167</ele>
						<time>2026-05-01T12:24:18Z</time>
					</trkpt>
					<trkpt lat="49.561290" lon="1.362920">
						<ele>168</ele>
						<time>2026-05-01T12:24:21Z</time>
					</trkpt>
					<trkpt lat="49.561020" lon="1.362890">
						<ele>167</ele>
						<time>2026-05-01T12:24:26Z</time>
					</trkpt>
					<trkpt lat="49.560610" lon="1.362660">
						<ele>167</ele>
						<time>2026-05-01T12:24:34Z</time>
					</trkpt>
					<trkpt lat="49.560320" lon="1.362540">
						<ele>167</ele>
						<time>2026-05-01T12:24:39Z</time>
					</trkpt>
					<trkpt lat="49.558620" lon="1.362350">
						<ele>168</ele>
						<time>2026-05-01T12:25:10Z</time>
					</trkpt>
					<trkpt lat="49.557690" lon="1.362360">
						<ele>169</ele>
						<time>2026-05-01T12:25:26Z</time>
					</trkpt>
					<trkpt lat="49.556370" lon="1.362500">
						<ele>171</ele>
						<time>2026-05-01T12:25:50Z</time>
					</trkpt>
					<trkpt lat="49.555740" lon="1.362620">
						<ele>173</ele>
						<time>2026-05-01T12:26:01Z</time>
					</trkpt>
					<trkpt lat="49.554690" lon="1.362890">
						<ele>174</ele>
						<time>2026-05-01T12:26:20Z</time>
					</trkpt>
					<trkpt lat="49.554410" lon="1.362920">
						<ele>174</ele>
						<time>2026-05-01T12:26:25Z</time>
					</trkpt>
					<trkpt lat="49.554290" lon="1.362900">
						<ele>174</ele>
						<time>2026-05-01T12:26:27Z</time>
					</trkpt>
					<trkpt lat="49.553770" lon="1.362820">
						<ele>174</ele>
						<time>2026-05-01T12:26:36Z</time>
					</trkpt>
					<trkpt lat="49.553710" lon="1.362810">
						<ele>174</ele>
						<time>2026-05-01T12:26:38Z</time>
					</trkpt>
					<trkpt lat="49.552730" lon="1.362660">
						<ele>172</ele>
						<time>2026-05-01T12:26:55Z</time>
					</trkpt>
					<trkpt lat="49.552430" lon="1.362650">
						<ele>172</ele>
						<time>2026-05-01T12:27:00Z</time>
					</trkpt>
					<trkpt lat="49.550890" lon="1.362690">
						<ele>167</ele>
						<time>2026-05-01T12:27:28Z</time>
					</trkpt>
					<trkpt lat="49.550320" lon="1.362690">
						<ele>166</ele>
						<time>2026-05-01T12:27:38Z</time>
					</trkpt>
					<trkpt lat="49.549720" lon="1.362600">
						<ele>165</ele>
						<time>2026-05-01T12:27:49Z</time>
					</trkpt>
					<trkpt lat="49.548950" lon="1.362340">
						<ele>165</ele>
						<time>2026-05-01T12:28:03Z</time>
					</trkpt>
					<trkpt lat="49.548590" lon="1.362230">
						<ele>165</ele>
						<time>2026-05-01T12:28:09Z</time>
					</trkpt>
					<trkpt lat="49.547190" lon="1.361820">
						<ele>166</ele>
						<time>2026-05-01T12:28:35Z</time>
					</trkpt>
					<trkpt lat="49.546910" lon="1.361810">
						<ele>165</ele>
						<time>2026-05-01T12:28:40Z</time>
					</trkpt>
					<trkpt lat="49.546610" lon="1.361890">
						<ele>165</ele>
						<time>2026-05-01T12:28:45Z</time>
					</trkpt>
					<trkpt lat="49.546150" lon="1.362100">
						<ele>163</ele>
						<time>2026-05-01T12:28:54Z</time>
					</trkpt>
					<trkpt lat="49.545820" lon="1.362290">
						<ele>161</ele>
						<time>2026-05-01T12:29:00Z</time>
					</trkpt>
					<trkpt lat="49.545140" lon="1.362800">
						<ele>163</ele>
						<time>2026-05-01T12:29:13Z</time>
					</trkpt>
					<trkpt lat="49.544640" lon="1.363030">
						<ele>166</ele>
						<time>2026-05-01T12:29:23Z</time>
					</trkpt>
					<trkpt lat="49.544310" lon="1.363120">
						<ele>168</ele>
						<time>2026-05-01T12:29:28Z</time>
					</trkpt>
					<trkpt lat="49.544040" lon="1.363100">
						<ele>169</ele>
						<time>2026-05-01T12:29:33Z</time>
					</trkpt>
					<trkpt lat="49.543820" lon="1.363080">
						<ele>169</ele>
						<time>2026-05-01T12:29:37Z</time>
					</trkpt>
					<trkpt lat="49.543620" lon="1.363000">
						<ele>169</ele>
						<time>2026-05-01T12:29:41Z</time>
					</trkpt>
					<trkpt lat="49.543030" lon="1.362700">
						<ele>168</ele>
						<time>2026-05-01T12:29:52Z</time>
					</trkpt>
					<trkpt lat="49.542500" lon="1.362480">
						<ele>168</ele>
						<time>2026-05-01T12:30:02Z</time>
					</trkpt>
					<trkpt lat="49.541240" lon="1.362050">
						<ele>165</ele>
						<time>2026-05-01T12:30:25Z</time>
					</trkpt>
					<trkpt lat="49.540180" lon="1.361710">
						<ele>163</ele>
						<time>2026-05-01T12:30:44Z</time>
					</trkpt>
					<trkpt lat="49.539810" lon="1.361670">
						<ele>163</ele>
						<time>2026-05-01T12:30:51Z</time>
					</trkpt>
					<trkpt lat="49.538620" lon="1.361740">
						<ele>164</ele>
						<time>2026-05-01T12:31:12Z</time>
					</trkpt>
					<trkpt lat="49.537900" lon="1.361960">
						<ele>166</ele>
						<time>2026-05-01T12:31:25Z</time>
					</trkpt>
					<trkpt lat="49.537390" lon="1.362080">
						<ele>166</ele>
						<time>2026-05-01T12:31:34Z</time>
					</trkpt>
					<trkpt lat="49.536900" lon="1.362100">
						<ele>165</ele>
						<time>2026-05-01T12:31:43Z</time>
					</trkpt>
					<trkpt lat="49.535500" lon="1.361970">
						<ele>161</ele>
						<time>2026-05-01T12:32:08Z</time>
					</trkpt>
					<trkpt lat="49.534350" lon="1.361850">
						<ele>158</ele>
						<time>2026-05-01T12:32:28Z</time>
					</trkpt>
					<trkpt lat="49.533560" lon="1.361580">
						<ele>162</ele>
						<time>2026-05-01T12:32:43Z</time>
					</trkpt>
					<trkpt lat="49.532380" lon="1.361440">
						<ele>165</ele>
						<time>2026-05-01T12:33:04Z</time>
					</trkpt>
					<trkpt lat="49.532170" lon="1.361350">
						<ele>165</ele>
						<time>2026-05-01T12:33:07Z</time>
					</trkpt>
					<trkpt lat="49.531100" lon="1.360250">
						<ele>165</ele>
						<time>2026-05-01T12:33:30Z</time>
					</trkpt>
					<trkpt lat="49.530780" lon="1.360060">
						<ele>165</ele>
						<time>2026-05-01T12:33:36Z</time>
					</trkpt>
					<trkpt lat="49.529700" lon="1.359710">
						<ele>163</ele>
						<time>2026-05-01T12:33:56Z</time>
					</trkpt>
					<trkpt lat="49.528660" lon="1.359460">
						<ele>162</ele>
						<time>2026-05-01T12:34:15Z</time>
					</trkpt>
					<trkpt lat="49.528250" lon="1.359360">
						<ele>162</ele>
						<time>2026-05-01T12:34:22Z</time>
					</trkpt>
					<trkpt lat="49.527820" lon="1.359330">
						<ele>161</ele>
						<time>2026-05-01T12:34:30Z</time>
					</trkpt>
					<trkpt lat="49.526580" lon="1.359400">
						<ele>159</ele>
						<time>2026-05-01T12:34:52Z</time>
					</trkpt>
					<trkpt lat="49.525420" lon="1.359290">
						<ele>157</ele>
						<time>2026-05-01T12:35:13Z</time>
					</trkpt>
					<trkpt lat="49.525210" lon="1.359260">
						<ele>156</ele>
						<time>2026-05-01T12:35:16Z</time>
					</trkpt>
					<trkpt lat="49.524310" lon="1.359120">
						<ele>156</ele>
						<time>2026-05-01T12:35:32Z</time>
					</trkpt>
					<trkpt lat="49.524050" lon="1.359130">
						<ele>156</ele>
						<time>2026-05-01T12:35:37Z</time>
					</trkpt>
					<trkpt lat="49.523200" lon="1.359270">
						<ele>158</ele>
						<time>2026-05-01T12:35:52Z</time>
					</trkpt>
					<trkpt lat="49.522340" lon="1.359240">
						<ele>157</ele>
						<time>2026-05-01T12:36:08Z</time>
					</trkpt>
					<trkpt lat="49.522090" lon="1.359200">
						<ele>158</ele>
						<time>2026-05-01T12:36:12Z</time>
					</trkpt>
					<trkpt lat="49.521490" lon="1.359070">
						<ele>159</ele>
						<time>2026-05-01T12:36:23Z</time>
					</trkpt>
					<trkpt lat="49.520810" lon="1.358710">
						<ele>159</ele>
						<time>2026-05-01T12:36:36Z</time>
					</trkpt>
					<trkpt lat="49.520490" lon="1.358390">
						<ele>159</ele>
						<time>2026-05-01T12:36:42Z</time>
					</trkpt>
					<trkpt lat="49.520330" lon="1.358180">
						<ele>159</ele>
						<time>2026-05-01T12:36:46Z</time>
					</trkpt>
					<trkpt lat="49.520260" lon="1.358000">
						<ele>159</ele>
						<time>2026-05-01T12:36:49Z</time>
					</trkpt>
					<trkpt lat="49.520330" lon="1.357680">
						<ele>160</ele>
						<time>2026-05-01T12:36:53Z</time>
					</trkpt>
					<trkpt lat="49.520330" lon="1.357440">
						<ele>160</ele>
						<time>2026-05-01T12:36:55Z</time>
					</trkpt>
					<trkpt lat="49.520290" lon="1.357310">
						<ele>160</ele>
						<time>2026-05-01T12:36:57Z</time>
					</trkpt>
					<trkpt lat="49.520270" lon="1.357270">
						<ele>160</ele>
						<time>2026-05-01T12:36:58Z</time>
					</trkpt>
					<trkpt lat="49.520160" lon="1.357170">
						<ele>160</ele>
						<time>2026-05-01T12:37:00Z</time>
					</trkpt>
					<trkpt lat="49.519980" lon="1.357070">
						<ele>160</ele>
						<time>2026-05-01T12:37:03Z</time>
					</trkpt>
					<trkpt lat="49.519850" lon="1.357000">
						<ele>160</ele>
						<time>2026-05-01T12:37:06Z</time>
					</trkpt>
					<trkpt lat="49.519520" lon="1.356810">
						<ele>159</ele>
						<time>2026-05-01T12:37:12Z</time>
					</trkpt>
					<trkpt lat="49.519440" lon="1.356810">
						<ele>159</ele>
						<time>2026-05-01T12:37:13Z</time>
					</trkpt>
					<trkpt lat="49.519400" lon="1.356780">
						<ele>159</ele>
						<time>2026-05-01T12:37:14Z</time>
					</trkpt>
					<trkpt lat="49.519290" lon="1.356710">
						<ele>158</ele>
						<time>2026-05-01T12:37:16Z</time>
					</trkpt>
					<trkpt lat="49.519160" lon="1.356510">
						<ele>158</ele>
						<time>2026-05-01T12:37:20Z</time>
					</trkpt>
					<trkpt lat="49.518860" lon="1.356010">
						<ele>159</ele>
						<time>2026-05-01T12:37:27Z</time>
					</trkpt>
					<trkpt lat="49.518610" lon="1.355580">
						<ele>159</ele>
						<time>2026-05-01T12:37:34Z</time>
					</trkpt>
					<trkpt lat="49.517550" lon="1.353750">
						<ele>157</ele>
						<time>2026-05-01T12:38:02Z</time>
					</trkpt>
					<trkpt lat="49.517200" lon="1.353160">
						<ele>155</ele>
						<time>2026-05-01T12:38:12Z</time>
					</trkpt>
					<trkpt lat="49.517040" lon="1.352960">
						<ele>154</ele>
						<time>2026-05-01T12:38:15Z</time>
					</trkpt>
					<trkpt lat="49.516900" lon="1.352860">
						<ele>153</ele>
						<time>2026-05-01T12:38:18Z</time>
					</trkpt>
					<trkpt lat="49.516760" lon="1.352840">
						<ele>152</ele>
						<time>2026-05-01T12:38:21Z</time>
					</trkpt>
					<trkpt lat="49.516600" lon="1.352880">
						<ele>152</ele>
						<time>2026-05-01T12:38:23Z</time>
					</trkpt>
					<trkpt lat="49.516440" lon="1.353010">
						<ele>151</ele>
						<time>2026-05-01T12:38:27Z</time>
					</trkpt>
					<trkpt lat="49.515980" lon="1.353510">
						<ele>150</ele>
						<time>2026-05-01T12:38:37Z</time>
					</trkpt>
					<trkpt lat="49.515590" lon="1.353980">
						<ele>150</ele>
						<time>2026-05-01T12:38:45Z</time>
					</trkpt>
					<trkpt lat="49.515260" lon="1.354330">
						<ele>148</ele>
						<time>2026-05-01T12:38:53Z</time>
					</trkpt>
					<trkpt lat="49.514990" lon="1.354560">
						<ele>146</ele>
						<time>2026-05-01T12:38:58Z</time>
					</trkpt>
					<trkpt lat="49.514850" lon="1.354680">
						<ele>146</ele>
						<time>2026-05-01T12:39:01Z</time>
					</trkpt>
					<trkpt lat="49.514320" lon="1.355030">
						<ele>145</ele>
						<time>2026-05-01T12:39:11Z</time>
					</trkpt>
					<trkpt lat="49.514330" lon="1.355090">
						<ele>145</ele>
						<time>2026-05-01T12:39:12Z</time>
					</trkpt>
					<trkpt lat="49.514250" lon="1.355230">
						<ele>145</ele>
						<time>2026-05-01T12:39:14Z</time>
					</trkpt>
					<trkpt lat="49.513480" lon="1.356280">
						<ele>144</ele>
						<time>2026-05-01T12:39:32Z</time>
					</trkpt>
					<trkpt lat="49.512520" lon="1.357620">
						<ele>138</ele>
						<time>2026-05-01T12:39:55Z</time>
					</trkpt>
					<trkpt lat="49.511260" lon="1.359330">
						<ele>136</ele>
						<time>2026-05-01T12:40:25Z</time>
					</trkpt>
					<trkpt lat="49.511100" lon="1.359580">
						<ele>136</ele>
						<time>2026-05-01T12:40:29Z</time>
					</trkpt>
					<trkpt lat="49.510320" lon="1.360610">
						<ele>135</ele>
						<time>2026-05-01T12:40:48Z</time>
					</trkpt>
					<trkpt lat="49.509990" lon="1.360990">
						<ele>133</ele>
						<time>2026-05-01T12:40:55Z</time>
					</trkpt>
					<trkpt lat="49.509720" lon="1.361270">
						<ele>134</ele>
						<time>2026-05-01T12:41:01Z</time>
					</trkpt>
					<trkpt lat="49.509370" lon="1.361560">
						<ele>132</ele>
						<time>2026-05-01T12:41:08Z</time>
					</trkpt>
					<trkpt lat="49.508760" lon="1.361970">
						<ele>132</ele>
						<time>2026-05-01T12:41:20Z</time>
					</trkpt>
					<trkpt lat="49.508040" lon="1.362380">
						<ele>130</ele>
						<time>2026-05-01T12:41:33Z</time>
					</trkpt>
					<trkpt lat="49.507280" lon="1.362850">
						<ele>129</ele>
						<time>2026-05-01T12:41:48Z</time>
					</trkpt>
					<trkpt lat="49.507130" lon="1.362960">
						<ele>129</ele>
						<time>2026-05-01T12:41:51Z</time>
					</trkpt>
					<trkpt lat="49.506820" lon="1.363220">
						<ele>127</ele>
						<time>2026-05-01T12:41:57Z</time>
					</trkpt>
					<trkpt lat="49.506400" lon="1.363600">
						<ele>127</ele>
						<time>2026-05-01T12:42:06Z</time>
					</trkpt>
					<trkpt lat="49.505620" lon="1.364400">
						<ele>127</ele>
						<time>2026-05-01T12:42:23Z</time>
					</trkpt>
					<trkpt lat="49.505220" lon="1.364850">
						<ele>126</ele>
						<time>2026-05-01T12:42:31Z</time>
					</trkpt>
					<trkpt lat="49.505020" lon="1.365030">
						<ele>124</ele>
						<time>2026-05-01T12:42:35Z</time>
					</trkpt>
					<trkpt lat="49.504910" lon="1.365120">
						<ele>124</ele>
						<time>2026-05-01T12:42:38Z</time>
					</trkpt>
					<trkpt lat="49.504720" lon="1.365240">
						<ele>125</ele>
						<time>2026-05-01T12:42:41Z</time>
					</trkpt>
					<trkpt lat="49.504470" lon="1.365360">
						<ele>124</ele>
						<time>2026-05-01T12:42:46Z</time>
					</trkpt>
					<trkpt lat="49.504210" lon="1.365470">
						<ele>123</ele>
						<time>2026-05-01T12:42:51Z</time>
					</trkpt>
					<trkpt lat="49.504010" lon="1.365520">
						<ele>123</ele>
						<time>2026-05-01T12:42:54Z</time>
					</trkpt>
					<trkpt lat="49.503800" lon="1.365520">
						<ele>122</ele>
						<time>2026-05-01T12:42:58Z</time>
					</trkpt>
					<trkpt lat="49.503470" lon="1.365510">
						<ele>122</ele>
						<time>2026-05-01T12:43:04Z</time>
					</trkpt>
					<trkpt lat="49.502680" lon="1.365440">
						<ele>118</ele>
						<time>2026-05-01T12:43:18Z</time>
					</trkpt>
					<trkpt lat="49.502380" lon="1.365460">
						<ele>116</ele>
						<time>2026-05-01T12:43:23Z</time>
					</trkpt>
					<trkpt lat="49.502250" lon="1.365510">
						<ele>116</ele>
						<time>2026-05-01T12:43:26Z</time>
					</trkpt>
					<trkpt lat="49.502100" lon="1.365590">
						<ele>116</ele>
						<time>2026-05-01T12:43:29Z</time>
					</trkpt>
					<trkpt lat="49.501990" lon="1.365670">
						<ele>115</ele>
						<time>2026-05-01T12:43:31Z</time>
					</trkpt>
					<trkpt lat="49.501840" lon="1.365800">
						<ele>115</ele>
						<time>2026-05-01T12:43:34Z</time>
					</trkpt>
					<trkpt lat="49.501730" lon="1.365940">
						<ele>114</ele>
						<time>2026-05-01T12:43:36Z</time>
					</trkpt>
					<trkpt lat="49.501560" lon="1.366200">
						<ele>114</ele>
						<time>2026-05-01T12:43:41Z</time>
					</trkpt>
					<trkpt lat="49.501500" lon="1.366330">
						<ele>114</ele>
						<time>2026-05-01T12:43:42Z</time>
					</trkpt>
					<trkpt lat="49.501450" lon="1.366480">
						<ele>114</ele>
						<time>2026-05-01T12:43:44Z</time>
					</trkpt>
					<trkpt lat="49.501310" lon="1.366870">
						<ele>114</ele>
						<time>2026-05-01T12:43:50Z</time>
					</trkpt>
					<trkpt lat="49.501060" lon="1.367620">
						<ele>114</ele>
						<time>2026-05-01T12:43:59Z</time>
					</trkpt>
					<trkpt lat="49.500990" lon="1.367810">
						<ele>114</ele>
						<time>2026-05-01T12:44:02Z</time>
					</trkpt>
					<trkpt lat="49.500930" lon="1.367950">
						<ele>114</ele>
						<time>2026-05-01T12:44:04Z</time>
					</trkpt>
					<trkpt lat="49.500800" lon="1.368190">
						<ele>114</ele>
						<time>2026-05-01T12:44:07Z</time>
					</trkpt>
					<trkpt lat="49.500710" lon="1.368340">
						<ele>114</ele>
						<time>2026-05-01T12:44:10Z</time>
					</trkpt>
					<trkpt lat="49.500490" lon="1.368620">
						<ele>115</ele>
						<time>2026-05-01T12:44:15Z</time>
					</trkpt>
					<trkpt lat="49.500330" lon="1.368750">
						<ele>115</ele>
						<time>2026-05-01T12:44:18Z</time>
					</trkpt>
					<trkpt lat="49.500100" lon="1.368880">
						<ele>114</ele>
						<time>2026-05-01T12:44:22Z</time>
					</trkpt>
					<trkpt lat="49.499770" lon="1.369010">
						<ele>113</ele>
						<time>2026-05-01T12:44:28Z</time>
					</trkpt>
					<trkpt lat="49.499020" lon="1.369270">
						<ele>112</ele>
						<time>2026-05-01T12:44:42Z</time>
					</trkpt>
					<trkpt lat="49.498400" lon="1.369450">
						<ele>111</ele>
						<time>2026-05-01T12:44:53Z</time>
					</trkpt>
					<trkpt lat="49.498050" lon="1.369580">
						<ele>112</ele>
						<time>2026-05-01T12:45:00Z</time>
					</trkpt>
					<trkpt lat="49.497820" lon="1.369710">
						<ele>112</ele>
						<time>2026-05-01T12:45:04Z</time>
					</trkpt>
					<trkpt lat="49.497600" lon="1.369860">
						<ele>112</ele>
						<time>2026-05-01T12:45:08Z</time>
					</trkpt>
					<trkpt lat="49.497000" lon="1.370320">
						<ele>113</ele>
						<time>2026-05-01T12:45:20Z</time>
					</trkpt>
					<trkpt lat="49.496410" lon="1.370790">
						<ele>110</ele>
						<time>2026-05-01T12:45:32Z</time>
					</trkpt>
					<trkpt lat="49.494720" lon="1.372130">
						<ele>109</ele>
						<time>2026-05-01T12:46:06Z</time>
					</trkpt>
					<trkpt lat="49.493840" lon="1.372750">
						<ele>109</ele>
						<time>2026-05-01T12:46:23Z</time>
					</trkpt>
					<trkpt lat="49.493430" lon="1.373090">
						<ele>109</ele>
						<time>2026-05-01T12:46:32Z</time>
					</trkpt>
					<trkpt lat="49.493150" lon="1.373420">
						<ele>110</ele>
						<time>2026-05-01T12:46:38Z</time>
					</trkpt>
					<trkpt lat="49.492960" lon="1.373810">
						<ele>111</ele>
						<time>2026-05-01T12:46:43Z</time>
					</trkpt>
					<trkpt lat="49.492850" lon="1.374080">
						<ele>110</ele>
						<time>2026-05-01T12:46:47Z</time>
					</trkpt>
					<trkpt lat="49.492730" lon="1.374490">
						<ele>109</ele>
						<time>2026-05-01T12:46:52Z</time>
					</trkpt>
					<trkpt lat="49.492330" lon="1.376400">
						<ele>103</ele>
						<time>2026-05-01T12:47:15Z</time>
					</trkpt>
					<trkpt lat="49.492210" lon="1.376880">
						<ele>102</ele>
						<time>2026-05-01T12:47:21Z</time>
					</trkpt>
					<trkpt lat="49.492080" lon="1.377250">
						<ele>100</ele>
						<time>2026-05-01T12:47:26Z</time>
					</trkpt>
					<trkpt lat="49.491900" lon="1.377570">
						<ele>98</ele>
						<time>2026-05-01T12:47:31Z</time>
					</trkpt>
					<trkpt lat="49.491700" lon="1.377830">
						<ele>98</ele>
						<time>2026-05-01T12:47:36Z</time>
					</trkpt>
					<trkpt lat="49.491540" lon="1.377990">
						<ele>98</ele>
						<time>2026-05-01T12:47:39Z</time>
					</trkpt>
					<trkpt lat="49.491330" lon="1.378120">
						<ele>98</ele>
						<time>2026-05-01T12:47:43Z</time>
					</trkpt>
					<trkpt lat="49.491020" lon="1.378250">
						<ele>96</ele>
						<time>2026-05-01T12:47:49Z</time>
					</trkpt>
					<trkpt lat="49.490460" lon="1.378440">
						<ele>95</ele>
						<time>2026-05-01T12:47:59Z</time>
					</trkpt>
					<trkpt lat="49.489820" lon="1.378670">
						<ele>94</ele>
						<time>2026-05-01T12:48:11Z</time>
					</trkpt>
					<trkpt lat="49.488860" lon="1.378990">
						<ele>93</ele>
						<time>2026-05-01T12:48:28Z</time>
					</trkpt>
					<trkpt lat="49.488420" lon="1.379160">
						<ele>92</ele>
						<time>2026-05-01T12:48:36Z</time>
					</trkpt>
					<trkpt lat="49.487940" lon="1.379330">
						<ele>92</ele>
						<time>2026-05-01T12:48:45Z</time>
					</trkpt>
					<trkpt lat="49.487510" lon="1.379510">
						<ele>92</ele>
						<time>2026-05-01T12:48:53Z</time>
					</trkpt>
					<trkpt lat="49.487130" lon="1.379720">
						<ele>92</ele>
						<time>2026-05-01T12:49:00Z</time>
					</trkpt>
					<trkpt lat="49.486580" lon="1.380070">
						<ele>90</ele>
						<time>2026-05-01T12:49:11Z</time>
					</trkpt>
					<trkpt lat="49.485280" lon="1.380960">
						<ele>88</ele>
						<time>2026-05-01T12:49:36Z</time>
					</trkpt>
					<trkpt lat="49.484550" lon="1.381480">
						<ele>91</ele>
						<time>2026-05-01T12:49:51Z</time>
					</trkpt>
					<trkpt lat="49.483870" lon="1.381940">
						<ele>93</ele>
						<time>2026-05-01T12:50:04Z</time>
					</trkpt>
					<trkpt lat="49.482490" lon="1.382860">
						<ele>88</ele>
						<time>2026-05-01T12:50:30Z</time>
					</trkpt>
					<trkpt lat="49.481040" lon="1.383880">
						<ele>91</ele>
						<time>2026-05-01T12:50:59Z</time>
					</trkpt>
					<trkpt lat="49.480430" lon="1.384260">
						<ele>90</ele>
						<time>2026-05-01T12:51:11Z</time>
					</trkpt>
					<trkpt lat="49.480050" lon="1.384610">
						<ele>89</ele>
						<time>2026-05-01T12:51:18Z</time>
					</trkpt>
					<trkpt lat="49.479380" lon="1.385390">
						<ele>88</ele>
						<time>2026-05-01T12:51:33Z</time>
					</trkpt>
					<trkpt lat="49.478730" lon="1.386100">
						<ele>88</ele>
						<time>2026-05-01T12:51:48Z</time>
					</trkpt>
					<trkpt lat="49.478530" lon="1.386380">
						<ele>87</ele>
						<time>2026-05-01T12:51:52Z</time>
					</trkpt>
					<trkpt lat="49.478330" lon="1.386800">
						<ele>86</ele>
						<time>2026-05-01T12:51:58Z</time>
					</trkpt>
					<trkpt lat="49.478130" lon="1.387360">
						<ele>88</ele>
						<time>2026-05-01T12:52:06Z</time>
					</trkpt>
					<trkpt lat="49.477880" lon="1.388170">
						<ele>88</ele>
						<time>2026-05-01T12:52:16Z</time>
					</trkpt>
					<trkpt lat="49.477760" lon="1.388440">
						<ele>87</ele>
						<time>2026-05-01T12:52:20Z</time>
					</trkpt>
					<trkpt lat="49.477630" lon="1.388620">
						<ele>85</ele>
						<time>2026-05-01T12:52:23Z</time>
					</trkpt>
					<trkpt lat="49.477450" lon="1.388760">
						<ele>83</ele>
						<time>2026-05-01T12:52:27Z</time>
					</trkpt>
					<trkpt lat="49.477140" lon="1.388960">
						<ele>80</ele>
						<time>2026-05-01T12:52:33Z</time>
					</trkpt>
					<trkpt lat="49.475970" lon="1.389780">
						<ele>77</ele>
						<time>2026-05-01T12:52:56Z</time>
					</trkpt>
					<trkpt lat="49.475730" lon="1.389990">
						<ele>77</ele>
						<time>2026-05-01T12:53:00Z</time>
					</trkpt>
					<trkpt lat="49.475380" lon="1.390430">
						<ele>78</ele>
						<time>2026-05-01T12:53:08Z</time>
					</trkpt>
					<trkpt lat="49.474920" lon="1.391040">
						<ele>75</ele>
						<time>2026-05-01T12:53:19Z</time>
					</trkpt>
					<trkpt lat="49.474430" lon="1.391700">
						<ele>75</ele>
						<time>2026-05-01T12:53:31Z</time>
					</trkpt>
					<trkpt lat="49.473780" lon="1.392530">
						<ele>74</ele>
						<time>2026-05-01T12:53:46Z</time>
					</trkpt>
					<trkpt lat="49.473230" lon="1.393250">
						<ele>72</ele>
						<time>2026-05-01T12:53:59Z</time>
					</trkpt>
					<trkpt lat="49.472640" lon="1.393990">
						<ele>72</ele>
						<time>2026-05-01T12:54:12Z</time>
					</trkpt>
					<trkpt lat="49.472380" lon="1.394290">
						<ele>71</ele>
						<time>2026-05-01T12:54:18Z</time>
					</trkpt>
					<trkpt lat="49.472040" lon="1.394630">
						<ele>70</ele>
						<time>2026-05-01T12:54:25Z</time>
					</trkpt>
					<trkpt lat="49.471680" lon="1.394950">
						<ele>68</ele>
						<time>2026-05-01T12:54:33Z</time>
					</trkpt>
					<trkpt lat="49.471410" lon="1.395150">
						<ele>69</ele>
						<time>2026-05-01T12:54:38Z</time>
					</trkpt>
					<trkpt lat="49.471150" lon="1.395290">
						<ele>69</ele>
						<time>2026-05-01T12:54:43Z</time>
					</trkpt>
					<trkpt lat="49.470400" lon="1.395640">
						<ele>69</ele>
						<time>2026-05-01T12:54:57Z</time>
					</trkpt>
					<trkpt lat="49.470510" lon="1.396270">
						<ele>68</ele>
						<time>2026-05-01T12:55:04Z</time>
					</trkpt>
					<trkpt lat="49.470480" lon="1.396280">
						<ele>68</ele>
						<time>2026-05-01T12:55:05Z</time>
					</trkpt>
					<trkpt lat="49.470430" lon="1.396350">
						<ele>68</ele>
						<time>2026-05-01T12:55:06Z</time>
					</trkpt>
					<trkpt lat="49.470170" lon="1.396910">
						<ele>68</ele>
						<time>2026-05-01T12:55:14Z</time>
					</trkpt>
					<trkpt lat="49.470080" lon="1.397160">
						<ele>67</ele>
						<time>2026-05-01T12:55:17Z</time>
					</trkpt>
					<trkpt lat="49.470010" lon="1.397270">
						<ele>67</ele>
						<time>2026-05-01T12:55:19Z</time>
					</trkpt>
					<trkpt lat="49.469140" lon="1.398520">
						<ele>64</ele>
						<time>2026-05-01T12:55:40Z</time>
					</trkpt>
					<trkpt lat="49.468610" lon="1.399280">
						<ele>65</ele>
						<time>2026-05-01T12:55:53Z</time>
					</trkpt>
					<trkpt lat="49.467450" lon="1.400930">
						<ele>64</ele>
						<time>2026-05-01T12:56:21Z</time>
					</trkpt>
					<trkpt lat="49.466440" lon="1.402400">
						<ele>65</ele>
						<time>2026-05-01T12:56:46Z</time>
					</trkpt>
					<trkpt lat="49.466350" lon="1.402530">
						<ele>66</ele>
						<time>2026-05-01T12:56:48Z</time>
					</trkpt>
					<trkpt lat="49.466020" lon="1.403000">
						<ele>72</ele>
						<time>2026-05-01T12:56:56Z</time>
					</trkpt>
					<trkpt lat="49.465640" lon="1.402190">
						<ele>70</ele>
						<time>2026-05-01T12:57:08Z</time>
					</trkpt>
					<trkpt lat="49.465430" lon="1.401680">
						<ele>69</ele>
						<time>2026-05-01T12:57:15Z</time>
					</trkpt>
					<trkpt lat="49.465360" lon="1.401520">
						<ele>69</ele>
						<time>2026-05-01T12:57:17Z</time>
					</trkpt>
					<trkpt lat="49.464980" lon="1.400780">
						<ele>67</ele>
						<time>2026-05-01T12:57:28Z</time>
					</trkpt>
					<trkpt lat="49.464600" lon="1.400180">
						<ele>67</ele>
						<time>2026-05-01T12:57:38Z</time>
					</trkpt>
					<trkpt lat="49.463340" lon="1.398330">
						<ele>66</ele>
						<time>2026-05-01T12:58:09Z</time>
					</trkpt>
					<trkpt lat="49.463160" lon="1.398110">
						<ele>65</ele>
						<time>2026-05-01T12:58:13Z</time>
					</trkpt>
					<trkpt lat="49.462990" lon="1.397970">
						<ele>65</ele>
						<time>2026-05-01T12:58:16Z</time>
					</trkpt>
					<trkpt lat="49.462780" lon="1.397980">
						<ele>65</ele>
						<time>2026-05-01T12:58:20Z</time>
					</trkpt>
					<trkpt lat="49.462350" lon="1.398200">
						<ele>66</ele>
						<time>2026-05-01T12:58:28Z</time>
					</trkpt>
					<trkpt lat="49.462320" lon="1.398210">
						<ele>66</ele>
						<time>2026-05-01T12:58:28Z</time>
					</trkpt>
					<trkpt lat="49.462230" lon="1.398230">
						<ele>66</ele>
						<time>2026-05-01T12:58:30Z</time>
					</trkpt>
					<trkpt lat="49.462200" lon="1.398210">
						<ele>65</ele>
						<time>2026-05-01T12:58:31Z</time>
					</trkpt>
					<trkpt lat="49.462100" lon="1.398150">
						<ele>65</ele>
						<time>2026-05-01T12:58:33Z</time>
					</trkpt>
					<trkpt lat="49.461870" lon="1.397910">
						<ele>64</ele>
						<time>2026-05-01T12:58:38Z</time>
					</trkpt>
					<trkpt lat="49.460950" lon="1.396380">
						<ele>69</ele>
						<time>2026-05-01T12:59:02Z</time>
					</trkpt>
					<trkpt lat="49.460880" lon="1.396300">
						<ele>70</ele>
						<time>2026-05-01T12:59:03Z</time>
					</trkpt>
					<trkpt lat="49.460750" lon="1.396160">
						<ele>71</ele>
						<time>2026-05-01T12:59:06Z</time>
					</trkpt>
					<trkpt lat="49.460780" lon="1.395930">
						<ele>70</ele>
						<time>2026-05-01T12:59:09Z</time>
					</trkpt>
					<trkpt lat="49.460730" lon="1.395600">
						<ele>70</ele>
						<time>2026-05-01T12:59:13Z</time>
					</trkpt>
					<trkpt lat="49.460610" lon="1.395370">
						<ele>70</ele>
						<time>2026-05-01T12:59:16Z</time>
					</trkpt>
					<trkpt lat="49.460020" lon="1.394420">
						<ele>71</ele>
						<time>2026-05-01T12:59:31Z</time>
					</trkpt>
					<trkpt lat="49.459810" lon="1.394090">
						<ele>70</ele>
						<time>2026-05-01T12:59:37Z</time>
					</trkpt>
					<trkpt lat="49.459250" lon="1.393200">
						<ele>69</ele>
						<time>2026-05-01T12:59:51Z</time>
					</trkpt>
					<trkpt lat="49.459060" lon="1.392890">
						<ele>69</ele>
						<time>2026-05-01T12:59:56Z</time>
					</trkpt>
					<trkpt lat="49.458660" lon="1.392290">
						<ele>67</ele>
						<time>2026-05-01T13:00:06Z</time>
					</trkpt>
					<trkpt lat="49.458430" lon="1.391940">
						<ele>66</ele>
						<time>2026-05-01T13:00:12Z</time>
					</trkpt>
					<trkpt lat="49.458390" lon="1.391870">
						<ele>66</ele>
						<time>2026-05-01T13:00:13Z</time>
					</trkpt>
					<trkpt lat="49.458250" lon="1.391670">
						<ele>65</ele>
						<time>2026-05-01T13:00:16Z</time>
					</trkpt>
					<trkpt lat="49.458190" lon="1.391620">
						<ele>65</ele>
						<time>2026-05-01T13:00:17Z</time>
					</trkpt>
					<trkpt lat="49.457920" lon="1.391440">
						<ele>64</ele>
						<time>2026-05-01T13:00:22Z</time>
					</trkpt>
					<trkpt lat="49.457800" lon="1.391390">
						<ele>63</ele>
						<time>2026-05-01T13:00:25Z</time>
					</trkpt>
					<trkpt lat="49.457660" lon="1.391370">
						<ele>63</ele>
						<time>2026-05-01T13:00:27Z</time>
					</trkpt>
					<trkpt lat="49.457390" lon="1.391420">
						<ele>63</ele>
						<time>2026-05-01T13:00:32Z</time>
					</trkpt>
					<trkpt lat="49.456920" lon="1.391610">
						<ele>62</ele>
						<time>2026-05-01T13:00:41Z</time>
					</trkpt>
					<trkpt lat="49.456620" lon="1.391640">
						<ele>62</ele>
						<time>2026-05-01T13:00:46Z</time>
					</trkpt>
					<trkpt lat="49.456530" lon="1.391620">
						<ele>62</ele>
						<time>2026-05-01T13:00:48Z</time>
					</trkpt>
					<trkpt lat="49.456340" lon="1.391550">
						<ele>62</ele>
						<time>2026-05-01T13:00:51Z</time>
					</trkpt>
					<trkpt lat="49.456100" lon="1.391350">
						<ele>62</ele>
						<time>2026-05-01T13:00:56Z</time>
					</trkpt>
					<trkpt lat="49.455680" lon="1.390840">
						<ele>61</ele>
						<time>2026-05-01T13:01:06Z</time>
					</trkpt>
					<trkpt lat="49.455360" lon="1.390670">
						<ele>61</ele>
						<time>2026-05-01T13:01:12Z</time>
					</trkpt>
					<trkpt lat="49.455360" lon="1.390570">
						<ele>61</ele>
						<time>2026-05-01T13:01:13Z</time>
					</trkpt>
					<trkpt lat="49.455340" lon="1.390480">
						<ele>61</ele>
						<time>2026-05-01T13:01:14Z</time>
					</trkpt>
					<trkpt lat="49.455290" lon="1.390420">
						<ele>61</ele>
						<time>2026-05-01T13:01:15Z</time>
					</trkpt>
					<trkpt lat="49.455230" lon="1.390390">
						<ele>61</ele>
						<time>2026-05-01T13:01:16Z</time>
					</trkpt>
					<trkpt lat="49.455180" lon="1.390400">
						<ele>61</ele>
						<time>2026-05-01T13:01:17Z</time>
					</trkpt>
					<trkpt lat="49.455130" lon="1.390430">
						<ele>61</ele>
						<time>2026-05-01T13:01:18Z</time>
					</trkpt>
					<trkpt lat="49.455090" lon="1.390490">
						<ele>61</ele>
						<time>2026-05-01T13:01:19Z</time>
					</trkpt>
					<trkpt lat="49.454900" lon="1.390440">
						<ele>61</ele>
						<time>2026-05-01T13:01:22Z</time>
					</trkpt>
					<trkpt lat="49.454740" lon="1.390380">
						<ele>61</ele>
						<time>2026-05-01T13:01:25Z</time>
					</trkpt>
					<trkpt lat="49.454690" lon="1.390350">
						<ele>61</ele>
						<time>2026-05-01T13:01:26Z</time>
					</trkpt>
					<trkpt lat="49.454310" lon="1.390130">
						<ele>62</ele>
						<time>2026-05-01T13:01:33Z</time>
					</trkpt>
					<trkpt lat="49.453270" lon="1.389410">
						<ele>64</ele>
						<time>2026-05-01T13:01:54Z</time>
					</trkpt>
					<trkpt lat="49.452100" lon="1.388780">
						<ele>63</ele>
						<time>2026-05-01T13:02:16Z</time>
					</trkpt>
					<trkpt lat="49.451240" lon="1.388260">
						<ele>62</ele>
						<time>2026-05-01T13:02:32Z</time>
					</trkpt>
					<trkpt lat="49.450390" lon="1.387860">
						<ele>62</ele>
						<time>2026-05-01T13:02:48Z</time>
					</trkpt>
					<trkpt lat="49.449970" lon="1.387680">
						<ele>61</ele>
						<time>2026-05-01T13:02:56Z</time>
					</trkpt>
					<trkpt lat="49.449460" lon="1.387530">
						<ele>61</ele>
						<time>2026-05-01T13:03:05Z</time>
					</trkpt>
					<trkpt lat="49.449150" lon="1.387440">
						<ele>61</ele>
						<time>2026-05-01T13:03:11Z</time>
					</trkpt>
					<trkpt lat="49.448730" lon="1.387350">
						<ele>62</ele>
						<time>2026-05-01T13:03:18Z</time>
					</trkpt>
					<trkpt lat="49.448410" lon="1.387270">
						<ele>62</ele>
						<time>2026-05-01T13:03:24Z</time>
					</trkpt>
					<trkpt lat="49.448130" lon="1.387110">
						<ele>64</ele>
						<time>2026-05-01T13:03:29Z</time>
					</trkpt>
					<trkpt lat="49.447940" lon="1.386880">
						<ele>65</ele>
						<time>2026-05-01T13:03:34Z</time>
					</trkpt>
					<trkpt lat="49.447510" lon="1.386270">
						<ele>65</ele>
						<time>2026-05-01T13:03:44Z</time>
					</trkpt>
					<trkpt lat="49.447290" lon="1.386050">
						<ele>65</ele>
						<time>2026-05-01T13:03:49Z</time>
					</trkpt>
					<trkpt lat="49.447030" lon="1.385850">
						<ele>64</ele>
						<time>2026-05-01T13:03:54Z</time>
					</trkpt>
					<trkpt lat="49.446540" lon="1.385700">
						<ele>64</ele>
						<time>2026-05-01T13:04:03Z</time>
					</trkpt>
					<trkpt lat="49.445730" lon="1.385720">
						<ele>64</ele>
						<time>2026-05-01T13:04:17Z</time>
					</trkpt>
					<trkpt lat="49.445920" lon="1.386450">
						<ele>67</ele>
						<time>2026-05-01T13:04:26Z</time>
					</trkpt>
					<trkpt lat="49.445920" lon="1.386670">
						<ele>68</ele>
						<time>2026-05-01T13:04:29Z</time>
					</trkpt>
					<trkpt lat="49.445770" lon="1.386750">
						<ele>68</ele>
						<time>2026-05-01T13:04:32Z</time>
					</trkpt>
					<trkpt lat="49.445450" lon="1.386640">
						<ele>68</ele>
						<time>2026-05-01T13:04:37Z</time>
					</trkpt>
					<trkpt lat="49.445160" lon="1.386370">
						<ele>67</ele>
						<time>2026-05-01T13:04:43Z</time>
					</trkpt>
					<trkpt lat="49.444850" lon="1.386250">
						<ele>67</ele>
						<time>2026-05-01T13:04:49Z</time>
					</trkpt>
					<trkpt lat="49.444670" lon="1.386290">
						<ele>68</ele>
						<time>2026-05-01T13:04:52Z</time>
					</trkpt>
					<trkpt lat="49.444610" lon="1.386120">
						<ele>67</ele>
						<time>2026-05-01T13:04:55Z</time>
					</trkpt>
					<trkpt lat="49.444540" lon="1.386060">
						<ele>68</ele>
						<time>2026-05-01T13:04:56Z</time>
					</trkpt>
					<trkpt lat="49.444260" lon="1.385970">
						<ele>69</ele>
						<time>2026-05-01T13:05:01Z</time>
					</trkpt>
					<trkpt lat="49.444040" lon="1.385960">
						<ele>70</ele>
						<time>2026-05-01T13:05:05Z</time>
					</trkpt>
					<trkpt lat="49.443430" lon="1.386010">
						<ele>73</ele>
						<time>2026-05-01T13:05:16Z</time>
					</trkpt>
					<trkpt lat="49.442030" lon="1.385760">
						<ele>76</ele>
						<time>2026-05-01T13:05:41Z</time>
					</trkpt>
					<trkpt lat="49.441890" lon="1.385740">
						<ele>76</ele>
						<time>2026-05-01T13:05:43Z</time>
					</trkpt>
					<trkpt lat="49.441710" lon="1.385700">
						<ele>77</ele>
						<time>2026-05-01T13:05:47Z</time>
					</trkpt>
					<trkpt lat="49.441580" lon="1.385650">
						<ele>77</ele>
						<time>2026-05-01T13:05:49Z</time>
					</trkpt>
					<trkpt lat="49.441310" lon="1.385490">
						<ele>75</ele>
						<time>2026-05-01T13:05:54Z</time>
					</trkpt>
					<trkpt lat="49.440640" lon="1.384980">
						<ele>71</ele>
						<time>2026-05-01T13:06:08Z</time>
					</trkpt>
					<trkpt lat="49.440600" lon="1.384960">
						<ele>70</ele>
						<time>2026-05-01T13:06:08Z</time>
					</trkpt>
					<trkpt lat="49.440500" lon="1.384930">
						<ele>69</ele>
						<time>2026-05-01T13:06:10Z</time>
					</trkpt>
					<trkpt lat="49.440420" lon="1.384890">
						<ele>68</ele>
						<time>2026-05-01T13:06:12Z</time>
					</trkpt>
					<trkpt lat="49.440080" lon="1.384590">
						<ele>63</ele>
						<time>2026-05-01T13:06:19Z</time>
					</trkpt>
					<trkpt lat="49.440000" lon="1.384550">
						<ele>62</ele>
						<time>2026-05-01T13:06:20Z</time>
					</trkpt>
					<trkpt lat="49.439920" lon="1.384530">
						<ele>62</ele>
						<time>2026-05-01T13:06:22Z</time>
					</trkpt>
					<trkpt lat="49.439800" lon="1.384540">
						<ele>62</ele>
						<time>2026-05-01T13:06:24Z</time>
					</trkpt>
					<trkpt lat="49.438880" lon="1.384690">
						<ele>61</ele>
						<time>2026-05-01T13:06:40Z</time>
					</trkpt>
					<trkpt lat="49.438620" lon="1.384720">
						<ele>61</ele>
						<time>2026-05-01T13:06:45Z</time>
					</trkpt>
					<trkpt lat="49.438520" lon="1.384720">
						<ele>60</ele>
						<time>2026-05-01T13:06:47Z</time>
					</trkpt>
					<trkpt lat="49.438270" lon="1.384660">
						<ele>59</ele>
						<time>2026-05-01T13:06:51Z</time>
					</trkpt>
					<trkpt lat="49.437970" lon="1.384680">
						<ele>59</ele>
						<time>2026-05-01T13:06:56Z</time>
					</trkpt>
					<trkpt lat="49.437870" lon="1.384670">
						<ele>58</ele>
						<time>2026-05-01T13:06:58Z</time>
					</trkpt>
					<trkpt lat="49.437650" lon="1.384640">
						<ele>58</ele>
						<time>2026-05-01T13:07:02Z</time>
					</trkpt>
					<trkpt lat="49.437620" lon="1.384640">
						<ele>57</ele>
						<time>2026-05-01T13:07:03Z</time>
					</trkpt>
					<trkpt lat="49.437580" lon="1.384650">
						<ele>57</ele>
						<time>2026-05-01T13:07:03Z</time>
					</trkpt>
					<trkpt lat="49.437460" lon="1.384750">
						<ele>58</ele>
						<time>2026-05-01T13:07:06Z</time>
					</trkpt>
					<trkpt lat="49.437180" lon="1.384920">
						<ele>61</ele>
						<time>2026-05-01T13:07:11Z</time>
					</trkpt>
					<trkpt lat="49.436960" lon="1.385030">
						<ele>63</ele>
						<time>2026-05-01T13:07:15Z</time>
					</trkpt>
					<trkpt lat="49.436770" lon="1.385080">
						<ele>64</ele>
						<time>2026-05-01T13:07:19Z</time>
					</trkpt>
					<trkpt lat="49.436660" lon="1.385090">
						<ele>65</ele>
						<time>2026-05-01T13:07:21Z</time>
					</trkpt>
					<trkpt lat="49.436110" lon="1.385060">
						<ele>64</ele>
						<time>2026-05-01T13:07:30Z</time>
					</trkpt>
					<trkpt lat="49.435580" lon="1.385020">
						<ele>62</ele>
						<time>2026-05-01T13:07:40Z</time>
					</trkpt>
					<trkpt lat="49.435200" lon="1.385020">
						<ele>62</ele>
						<time>2026-05-01T13:07:47Z</time>
					</trkpt>
					<trkpt lat="49.435070" lon="1.385010">
						<ele>62</ele>
						<time>2026-05-01T13:07:49Z</time>
					</trkpt>
					<trkpt lat="49.434520" lon="1.384880">
						<ele>60</ele>
						<time>2026-05-01T13:07:59Z</time>
					</trkpt>
					<trkpt lat="49.434300" lon="1.384810">
						<ele>59</ele>
						<time>2026-05-01T13:08:03Z</time>
					</trkpt>
					<trkpt lat="49.433920" lon="1.384650">
						<ele>58</ele>
						<time>2026-05-01T13:08:10Z</time>
					</trkpt>
					<trkpt lat="49.433680" lon="1.384590">
						<ele>59</ele>
						<time>2026-05-01T13:08:14Z</time>
					</trkpt>
					<trkpt lat="49.433450" lon="1.384510">
						<ele>58</ele>
						<time>2026-05-01T13:08:18Z</time>
					</trkpt>
					<trkpt lat="49.433170" lon="1.384350">
						<ele>58</ele>
						<time>2026-05-01T13:08:24Z</time>
					</trkpt>
					<trkpt lat="49.432930" lon="1.384170">
						<ele>57</ele>
						<time>2026-05-01T13:08:28Z</time>
					</trkpt>
					<trkpt lat="49.432520" lon="1.384000">
						<ele>58</ele>
						<time>2026-05-01T13:08:36Z</time>
					</trkpt>
					<trkpt lat="49.432280" lon="1.383980">
						<ele>59</ele>
						<time>2026-05-01T13:08:40Z</time>
					</trkpt>
					<trkpt lat="49.432080" lon="1.384020">
						<ele>60</ele>
						<time>2026-05-01T13:08:44Z</time>
					</trkpt>
					<trkpt lat="49.431820" lon="1.384030">
						<ele>61</ele>
						<time>2026-05-01T13:08:49Z</time>
					</trkpt>
					<trkpt lat="49.431650" lon="1.384020">
						<ele>62</ele>
						<time>2026-05-01T13:08:52Z</time>
					</trkpt>
					<trkpt lat="49.431280" lon="1.383980">
						<ele>62</ele>
						<time>2026-05-01T13:08:58Z</time>
					</trkpt>
					<trkpt lat="49.430890" lon="1.383960">
						<ele>63</ele>
						<time>2026-05-01T13:09:05Z</time>
					</trkpt>
					<trkpt lat="49.430340" lon="1.383990">
						<ele>63</ele>
						<time>2026-05-01T13:09:15Z</time>
					</trkpt>
					<trkpt lat="49.430130" lon="1.384110">
						<ele>64</ele>
						<time>2026-05-01T13:09:19Z</time>
					</trkpt>
					<trkpt lat="49.429980" lon="1.384020">
						<ele>63</ele>
						<time>2026-05-01T13:09:22Z</time>
					</trkpt>
					<trkpt lat="49.429540" lon="1.383650">
						<ele>59</ele>
						<time>2026-05-01T13:09:31Z</time>
					</trkpt>
					<trkpt lat="49.429300" lon="1.383400">
						<ele>55</ele>
						<time>2026-05-01T13:09:36Z</time>
					</trkpt>
					<trkpt lat="49.429210" lon="1.383270">
						<ele>53</ele>
						<time>2026-05-01T13:09:38Z</time>
					</trkpt>
					<trkpt lat="49.429160" lon="1.383310">
						<ele>53</ele>
						<time>2026-05-01T13:09:39Z</time>
					</trkpt>
					<trkpt lat="49.428680" lon="1.383260">
						<ele>53</ele>
						<time>2026-05-01T13:09:48Z</time>
					</trkpt>
					<trkpt lat="49.427870" lon="1.383110">
						<ele>53</ele>
						<time>2026-05-01T13:10:02Z</time>
					</trkpt>
					<trkpt lat="49.427400" lon="1.382970">
						<ele>53</ele>
						<time>2026-05-01T13:10:11Z</time>
					</trkpt>
					<trkpt lat="49.427050" lon="1.382970">
						<ele>54</ele>
						<time>2026-05-01T13:10:17Z</time>
					</trkpt>
					<trkpt lat="49.426870" lon="1.382980">
						<ele>54</ele>
						<time>2026-05-01T13:10:20Z</time>
					</trkpt>
					<trkpt lat="49.426530" lon="1.383050">
						<ele>55</ele>
						<time>2026-05-01T13:10:26Z</time>
					</trkpt>
					<trkpt lat="49.426380" lon="1.383100">
						<ele>55</ele>
						<time>2026-05-01T13:10:29Z</time>
					</trkpt>
					<trkpt lat="49.426270" lon="1.383160">
						<ele>55</ele>
						<time>2026-05-01T13:10:31Z</time>
					</trkpt>
					<trkpt lat="49.426020" lon="1.383390">
						<ele>56</ele>
						<time>2026-05-01T13:10:36Z</time>
					</trkpt>
					<trkpt lat="49.425650" lon="1.383710">
						<ele>62</ele>
						<time>2026-05-01T13:10:44Z</time>
					</trkpt>
					<trkpt lat="49.425580" lon="1.383750">
						<ele>63</ele>
						<time>2026-05-01T13:10:45Z</time>
					</trkpt>
					<trkpt lat="49.425390" lon="1.383790">
						<ele>63</ele>
						<time>2026-05-01T13:10:48Z</time>
					</trkpt>
					<trkpt lat="49.425140" lon="1.383830">
						<ele>64</ele>
						<time>2026-05-01T13:10:53Z</time>
					</trkpt>
					<trkpt lat="49.424930" lon="1.383830">
						<ele>63</ele>
						<time>2026-05-01T13:10:57Z</time>
					</trkpt>
					<trkpt lat="49.423980" lon="1.383690">
						<ele>62</ele>
						<time>2026-05-01T13:11:14Z</time>
					</trkpt>
					<trkpt lat="49.423260" lon="1.383630">
						<ele>61</ele>
						<time>2026-05-01T13:11:26Z</time>
					</trkpt>
					<trkpt lat="49.422560" lon="1.383510">
						<ele>60</ele>
						<time>2026-05-01T13:11:39Z</time>
					</trkpt>
					<trkpt lat="49.421660" lon="1.383280">
						<ele>57</ele>
						<time>2026-05-01T13:11:55Z</time>
					</trkpt>
					<trkpt lat="49.420210" lon="1.382900">
						<ele>58</ele>
						<time>2026-05-01T13:12:21Z</time>
					</trkpt>
					<trkpt lat="49.419740" lon="1.382780">
						<ele>58</ele>
						<time>2026-05-01T13:12:30Z</time>
					</trkpt>
					<trkpt lat="49.419190" lon="1.382650">
						<ele>57</ele>
						<time>2026-05-01T13:12:40Z</time>
					</trkpt>
					<trkpt lat="49.418520" lon="1.382370">
						<ele>56</ele>
						<time>2026-05-01T13:12:52Z</time>
					</trkpt>
					<trkpt lat="49.418060" lon="1.382130">
						<ele>56</ele>
						<time>2026-05-01T13:13:01Z</time>
					</trkpt>
					<trkpt lat="49.417880" lon="1.382050">
						<ele>55</ele>
						<time>2026-05-01T13:13:04Z</time>
					</trkpt>
					<trkpt lat="49.417080" lon="1.381880">
						<ele>56</ele>
						<time>2026-05-01T13:13:18Z</time>
					</trkpt>
					<trkpt lat="49.416600" lon="1.381740">
						<ele>54</ele>
						<time>2026-05-01T13:13:27Z</time>
					</trkpt>
					<trkpt lat="49.415920" lon="1.381340">
						<ele>54</ele>
						<time>2026-05-01T13:13:40Z</time>
					</trkpt>
					<trkpt lat="49.415080" lon="1.380840">
						<ele>51</ele>
						<time>2026-05-01T13:13:56Z</time>
					</trkpt>
					<trkpt lat="49.413860" lon="1.380170">
						<ele>50</ele>
						<time>2026-05-01T13:14:19Z</time>
					</trkpt>
					<trkpt lat="49.413550" lon="1.380140">
						<ele>50</ele>
						<time>2026-05-01T13:14:25Z</time>
					</trkpt>
					<trkpt lat="49.412830" lon="1.380020">
						<ele>49</ele>
						<time>2026-05-01T13:14:38Z</time>
					</trkpt>
					<trkpt lat="49.411820" lon="1.379860">
						<ele>49</ele>
						<time>2026-05-01T13:14:56Z</time>
					</trkpt>
					<trkpt lat="49.411230" lon="1.379640">
						<ele>49</ele>
						<time>2026-05-01T13:15:06Z</time>
					</trkpt>
					<trkpt lat="49.410800" lon="1.379570">
						<ele>50</ele>
						<time>2026-05-01T13:15:14Z</time>
					</trkpt>
					<trkpt lat="49.410270" lon="1.379570">
						<ele>49</ele>
						<time>2026-05-01T13:15:24Z</time>
					</trkpt>
					<trkpt lat="49.409570" lon="1.379660">
						<ele>49</ele>
						<time>2026-05-01T13:15:36Z</time>
					</trkpt>
					<trkpt lat="49.408850" lon="1.379790">
						<ele>49</ele>
						<time>2026-05-01T13:15:49Z</time>
					</trkpt>
					<trkpt lat="49.408350" lon="1.379630">
						<ele>47</ele>
						<time>2026-05-01T13:15:58Z</time>
					</trkpt>
					<trkpt lat="49.407850" lon="1.379620">
						<ele>50</ele>
						<time>2026-05-01T13:16:07Z</time>
					</trkpt>
					<trkpt lat="49.407550" lon="1.379690">
						<ele>53</ele>
						<time>2026-05-01T13:16:12Z</time>
					</trkpt>
					<trkpt lat="49.406850" lon="1.379500">
						<ele>52</ele>
						<time>2026-05-01T13:16:25Z</time>
					</trkpt>
					<trkpt lat="49.406430" lon="1.379560">
						<ele>53</ele>
						<time>2026-05-01T13:16:33Z</time>
					</trkpt>
					<trkpt lat="49.406210" lon="1.379640">
						<ele>54</ele>
						<time>2026-05-01T13:16:37Z</time>
					</trkpt>
					<trkpt lat="49.405880" lon="1.379720">
						<ele>55</ele>
						<time>2026-05-01T13:16:42Z</time>
					</trkpt>
					<trkpt lat="49.405540" lon="1.379600">
						<ele>53</ele>
						<time>2026-05-01T13:16:49Z</time>
					</trkpt>
					<trkpt lat="49.405450" lon="1.379590">
						<ele>53</ele>
						<time>2026-05-01T13:16:50Z</time>
					</trkpt>
					<trkpt lat="49.405270" lon="1.379620">
						<ele>53</ele>
						<time>2026-05-01T13:16:54Z</time>
					</trkpt>
					<trkpt lat="49.405080" lon="1.379710">
						<ele>55</ele>
						<time>2026-05-01T13:16:57Z</time>
					</trkpt>
					<trkpt lat="49.404280" lon="1.380230">
						<ele>57</ele>
						<time>2026-05-01T13:17:13Z</time>
					</trkpt>
					<trkpt lat="49.403730" lon="1.380540">
						<ele>59</ele>
						<time>2026-05-01T13:17:23Z</time>
					</trkpt>
					<trkpt lat="49.403390" lon="1.380710">
						<ele>60</ele>
						<time>2026-05-01T13:17:29Z</time>
					</trkpt>
					<trkpt lat="49.402380" lon="1.380930">
						<ele>58</ele>
						<time>2026-05-01T13:17:47Z</time>
					</trkpt>
					<trkpt lat="49.401090" lon="1.381220">
						<ele>58</ele>
						<time>2026-05-01T13:18:11Z</time>
					</trkpt>
					<trkpt lat="49.399620" lon="1.381620">
						<ele>54</ele>
						<time>2026-05-01T13:18:37Z</time>
					</trkpt>
					<trkpt lat="49.397650" lon="1.382170">
						<ele>53</ele>
						<time>2026-05-01T13:19:13Z</time>
					</trkpt>
					<trkpt lat="49.394720" lon="1.383080">
						<ele>54</ele>
						<time>2026-05-01T13:20:06Z</time>
					</trkpt>
					<trkpt lat="49.394520" lon="1.383110">
						<ele>54</ele>
						<time>2026-05-01T13:20:10Z</time>
					</trkpt>
					<trkpt lat="49.394360" lon="1.383110">
						<ele>54</ele>
						<time>2026-05-01T13:20:12Z</time>
					</trkpt>
					<trkpt lat="49.394250" lon="1.383100">
						<ele>54</ele>
						<time>2026-05-01T13:20:14Z</time>
					</trkpt>
					<trkpt lat="49.394040" lon="1.383040">
						<ele>53</ele>
						<time>2026-05-01T13:20:18Z</time>
					</trkpt>
					<trkpt lat="49.393890" lon="1.383020">
						<ele>52</ele>
						<time>2026-05-01T13:20:21Z</time>
					</trkpt>
					<trkpt lat="49.393580" lon="1.383040">
						<ele>51</ele>
						<time>2026-05-01T13:20:26Z</time>
					</trkpt>
					<trkpt lat="49.392310" lon="1.383300">
						<ele>50</ele>
						<time>2026-05-01T13:20:49Z</time>
					</trkpt>
					<trkpt lat="49.392020" lon="1.383380">
						<ele>50</ele>
						<time>2026-05-01T13:20:54Z</time>
					</trkpt>
					<trkpt lat="49.391910" lon="1.383400">
						<ele>50</ele>
						<time>2026-05-01T13:20:56Z</time>
					</trkpt>
					<trkpt lat="49.391760" lon="1.383400">
						<ele>50</ele>
						<time>2026-05-01T13:20:59Z</time>
					</trkpt>
					<trkpt lat="49.391670" lon="1.383350">
						<ele>49</ele>
						<time>2026-05-01T13:21:01Z</time>
					</trkpt>
					<trkpt lat="49.391630" lon="1.383320">
						<ele>49</ele>
						<time>2026-05-01T13:21:02Z</time>
					</trkpt>
					<trkpt lat="49.391560" lon="1.383110">
						<ele>47</ele>
						<time>2026-05-01T13:21:04Z</time>
					</trkpt>
					<trkpt lat="49.391530" lon="1.382900">
						<ele>46</ele>
						<time>2026-05-01T13:21:07Z</time>
					</trkpt>
					<trkpt lat="49.391470" lon="1.382890">
						<ele>46</ele>
						<time>2026-05-01T13:21:08Z</time>
					</trkpt>
					<trkpt lat="49.391340" lon="1.382890">
						<ele>45</ele>
						<time>2026-05-01T13:21:10Z</time>
					</trkpt>
					<trkpt lat="49.390980" lon="1.382900">
						<ele>45</ele>
						<time>2026-05-01T13:21:17Z</time>
					</trkpt>
					<trkpt lat="49.390810" lon="1.382890">
						<ele>45</ele>
						<time>2026-05-01T13:21:20Z</time>
					</trkpt>
					<trkpt lat="49.390730" lon="1.382870">
						<ele>45</ele>
						<time>2026-05-01T13:21:21Z</time>
					</trkpt>
					<trkpt lat="49.390130" lon="1.382580">
						<ele>44</ele>
						<time>2026-05-01T13:21:32Z</time>
					</trkpt>
					<trkpt lat="49.389840" lon="1.382510">
						<ele>43</ele>
						<time>2026-05-01T13:21:37Z</time>
					</trkpt>
					<trkpt lat="49.389080" lon="1.382570">
						<ele>43</ele>
						<time>2026-05-01T13:21:51Z</time>
					</trkpt>
					<trkpt lat="49.388260" lon="1.382660">
						<ele>42</ele>
						<time>2026-05-01T13:22:06Z</time>
					</trkpt>
					<trkpt lat="49.387340" lon="1.382830">
						<ele>44</ele>
						<time>2026-05-01T13:22:22Z</time>
					</trkpt>
					<trkpt lat="49.387090" lon="1.382870">
						<ele>44</ele>
						<time>2026-05-01T13:22:27Z</time>
					</trkpt>
					<trkpt lat="49.386260" lon="1.382810">
						<ele>44</ele>
						<time>2026-05-01T13:22:41Z</time>
					</trkpt>
					<trkpt lat="49.385060" lon="1.382810">
						<ele>45</ele>
						<time>2026-05-01T13:23:03Z</time>
					</trkpt>
					<trkpt lat="49.384870" lon="1.382800">
						<ele>45</ele>
						<time>2026-05-01T13:23:06Z</time>
					</trkpt>
					<trkpt lat="49.383970" lon="1.382480">
						<ele>43</ele>
						<time>2026-05-01T13:23:23Z</time>
					</trkpt>
					<trkpt lat="49.383440" lon="1.382320">
						<ele>42</ele>
						<time>2026-05-01T13:23:32Z</time>
					</trkpt>
					<trkpt lat="49.382800" lon="1.382200">
						<ele>39</ele>
						<time>2026-05-01T13:23:44Z</time>
					</trkpt>
					<trkpt lat="49.381990" lon="1.382090">
						<ele>38</ele>
						<time>2026-05-01T13:23:58Z</time>
					</trkpt>
					<trkpt lat="49.381830" lon="1.382100">
						<ele>38</ele>
						<time>2026-05-01T13:24:01Z</time>
					</trkpt>
					<trkpt lat="49.381580" lon="1.382140">
						<ele>38</ele>
						<time>2026-05-01T13:24:05Z</time>
					</trkpt>
					<trkpt lat="49.381140" lon="1.382360">
						<ele>38</ele>
						<time>2026-05-01T13:24:14Z</time>
					</trkpt>
					<trkpt lat="49.380900" lon="1.382450">
						<ele>38</ele>
						<time>2026-05-01T13:24:18Z</time>
					</trkpt>
					<trkpt lat="49.380000" lon="1.382610">
						<ele>39</ele>
						<time>2026-05-01T13:24:34Z</time>
					</trkpt>
					<trkpt lat="49.379310" lon="1.382610">
						<ele>39</ele>
						<time>2026-05-01T13:24:46Z</time>
					</trkpt>
					<trkpt lat="49.378940" lon="1.382620">
						<ele>40</ele>
						<time>2026-05-01T13:24:53Z</time>
					</trkpt>
					<trkpt lat="49.378220" lon="1.382670">
						<ele>41</ele>
						<time>2026-05-01T13:25:06Z</time>
					</trkpt>
					<trkpt lat="49.377660" lon="1.382740">
						<ele>40</ele>
						<time>2026-05-01T13:25:16Z</time>
					</trkpt>
					<trkpt lat="49.377220" lon="1.382750">
						<ele>40</ele>
						<time>2026-05-01T13:25:24Z</time>
					</trkpt>
					<trkpt lat="49.376720" lon="1.382720">
						<ele>39</ele>
						<time>2026-05-01T13:25:33Z</time>
					</trkpt>
					<trkpt lat="49.375980" lon="1.382710">
						<ele>39</ele>
						<time>2026-05-01T13:25:46Z</time>
					</trkpt>
					<trkpt lat="49.375900" lon="1.382690">
						<ele>39</ele>
						<time>2026-05-01T13:25:47Z</time>
					</trkpt>
					<trkpt lat="49.375050" lon="1.382110">
						<ele>39</ele>
						<time>2026-05-01T13:26:04Z</time>
					</trkpt>
					<trkpt lat="49.375020" lon="1.382090">
						<ele>39</ele>
						<time>2026-05-01T13:26:04Z</time>
					</trkpt>
					<trkpt lat="49.374980" lon="1.382030">
						<ele>39</ele>
						<time>2026-05-01T13:26:05Z</time>
					</trkpt>
					<trkpt lat="49.375090" lon="1.381900">
						<ele>39</ele>
						<time>2026-05-01T13:26:08Z</time>
					</trkpt>
					<trkpt lat="49.375240" lon="1.381470">
						<ele>37</ele>
						<time>2026-05-01T13:26:13Z</time>
					</trkpt>
					<trkpt lat="49.375160" lon="1.381430">
						<ele>37</ele>
						<time>2026-05-01T13:26:15Z</time>
					</trkpt>
					<trkpt lat="49.375080" lon="1.381400">
						<ele>38</ele>
						<time>2026-05-01T13:26:16Z</time>
					</trkpt>
					<trkpt lat="49.374910" lon="1.381320">
						<ele>38</ele>
						<time>2026-05-01T13:26:20Z</time>
					</trkpt>
					<trkpt lat="49.373850" lon="1.381020">
						<ele>39</ele>
						<time>2026-05-01T13:26:39Z</time>
					</trkpt>
					<trkpt lat="49.373560" lon="1.380970">
						<ele>39</ele>
						<time>2026-05-01T13:26:44Z</time>
					</trkpt>
					<trkpt lat="49.372560" lon="1.381500">
						<ele>39</ele>
						<time>2026-05-01T13:27:03Z</time>
					</trkpt>
					<trkpt lat="49.371530" lon="1.381990">
						<ele>37</ele>
						<time>2026-05-01T13:27:22Z</time>
					</trkpt>
					<trkpt lat="49.371010" lon="1.382260">
						<ele>39</ele>
						<time>2026-05-01T13:27:32Z</time>
					</trkpt>
					<trkpt lat="49.370890" lon="1.382340">
						<ele>39</ele>
						<time>2026-05-01T13:27:34Z</time>
					</trkpt>
					<trkpt lat="49.370850" lon="1.382360">
						<ele>39</ele>
						<time>2026-05-01T13:27:35Z</time>
					</trkpt>
					<trkpt lat="49.370690" lon="1.382490">
						<ele>40</ele>
						<time>2026-05-01T13:27:38Z</time>
					</trkpt>
					<trkpt lat="49.370560" lon="1.382600">
						<ele>41</ele>
						<time>2026-05-01T13:27:41Z</time>
					</trkpt>
					<trkpt lat="49.370360" lon="1.381750">
						<ele>39</ele>
						<time>2026-05-01T13:27:51Z</time>
					</trkpt>
					<trkpt lat="49.370310" lon="1.381530">
						<ele>39</ele>
						<time>2026-05-01T13:27:54Z</time>
					</trkpt>
					<trkpt lat="49.370290" lon="1.381450">
						<ele>39</ele>
						<time>2026-05-01T13:27:55Z</time>
					</trkpt>
					<trkpt lat="49.370310" lon="1.381530">
						<ele>39</ele>
						<time>2026-05-01T13:27:56Z</time>
					</trkpt>
					<trkpt lat="49.370360" lon="1.381750">
						<ele>39</ele>
						<time>2026-05-01T13:27:59Z</time>
					</trkpt>
					<trkpt lat="49.370560" lon="1.382600">
						<ele>41</ele>
						<time>2026-05-01T13:28:09Z</time>
					</trkpt>
					<trkpt lat="49.370610" lon="1.382830">
						<ele>41</ele>
						<time>2026-05-01T13:28:12Z</time>
					</trkpt>
					<trkpt lat="49.370660" lon="1.383060">
						<ele>42</ele>
						<time>2026-05-01T13:28:15Z</time>
					</trkpt>
					<trkpt lat="49.370720" lon="1.383560">
						<ele>42</ele>
						<time>2026-05-01T13:28:21Z</time>
					</trkpt>
					<trkpt lat="49.370710" lon="1.383970">
						<ele>42</ele>
						<time>2026-05-01T13:28:25Z</time>
					</trkpt>
					<trkpt lat="49.370700" lon="1.384130">
						<ele>43</ele>
						<time>2026-05-01T13:28:27Z</time>
					</trkpt>
					<trkpt lat="49.370690" lon="1.384360">
						<ele>43</ele>
						<time>2026-05-01T13:28:30Z</time>
					</trkpt>
					<trkpt lat="49.370640" lon="1.384720">
						<ele>44</ele>
						<time>2026-05-01T13:28:34Z</time>
					</trkpt>
					<trkpt lat="49.370810" lon="1.384740">
						<ele>41</ele>
						<time>2026-05-01T13:28:37Z</time>
					</trkpt>
					<trkpt lat="49.370880" lon="1.384740">
						<ele>41</ele>
						<time>2026-05-01T13:28:38Z</time>
					</trkpt>
					<trkpt lat="49.370960" lon="1.384720">
						<ele>41</ele>
						<time>2026-05-01T13:28:40Z</time>
					</trkpt>
					<trkpt lat="49.371110" lon="1.384690">
						<ele>40</ele>
						<time>2026-05-01T13:28:42Z</time>
					</trkpt>
					<trkpt lat="49.371620" lon="1.384550">
						<ele>39</ele>
						<time>2026-05-01T13:28:52Z</time>
					</trkpt>
					<trkpt lat="49.372250" lon="1.384310">
						<ele>38</ele>
						<time>2026-05-01T13:29:03Z</time>
					</trkpt>
					<trkpt lat="49.372320" lon="1.384280">
						<ele>38</ele>
						<time>2026-05-01T13:29:05Z</time>
					</trkpt>
					<trkpt lat="49.372410" lon="1.384240">
						<ele>38</ele>
						<time>2026-05-01T13:29:06Z</time>
					</trkpt>
					<trkpt lat="49.372450" lon="1.384210">
						<ele>38</ele>
						<time>2026-05-01T13:29:07Z</time>
					</trkpt>
					<trkpt lat="49.372500" lon="1.384140">
						<ele>38</ele>
						<time>2026-05-01T13:29:08Z</time>
					</trkpt>
					<trkpt lat="49.372630" lon="1.383920">
						<ele>38</ele>
						<time>2026-05-01T13:29:12Z</time>
					</trkpt>
					<trkpt lat="49.372840" lon="1.383610">
						<ele>37</ele>
						<time>2026-05-01T13:29:17Z</time>
					</trkpt>
					<trkpt lat="49.373330" lon="1.383230">
						<ele>37</ele>
						<time>2026-05-01T13:29:27Z</time>
					</trkpt>
					<trkpt lat="49.374270" lon="1.382560">
						<ele>40</ele>
						<time>2026-05-01T13:29:45Z</time>
					</trkpt>
					<trkpt lat="49.374740" lon="1.382180">
						<ele>40</ele>
						<time>2026-05-01T13:29:54Z</time>
					</trkpt>
					<trkpt lat="49.374980" lon="1.382030">
						<ele>39</ele>
						<time>2026-05-01T13:29:59Z</time>
					</trkpt>
					<trkpt lat="49.375090" lon="1.381900">
						<ele>39</ele>
						<time>2026-05-01T13:30:02Z</time>
					</trkpt>
					<trkpt lat="49.375240" lon="1.381470">
						<ele>37</ele>
						<time>2026-05-01T13:30:07Z</time>
					</trkpt>
					<trkpt lat="49.375310" lon="1.381350">
						<ele>37</ele>
						<time>2026-05-01T13:30:09Z</time>
					</trkpt>
					<trkpt lat="49.375440" lon="1.381220">
						<ele>36</ele>
						<time>2026-05-01T13:30:12Z</time>
					</trkpt>
					<trkpt lat="49.375860" lon="1.380780">
						<ele>33</ele>
						<time>2026-05-01T13:30:21Z</time>
					</trkpt>
					<trkpt lat="49.375910" lon="1.380740">
						<ele>33</ele>
						<time>2026-05-01T13:30:22Z</time>
					</trkpt>
					<trkpt lat="49.376090" lon="1.380640">
						<ele>33</ele>
						<time>2026-05-01T13:30:25Z</time>
					</trkpt>
					<trkpt lat="49.376400" lon="1.380500">
						<ele>33</ele>
						<time>2026-05-01T13:30:31Z</time>
					</trkpt>
					<trkpt lat="49.376570" lon="1.380380">
						<ele>33</ele>
						<time>2026-05-01T13:30:34Z</time>
					</trkpt>
					<trkpt lat="49.376750" lon="1.380170">
						<ele>33</ele>
						<time>2026-05-01T13:30:38Z</time>
					</trkpt>
					<trkpt lat="49.376860" lon="1.379980">
						<ele>33</ele>
						<time>2026-05-01T13:30:41Z</time>
					</trkpt>
					<trkpt lat="49.377360" lon="1.378680">
						<ele>34</ele>
						<time>2026-05-01T13:30:59Z</time>
					</trkpt>
					<trkpt lat="49.377500" lon="1.378310">
						<ele>34</ele>
						<time>2026-05-01T13:31:04Z</time>
					</trkpt>
					<trkpt lat="49.377880" lon="1.377070">
						<ele>34</ele>
						<time>2026-05-01T13:31:20Z</time>
					</trkpt>
					<trkpt lat="49.378000" lon="1.376690">
						<ele>34</ele>
						<time>2026-05-01T13:31:25Z</time>
					</trkpt>
					<trkpt lat="49.378110" lon="1.376430">
						<ele>35</ele>
						<time>2026-05-01T13:31:28Z</time>
					</trkpt>
					<trkpt lat="49.378210" lon="1.376220">
						<ele>35</ele>
						<time>2026-05-01T13:31:31Z</time>
					</trkpt>
					<trkpt lat="49.378410" lon="1.375970">
						<ele>35</ele>
						<time>2026-05-01T13:31:36Z</time>
					</trkpt>
					<trkpt lat="49.378500" lon="1.375870">
						<ele>35</ele>
						<time>2026-05-01T13:31:38Z</time>
					</trkpt>
					<trkpt lat="49.378560" lon="1.375830">
						<ele>35</ele>
						<time>2026-05-01T13:31:39Z</time>
					</trkpt>
					<trkpt lat="49.378630" lon="1.375850">
						<ele>35</ele>
						<time>2026-05-01T13:31:40Z</time>
					</trkpt>
					<trkpt lat="49.378710" lon="1.375820">
						<ele>35</ele>
						<time>2026-05-01T13:31:42Z</time>
					</trkpt>
					<trkpt lat="49.378780" lon="1.375750">
						<ele>35</ele>
						<time>2026-05-01T13:31:43Z</time>
					</trkpt>
					<trkpt lat="49.378820" lon="1.375650">
						<ele>36</ele>
						<time>2026-05-01T13:31:44Z</time>
					</trkpt>
					<trkpt lat="49.378840" lon="1.375500">
						<ele>36</ele>
						<time>2026-05-01T13:31:46Z</time>
					</trkpt>
					<trkpt lat="49.378830" lon="1.375440">
						<ele>36</ele>
						<time>2026-05-01T13:31:47Z</time>
					</trkpt>
					<trkpt lat="49.378820" lon="1.375390">
						<ele>37</ele>
						<time>2026-05-01T13:31:48Z</time>
					</trkpt>
					<trkpt lat="49.378790" lon="1.375310">
						<ele>37</ele>
						<time>2026-05-01T13:31:49Z</time>
					</trkpt>
					<trkpt lat="49.378750" lon="1.375240">
						<ele>37</ele>
						<time>2026-05-01T13:31:50Z</time>
					</trkpt>
					<trkpt lat="49.378660" lon="1.375180">
						<ele>38</ele>
						<time>2026-05-01T13:31:51Z</time>
					</trkpt>
					<trkpt lat="49.378560" lon="1.375190">
						<ele>38</ele>
						<time>2026-05-01T13:31:53Z</time>
					</trkpt>
					<trkpt lat="49.378490" lon="1.375240">
						<ele>38</ele>
						<time>2026-05-01T13:31:55Z</time>
					</trkpt>
					<trkpt lat="49.378460" lon="1.375290">
						<ele>37</ele>
						<time>2026-05-01T13:31:55Z</time>
					</trkpt>
					<trkpt lat="49.378350" lon="1.375310">
						<ele>37</ele>
						<time>2026-05-01T13:31:57Z</time>
					</trkpt>
					<trkpt lat="49.378050" lon="1.375230">
						<ele>38</ele>
						<time>2026-05-01T13:32:03Z</time>
					</trkpt>
					<trkpt lat="49.377340" lon="1.375040">
						<ele>38</ele>
						<time>2026-05-01T13:32:16Z</time>
					</trkpt>
					<trkpt lat="49.377040" lon="1.374940">
						<ele>39</ele>
						<time>2026-05-01T13:32:21Z</time>
					</trkpt>
					<trkpt lat="49.376640" lon="1.374750">
						<ele>40</ele>
						<time>2026-05-01T13:32:29Z</time>
					</trkpt>
					<trkpt lat="49.375430" lon="1.373800">
						<ele>41</ele>
						<time>2026-05-01T13:32:53Z</time>
					</trkpt>
					<trkpt lat="49.375020" lon="1.373430">
						<ele>41</ele>
						<time>2026-05-01T13:33:01Z</time>
					</trkpt>
					<trkpt lat="49.374520" lon="1.373000">
						<ele>41</ele>
						<time>2026-05-01T13:33:11Z</time>
					</trkpt>
					<trkpt lat="49.374290" lon="1.372820">
						<ele>41</ele>
						<time>2026-05-01T13:33:16Z</time>
					</trkpt>
					<trkpt lat="49.373390" lon="1.372250">
						<ele>42</ele>
						<time>2026-05-01T13:33:33Z</time>
					</trkpt>
					<trkpt lat="49.373090" lon="1.372040">
						<ele>42</ele>
						<time>2026-05-01T13:33:39Z</time>
					</trkpt>
					<trkpt lat="49.372750" lon="1.371750">
						<ele>41</ele>
						<time>2026-05-01T13:33:46Z</time>
					</trkpt>
					<trkpt lat="49.372150" lon="1.371200">
						<ele>40</ele>
						<time>2026-05-01T13:33:58Z</time>
					</trkpt>
					<trkpt lat="49.372050" lon="1.371120">
						<ele>39</ele>
						<time>2026-05-01T13:34:00Z</time>
					</trkpt>
					<trkpt lat="49.371790" lon="1.370940">
						<ele>38</ele>
						<time>2026-05-01T13:34:06Z</time>
					</trkpt>
					<trkpt lat="49.371550" lon="1.370850">
						<ele>37</ele>
						<time>2026-05-01T13:34:10Z</time>
					</trkpt>
					<trkpt lat="49.371310" lon="1.370770">
						<ele>36</ele>
						<time>2026-05-01T13:34:14Z</time>
					</trkpt>
					<trkpt lat="49.370930" lon="1.370710">
						<ele>33</ele>
						<time>2026-05-01T13:34:21Z</time>
					</trkpt>
					<trkpt lat="49.370940" lon="1.370570">
						<ele>33</ele>
						<time>2026-05-01T13:34:23Z</time>
					</trkpt>
					<trkpt lat="49.370930" lon="1.370480">
						<ele>33</ele>
						<time>2026-05-01T13:34:24Z</time>
					</trkpt>
					<trkpt lat="49.370890" lon="1.370410">
						<ele>33</ele>
						<time>2026-05-01T13:34:25Z</time>
					</trkpt>
					<trkpt lat="49.370850" lon="1.370360">
						<ele>33</ele>
						<time>2026-05-01T13:34:26Z</time>
					</trkpt>
					<trkpt lat="49.370880" lon="1.370140">
						<ele>33</ele>
						<time>2026-05-01T13:34:28Z</time>
					</trkpt>
					<trkpt lat="49.370940" lon="1.369910">
						<ele>35</ele>
						<time>2026-05-01T13:34:31Z</time>
					</trkpt>
					<trkpt lat="49.370930" lon="1.369640">
						<ele>36</ele>
						<time>2026-05-01T13:34:34Z</time>
					</trkpt>
					<trkpt lat="49.370880" lon="1.369430">
						<ele>37</ele>
						<time>2026-05-01T13:34:37Z</time>
					</trkpt>
					<trkpt lat="49.370750" lon="1.369130">
						<ele>38</ele>
						<time>2026-05-01T13:34:41Z</time>
					</trkpt>
					<trkpt lat="49.370330" lon="1.368430">
						<ele>39</ele>
						<time>2026-05-01T13:34:52Z</time>
					</trkpt>
					<trkpt lat="49.370190" lon="1.368230">
						<ele>39</ele>
						<time>2026-05-01T13:34:56Z</time>
					</trkpt>
					<trkpt lat="49.369870" lon="1.367850">
						<ele>39</ele>
						<time>2026-05-01T13:35:03Z</time>
					</trkpt>
					<trkpt lat="49.368620" lon="1.366240">
						<ele>42</ele>
						<time>2026-05-01T13:35:32Z</time>
					</trkpt>
					<trkpt lat="49.367790" lon="1.364980">
						<ele>42</ele>
						<time>2026-05-01T13:35:53Z</time>
					</trkpt>
					<trkpt lat="49.367410" lon="1.364450">
						<ele>41</ele>
						<time>2026-05-01T13:36:02Z</time>
					</trkpt>
					<trkpt lat="49.367240" lon="1.364200">
						<ele>41</ele>
						<time>2026-05-01T13:36:06Z</time>
					</trkpt>
					<trkpt lat="49.366980" lon="1.363800">
						<ele>40</ele>
						<time>2026-05-01T13:36:12Z</time>
					</trkpt>
					<trkpt lat="49.366900" lon="1.363700">
						<ele>40</ele>
						<time>2026-05-01T13:36:14Z</time>
					</trkpt>
					<trkpt lat="49.366930" lon="1.363640">
						<ele>40</ele>
						<time>2026-05-01T13:36:15Z</time>
					</trkpt>
					<trkpt lat="49.366940" lon="1.363580">
						<ele>40</ele>
						<time>2026-05-01T13:36:16Z</time>
					</trkpt>
					<trkpt lat="49.366940" lon="1.363510">
						<ele>40</ele>
						<time>2026-05-01T13:36:17Z</time>
					</trkpt>
					<trkpt lat="49.366920" lon="1.363450">
						<ele>40</ele>
						<time>2026-05-01T13:36:18Z</time>
					</trkpt>
					<trkpt lat="49.366900" lon="1.363390">
						<ele>40</ele>
						<time>2026-05-01T13:36:18Z</time>
					</trkpt>
					<trkpt lat="49.366860" lon="1.363350">
						<ele>40</ele>
						<time>2026-05-01T13:36:19Z</time>
					</trkpt>
					<trkpt lat="49.366820" lon="1.363320">
						<ele>40</ele>
						<time>2026-05-01T13:36:20Z</time>
					</trkpt>
					<trkpt lat="49.366770" lon="1.363320">
						<ele>39</ele>
						<time>2026-05-01T13:36:21Z</time>
					</trkpt>
					<trkpt lat="49.366720" lon="1.363350">
						<ele>39</ele>
						<time>2026-05-01T13:36:22Z</time>
					</trkpt>
					<trkpt lat="49.366680" lon="1.363400">
						<ele>39</ele>
						<time>2026-05-01T13:36:23Z</time>
					</trkpt>
					<trkpt lat="49.366600" lon="1.363250">
						<ele>39</ele>
						<time>2026-05-01T13:36:25Z</time>
					</trkpt>
					<trkpt lat="49.366460" lon="1.363120">
						<ele>38</ele>
						<time>2026-05-01T13:36:28Z</time>
					</trkpt>
					<trkpt lat="49.366230" lon="1.362820">
						<ele>37</ele>
						<time>2026-05-01T13:36:33Z</time>
					</trkpt>
					<trkpt lat="49.366010" lon="1.362530">
						<ele>37</ele>
						<time>2026-05-01T13:36:38Z</time>
					</trkpt>
					<trkpt lat="49.365900" lon="1.362390">
						<ele>36</ele>
						<time>2026-05-01T13:36:41Z</time>
					</trkpt>
					<trkpt lat="49.365510" lon="1.361880">
						<ele>37</ele>
						<time>2026-05-01T13:36:50Z</time>
					</trkpt>
					<trkpt lat="49.365420" lon="1.361770">
						<ele>38</ele>
						<time>2026-05-01T13:36:52Z</time>
					</trkpt>
					<trkpt lat="49.364870" lon="1.361050">
						<ele>38</ele>
						<time>2026-05-01T13:37:05Z</time>
					</trkpt>
					<trkpt lat="49.364720" lon="1.360840">
						<ele>37</ele>
						<time>2026-05-01T13:37:09Z</time>
					</trkpt>
					<trkpt lat="49.364480" lon="1.360490">
						<ele>37</ele>
						<time>2026-05-01T13:37:14Z</time>
					</trkpt>
					<trkpt lat="49.364380" lon="1.360280">
						<ele>37</ele>
						<time>2026-05-01T13:37:17Z</time>
					</trkpt>
					<trkpt lat="49.364090" lon="1.359680">
						<ele>36</ele>
						<time>2026-05-01T13:37:26Z</time>
					</trkpt>
					<trkpt lat="49.363910" lon="1.359280">
						<ele>36</ele>
						<time>2026-05-01T13:37:32Z</time>
					</trkpt>
					<trkpt lat="49.363760" lon="1.358880">
						<ele>35</ele>
						<time>2026-05-01T13:37:37Z</time>
					</trkpt>
					<trkpt lat="49.363450" lon="1.357840">
						<ele>34</ele>
						<time>2026-05-01T13:37:50Z</time>
					</trkpt>
					<trkpt lat="49.363210" lon="1.357200">
						<ele>34</ele>
						<time>2026-05-01T13:37:59Z</time>
					</trkpt>
					<trkpt lat="49.362500" lon="1.355300">
						<ele>37</ele>
						<time>2026-05-01T13:38:24Z</time>
					</trkpt>
					<trkpt lat="49.362550" lon="1.355180">
						<ele>38</ele>
						<time>2026-05-01T13:38:26Z</time>
					</trkpt>
					<trkpt lat="49.362520" lon="1.354570">
						<ele>39</ele>
						<time>2026-05-01T13:38:33Z</time>
					</trkpt>
					<trkpt lat="49.362250" lon="1.353400">
						<ele>38</ele>
						<time>2026-05-01T13:38:47Z</time>
					</trkpt>
					<trkpt lat="49.362210" lon="1.353220">
						<ele>37</ele>
						<time>2026-05-01T13:38:50Z</time>
					</trkpt>
					<trkpt lat="49.361800" lon="1.351390">
						<ele>36</ele>
						<time>2026-05-01T13:39:12Z</time>
					</trkpt>
					<trkpt lat="49.361650" lon="1.350690">
						<ele>35</ele>
						<time>2026-05-01T13:39:21Z</time>
					</trkpt>
					<trkpt lat="49.361450" lon="1.349820">
						<ele>37</ele>
						<time>2026-05-01T13:39:31Z</time>
					</trkpt>
					<trkpt lat="49.361370" lon="1.349310">
						<ele>38</ele>
						<time>2026-05-01T13:39:37Z</time>
					</trkpt>
					<trkpt lat="49.361270" lon="1.348720">
						<ele>38</ele>
						<time>2026-05-01T13:39:44Z</time>
					</trkpt>
					<trkpt lat="49.361010" lon="1.346600">
						<ele>38</ele>
						<time>2026-05-01T13:40:09Z</time>
					</trkpt>
					<trkpt lat="49.360860" lon="1.345190">
						<ele>39</ele>
						<time>2026-05-01T13:40:26Z</time>
					</trkpt>
					<trkpt lat="49.360830" lon="1.344410">
						<ele>40</ele>
						<time>2026-05-01T13:40:35Z</time>
					</trkpt>
					<trkpt lat="49.360820" lon="1.344190">
						<ele>41</ele>
						<time>2026-05-01T13:40:38Z</time>
					</trkpt>
					<trkpt lat="49.360850" lon="1.343890">
						<ele>41</ele>
						<time>2026-05-01T13:40:41Z</time>
					</trkpt>
					<trkpt lat="49.361040" lon="1.341780">
						<ele>44</ele>
						<time>2026-05-01T13:41:06Z</time>
					</trkpt>
					<trkpt lat="49.361040" lon="1.340870">
						<ele>46</ele>
						<time>2026-05-01T13:41:16Z</time>
					</trkpt>
					<trkpt lat="49.361050" lon="1.340400">
						<ele>46</ele>
						<time>2026-05-01T13:41:22Z</time>
					</trkpt>
					<trkpt lat="49.361180" lon="1.339500">
						<ele>46</ele>
						<time>2026-05-01T13:41:32Z</time>
					</trkpt>
					<trkpt lat="49.361190" lon="1.339350">
						<ele>46</ele>
						<time>2026-05-01T13:41:34Z</time>
					</trkpt>
					<trkpt lat="49.361200" lon="1.339160">
						<ele>46</ele>
						<time>2026-05-01T13:41:36Z</time>
					</trkpt>
					<trkpt lat="49.361190" lon="1.338380">
						<ele>45</ele>
						<time>2026-05-01T13:41:45Z</time>
					</trkpt>
					<trkpt lat="49.361210" lon="1.336790">
						<ele>44</ele>
						<time>2026-05-01T13:42:04Z</time>
					</trkpt>
					<trkpt lat="49.361220" lon="1.335100">
						<ele>46</ele>
						<time>2026-05-01T13:42:23Z</time>
					</trkpt>
					<trkpt lat="49.361190" lon="1.334810">
						<ele>46</ele>
						<time>2026-05-01T13:42:27Z</time>
					</trkpt>
					<trkpt lat="49.361000" lon="1.334110">
						<ele>45</ele>
						<time>2026-05-01T13:42:36Z</time>
					</trkpt>
					<trkpt lat="49.360760" lon="1.333340">
						<ele>44</ele>
						<time>2026-05-01T13:42:46Z</time>
					</trkpt>
					<trkpt lat="49.360700" lon="1.333210">
						<ele>43</ele>
						<time>2026-05-01T13:42:47Z</time>
					</trkpt>
					<trkpt lat="49.360460" lon="1.332740">
						<ele>43</ele>
						<time>2026-05-01T13:42:54Z</time>
					</trkpt>
					<trkpt lat="49.360300" lon="1.332390">
						<ele>43</ele>
						<time>2026-05-01T13:42:59Z</time>
					</trkpt>
					<trkpt lat="49.359620" lon="1.331060">
						<ele>42</ele>
						<time>2026-05-01T13:43:19Z</time>
					</trkpt>
					<trkpt lat="49.358680" lon="1.329550">
						<ele>44</ele>
						<time>2026-05-01T13:43:43Z</time>
					</trkpt>
					<trkpt lat="49.357860" lon="1.328120">
						<ele>43</ele>
						<time>2026-05-01T13:44:05Z</time>
					</trkpt>
					<trkpt lat="49.357610" lon="1.327670">
						<ele>44</ele>
						<time>2026-05-01T13:44:12Z</time>
					</trkpt>
					<trkpt lat="49.357520" lon="1.327530">
						<ele>44</ele>
						<time>2026-05-01T13:44:14Z</time>
					</trkpt>
					<trkpt lat="49.357400" lon="1.327430">
						<ele>43</ele>
						<time>2026-05-01T13:44:17Z</time>
					</trkpt>
					<trkpt lat="49.356630" lon="1.326980">
						<ele>36</ele>
						<time>2026-05-01T13:44:31Z</time>
					</trkpt>
					<trkpt lat="49.356440" lon="1.326770">
						<ele>35</ele>
						<time>2026-05-01T13:44:36Z</time>
					</trkpt>
					<trkpt lat="49.356220" lon="1.326410">
						<ele>33</ele>
						<time>2026-05-01T13:44:41Z</time>
					</trkpt>
					<trkpt lat="49.355780" lon="1.325710">
						<ele>31</ele>
						<time>2026-05-01T13:44:53Z</time>
					</trkpt>
					<trkpt lat="49.355770" lon="1.325680">
						<ele>32</ele>
						<time>2026-05-01T13:44:53Z</time>
					</trkpt>
					<trkpt lat="49.355390" lon="1.325120">
						<ele>32</ele>
						<time>2026-05-01T13:45:02Z</time>
					</trkpt>
					<trkpt lat="49.355300" lon="1.325030">
						<ele>32</ele>
						<time>2026-05-01T13:45:04Z</time>
					</trkpt>
					<trkpt lat="49.355210" lon="1.324970">
						<ele>32</ele>
						<time>2026-05-01T13:45:06Z</time>
					</trkpt>
					<trkpt lat="49.355130" lon="1.324950">
						<ele>31</ele>
						<time>2026-05-01T13:45:07Z</time>
					</trkpt>
					<trkpt lat="49.355040" lon="1.324950">
						<ele>30</ele>
						<time>2026-05-01T13:45:09Z</time>
					</trkpt>
					<trkpt lat="49.354920" lon="1.325010">
						<ele>30</ele>
						<time>2026-05-01T13:45:11Z</time>
					</trkpt>
					<trkpt lat="49.354100" lon="1.325790">
						<ele>25</ele>
						<time>2026-05-01T13:45:28Z</time>
					</trkpt>
					<trkpt lat="49.353890" lon="1.325990">
						<ele>25</ele>
						<time>2026-05-01T13:45:33Z</time>
					</trkpt>
					<trkpt lat="49.353720" lon="1.326120">
						<ele>24</ele>
						<time>2026-05-01T13:45:36Z</time>
					</trkpt>
					<trkpt lat="49.353690" lon="1.326150">
						<ele>24</ele>
						<time>2026-05-01T13:45:37Z</time>
					</trkpt>
					<trkpt lat="49.353360" lon="1.326410">
						<ele>24</ele>
						<time>2026-05-01T13:45:43Z</time>
					</trkpt>
					<trkpt lat="49.353220" lon="1.326500">
						<ele>23</ele>
						<time>2026-05-01T13:45:46Z</time>
					</trkpt>
					<trkpt lat="49.352640" lon="1.326880">
						<ele>24</ele>
						<time>2026-05-01T13:45:57Z</time>
					</trkpt>
					<trkpt lat="49.352060" lon="1.327260">
						<ele>24</ele>
						<time>2026-05-01T13:46:09Z</time>
					</trkpt>
					<trkpt lat="49.350790" lon="1.328190">
						<ele>28</ele>
						<time>2026-05-01T13:46:34Z</time>
					</trkpt>
					<trkpt lat="49.350610" lon="1.328360">
						<ele>30</ele>
						<time>2026-05-01T13:46:37Z</time>
					</trkpt>
					<trkpt lat="49.350410" lon="1.327830">
						<ele>31</ele>
						<time>2026-05-01T13:46:44Z</time>
					</trkpt>
					<trkpt lat="49.350060" lon="1.326600">
						<ele>29</ele>
						<time>2026-05-01T13:47:00Z</time>
					</trkpt>
					<trkpt lat="49.349850" lon="1.325870">
						<ele>29</ele>
						<time>2026-05-01T13:47:09Z</time>
					</trkpt>
					<trkpt lat="49.349700" lon="1.325480">
						<ele>29</ele>
						<time>2026-05-01T13:47:15Z</time>
					</trkpt>
					<trkpt lat="49.349220" lon="1.324480">
						<ele>27</ele>
						<time>2026-05-01T13:47:29Z</time>
					</trkpt>
					<trkpt lat="49.349020" lon="1.324110">
						<ele>28</ele>
						<time>2026-05-01T13:47:34Z</time>
					</trkpt>
					<trkpt lat="49.348820" lon="1.323690">
						<ele>28</ele>
						<time>2026-05-01T13:47:41Z</time>
					</trkpt>
					<trkpt lat="49.348510" lon="1.323070">
						<ele>28</ele>
						<time>2026-05-01T13:47:50Z</time>
					</trkpt>
					<trkpt lat="49.348160" lon="1.322320">
						<ele>28</ele>
						<time>2026-05-01T13:48:00Z</time>
					</trkpt>
					<trkpt lat="49.347870" lon="1.321780">
						<ele>28</ele>
						<time>2026-05-01T13:48:08Z</time>
					</trkpt>
					<trkpt lat="49.347730" lon="1.321470">
						<ele>29</ele>
						<time>2026-05-01T13:48:13Z</time>
					</trkpt>
					<trkpt lat="49.347100" lon="1.320200">
						<ele>30</ele>
						<time>2026-05-01T13:48:31Z</time>
					</trkpt>
					<trkpt lat="49.347020" lon="1.320020">
						<ele>31</ele>
						<time>2026-05-01T13:48:34Z</time>
					</trkpt>
					<trkpt lat="49.346390" lon="1.318620">
						<ele>36</ele>
						<time>2026-05-01T13:48:54Z</time>
					</trkpt>
					<trkpt lat="49.345820" lon="1.317180">
						<ele>34</ele>
						<time>2026-05-01T13:49:13Z</time>
					</trkpt>
					<trkpt lat="49.345290" lon="1.315730">
						<ele>35</ele>
						<time>2026-05-01T13:49:32Z</time>
					</trkpt>
					<trkpt lat="49.344890" lon="1.314630">
						<ele>32</ele>
						<time>2026-05-01T13:49:47Z</time>
					</trkpt>
					<trkpt lat="49.344570" lon="1.313110">
						<ele>27</ele>
						<time>2026-05-01T13:50:05Z</time>
					</trkpt>
					<trkpt lat="49.344460" lon="1.312650">
						<ele>26</ele>
						<time>2026-05-01T13:50:11Z</time>
					</trkpt>
					<trkpt lat="49.344330" lon="1.312220">
						<ele>25</ele>
						<time>2026-05-01T13:50:17Z</time>
					</trkpt>
					<trkpt lat="49.343860" lon="1.311010">
						<ele>24</ele>
						<time>2026-05-01T13:50:33Z</time>
					</trkpt>
					<trkpt lat="49.343620" lon="1.310430">
						<ele>23</ele>
						<time>2026-05-01T13:50:41Z</time>
					</trkpt>
					<trkpt lat="49.343790" lon="1.310380">
						<ele>22</ele>
						<time>2026-05-01T13:50:44Z</time>
					</trkpt>
					<trkpt lat="49.344260" lon="1.310340">
						<ele>20</ele>
						<time>2026-05-01T13:50:52Z</time>
					</trkpt>
					<trkpt lat="49.344360" lon="1.310320">
						<ele>19</ele>
						<time>2026-05-01T13:50:54Z</time>
					</trkpt>
					<trkpt lat="49.344620" lon="1.310230">
						<ele>18</ele>
						<time>2026-05-01T13:50:59Z</time>
					</trkpt>
					<trkpt lat="49.344870" lon="1.310040">
						<ele>17</ele>
						<time>2026-05-01T13:51:04Z</time>
					</trkpt>
					<trkpt lat="49.345420" lon="1.309700">
						<ele>17</ele>
						<time>2026-05-01T13:51:14Z</time>
					</trkpt>
					<trkpt lat="49.345820" lon="1.309500">
						<ele>17</ele>
						<time>2026-05-01T13:51:22Z</time>
					</trkpt>
					<trkpt lat="49.346450" lon="1.309220">
						<ele>17</ele>
						<time>2026-05-01T13:51:34Z</time>
					</trkpt>
					<trkpt lat="49.346990" lon="1.309020">
						<ele>17</ele>
						<time>2026-05-01T13:51:43Z</time>
					</trkpt>
					<trkpt lat="49.348050" lon="1.308230">
						<ele>19</ele>
						<time>2026-05-01T13:52:04Z</time>
					</trkpt>
					<trkpt lat="49.348490" lon="1.307950">
						<ele>21</ele>
						<time>2026-05-01T13:52:13Z</time>
					</trkpt>
					<trkpt lat="49.348690" lon="1.307780">
						<ele>22</ele>
						<time>2026-05-01T13:52:17Z</time>
					</trkpt>
					<trkpt lat="49.348810" lon="1.307690">
						<ele>23</ele>
						<time>2026-05-01T13:52:19Z</time>
					</trkpt>
					<trkpt lat="49.348850" lon="1.307650">
						<ele>23</ele>
						<time>2026-05-01T13:52:20Z</time>
					</trkpt>
					<trkpt lat="49.348970" lon="1.307560">
						<ele>24</ele>
						<time>2026-05-01T13:52:23Z</time>
					</trkpt>
					<trkpt lat="49.349250" lon="1.307370">
						<ele>27</ele>
						<time>2026-05-01T13:52:28Z</time>
					</trkpt>
					<trkpt lat="49.349560" lon="1.307180">
						<ele>34</ele>
						<time>2026-05-01T13:52:34Z</time>
					</trkpt>
					<trkpt lat="49.349680" lon="1.307120">
						<ele>37</ele>
						<time>2026-05-01T13:52:36Z</time>
					</trkpt>
					<trkpt lat="49.349800" lon="1.307060">
						<ele>40</ele>
						<time>2026-05-01T13:52:38Z</time>
					</trkpt>
					<trkpt lat="49.349620" lon="1.306580">
						<ele>40</ele>
						<time>2026-05-01T13:52:45Z</time>
					</trkpt>
					<trkpt lat="49.349290" lon="1.305610">
						<ele>37</ele>
						<time>2026-05-01T13:52:58Z</time>
					</trkpt>
					<trkpt lat="49.348790" lon="1.304220">
						<ele>38</ele>
						<time>2026-05-01T13:53:16Z</time>
					</trkpt>
					<trkpt lat="49.348600" lon="1.303660">
						<ele>38</ele>
						<time>2026-05-01T13:53:23Z</time>
					</trkpt>
					<trkpt lat="49.348420" lon="1.303110">
						<ele>37</ele>
						<time>2026-05-01T13:53:30Z</time>
					</trkpt>
					<trkpt lat="49.348050" lon="1.302240">
						<ele>37</ele>
						<time>2026-05-01T13:53:42Z</time>
					</trkpt>
					<trkpt lat="49.347770" lon="1.301510">
						<ele>36</ele>
						<time>2026-05-01T13:53:52Z</time>
					</trkpt>
					<trkpt lat="49.347530" lon="1.300950">
						<ele>32</ele>
						<time>2026-05-01T13:54:00Z</time>
					</trkpt>
					<trkpt lat="49.346830" lon="1.299670">
						<ele>34</ele>
						<time>2026-05-01T13:54:19Z</time>
					</trkpt>
					<trkpt lat="49.346590" lon="1.299310">
						<ele>33</ele>
						<time>2026-05-01T13:54:25Z</time>
					</trkpt>
					<trkpt lat="49.346460" lon="1.299130">
						<ele>34</ele>
						<time>2026-05-01T13:54:28Z</time>
					</trkpt>
					<trkpt lat="49.346170" lon="1.298800">
						<ele>34</ele>
						<time>2026-05-01T13:54:35Z</time>
					</trkpt>
					<trkpt lat="49.346070" lon="1.298720">
						<ele>33</ele>
						<time>2026-05-01T13:54:37Z</time>
					</trkpt>
					<trkpt lat="49.345870" lon="1.298490">
						<ele>31</ele>
						<time>2026-05-01T13:54:41Z</time>
					</trkpt>
					<trkpt lat="49.345060" lon="1.297630">
						<ele>32</ele>
						<time>2026-05-01T13:54:59Z</time>
					</trkpt>
					<trkpt lat="49.344230" lon="1.296600">
						<ele>32</ele>
						<time>2026-05-01T13:55:18Z</time>
					</trkpt>
					<trkpt lat="49.343930" lon="1.296240">
						<ele>33</ele>
						<time>2026-05-01T13:55:25Z</time>
					</trkpt>
					<trkpt lat="49.343470" lon="1.295760">
						<ele>30</ele>
						<time>2026-05-01T13:55:35Z</time>
					</trkpt>
					<trkpt lat="49.343170" lon="1.295390">
						<ele>30</ele>
						<time>2026-05-01T13:55:41Z</time>
					</trkpt>
					<trkpt lat="49.342780" lon="1.294850">
						<ele>29</ele>
						<time>2026-05-01T13:55:51Z</time>
					</trkpt>
					<trkpt lat="49.342330" lon="1.294040">
						<ele>30</ele>
						<time>2026-05-01T13:56:03Z</time>
					</trkpt>
					<trkpt lat="49.341840" lon="1.293000">
						<ele>29</ele>
						<time>2026-05-01T13:56:18Z</time>
					</trkpt>
					<trkpt lat="49.341710" lon="1.292590">
						<ele>29</ele>
						<time>2026-05-01T13:56:23Z</time>
					</trkpt>
					<trkpt lat="49.340940" lon="1.289910">
						<ele>32</ele>
						<time>2026-05-01T13:56:57Z</time>
					</trkpt>
					<trkpt lat="49.340670" lon="1.288800">
						<ele>34</ele>
						<time>2026-05-01T13:57:11Z</time>
					</trkpt>
					<trkpt lat="49.340440" lon="1.287930">
						<ele>33</ele>
						<time>2026-05-01T13:57:22Z</time>
					</trkpt>
					<trkpt lat="49.340380" lon="1.287610">
						<ele>33</ele>
						<time>2026-05-01T13:57:26Z</time>
					</trkpt>
					<trkpt lat="49.340310" lon="1.287270">
						<ele>33</ele>
						<time>2026-05-01T13:57:30Z</time>
					</trkpt>
					<trkpt lat="49.340080" lon="1.286460">
						<ele>34</ele>
						<time>2026-05-01T13:57:40Z</time>
					</trkpt>
					<trkpt lat="49.339650" lon="1.285050">
						<ele>33</ele>
						<time>2026-05-01T13:57:58Z</time>
					</trkpt>
					<trkpt lat="49.339180" lon="1.283550">
						<ele>29</ele>
						<time>2026-05-01T13:58:17Z</time>
					</trkpt>
					<trkpt lat="49.338950" lon="1.282850">
						<ele>30</ele>
						<time>2026-05-01T13:58:27Z</time>
					</trkpt>
					<trkpt lat="49.338510" lon="1.281530">
						<ele>26</ele>
						<time>2026-05-01T13:58:44Z</time>
					</trkpt>
					<trkpt lat="49.338450" lon="1.281310">
						<ele>26</ele>
						<time>2026-05-01T13:58:46Z</time>
					</trkpt>
					<trkpt lat="49.337740" lon="1.278980">
						<ele>24</ele>
						<time>2026-05-01T13:59:16Z</time>
					</trkpt>
					<trkpt lat="49.337650" lon="1.278670">
						<ele>22</ele>
						<time>2026-05-01T13:59:20Z</time>
					</trkpt>
					<trkpt lat="49.337600" lon="1.278540">
						<ele>21</ele>
						<time>2026-05-01T13:59:22Z</time>
					</trkpt>
					<trkpt lat="49.337480" lon="1.278130">
						<ele>19</ele>
						<time>2026-05-01T13:59:27Z</time>
					</trkpt>
					<trkpt lat="49.337200" lon="1.277220">
						<ele>16</ele>
						<time>2026-05-01T13:59:39Z</time>
					</trkpt>
					<trkpt lat="49.336740" lon="1.275680">
						<ele>14</ele>
						<time>2026-05-01T13:59:58Z</time>
					</trkpt>
					<trkpt lat="49.336650" lon="1.275430">
						<ele>14</ele>
						<time>2026-05-01T14:00:02Z</time>
					</trkpt>
					<trkpt lat="49.336580" lon="1.275230">
						<ele>14</ele>
						<time>2026-05-01T14:00:04Z</time>
					</trkpt>
					<trkpt lat="49.336480" lon="1.274960">
						<ele>14</ele>
						<time>2026-05-01T14:00:08Z</time>
					</trkpt>
					<trkpt lat="49.336400" lon="1.274940">
						<ele>14</ele>
						<time>2026-05-01T14:00:09Z</time>
					</trkpt>
					<trkpt lat="49.336340" lon="1.274920">
						<ele>14</ele>
						<time>2026-05-01T14:00:11Z</time>
					</trkpt>
					<trkpt lat="49.336010" lon="1.274800">
						<ele>13</ele>
						<time>2026-05-01T14:00:17Z</time>
					</trkpt>
					<trkpt lat="49.335600" lon="1.274690">
						<ele>13</ele>
						<time>2026-05-01T14:00:24Z</time>
					</trkpt>
					<trkpt lat="49.335440" lon="1.274680">
						<ele>13</ele>
						<time>2026-05-01T14:00:27Z</time>
					</trkpt>
					<trkpt lat="49.335140" lon="1.274770">
						<ele>13</ele>
						<time>2026-05-01T14:00:32Z</time>
					</trkpt>
					<trkpt lat="49.334640" lon="1.275030">
						<ele>13</ele>
						<time>2026-05-01T14:00:42Z</time>
					</trkpt>
					<trkpt lat="49.334520" lon="1.275090">
						<ele>14</ele>
						<time>2026-05-01T14:00:44Z</time>
					</trkpt>
					<trkpt lat="49.334440" lon="1.275080">
						<ele>14</ele>
						<time>2026-05-01T14:00:45Z</time>
					</trkpt>
					<trkpt lat="49.334280" lon="1.274630">
						<ele>14</ele>
						<time>2026-05-01T14:00:51Z</time>
					</trkpt>
					<trkpt lat="49.334140" lon="1.274420">
						<ele>14</ele>
						<time>2026-05-01T14:00:55Z</time>
					</trkpt>
					<trkpt lat="49.334070" lon="1.274320">
						<ele>14</ele>
						<time>2026-05-01T14:00:56Z</time>
					</trkpt>
					<trkpt lat="49.334010" lon="1.274260">
						<ele>14</ele>
						<time>2026-05-01T14:00:58Z</time>
					</trkpt>
					<trkpt lat="49.333960" lon="1.274230">
						<ele>14</ele>
						<time>2026-05-01T14:00:59Z</time>
					</trkpt>
					<trkpt lat="49.333700" lon="1.274970">
						<ele>14</ele>
						<time>2026-05-01T14:01:08Z</time>
					</trkpt>
					<trkpt lat="49.333520" lon="1.275480">
						<ele>14</ele>
						<time>2026-05-01T14:01:15Z</time>
					</trkpt>
					<trkpt lat="49.333190" lon="1.276460">
						<ele>16</ele>
						<time>2026-05-01T14:01:28Z</time>
					</trkpt>
					<trkpt lat="49.332930" lon="1.277280">
						<ele>16</ele>
						<time>2026-05-01T14:01:39Z</time>
					</trkpt>
					<trkpt lat="49.332830" lon="1.277580">
						<ele>16</ele>
						<time>2026-05-01T14:01:42Z</time>
					</trkpt>
					<trkpt lat="49.332770" lon="1.277770">
						<ele>16</ele>
						<time>2026-05-01T14:01:45Z</time>
					</trkpt>
					<trkpt lat="49.332650" lon="1.278080">
						<ele>16</ele>
						<time>2026-05-01T14:01:49Z</time>
					</trkpt>
					<trkpt lat="49.332450" lon="1.278610">
						<ele>16</ele>
						<time>2026-05-01T14:01:56Z</time>
					</trkpt>
					<trkpt lat="49.332250" lon="1.279040">
						<ele>15</ele>
						<time>2026-05-01T14:02:02Z</time>
					</trkpt>
					<trkpt lat="49.332000" lon="1.279360">
						<ele>15</ele>
						<time>2026-05-01T14:02:08Z</time>
					</trkpt>
					<trkpt lat="49.331770" lon="1.279630">
						<ele>16</ele>
						<time>2026-05-01T14:02:13Z</time>
					</trkpt>
					<trkpt lat="49.331390" lon="1.279990">
						<ele>17</ele>
						<time>2026-05-01T14:02:21Z</time>
					</trkpt>
					<trkpt lat="49.331290" lon="1.280080">
						<ele>17</ele>
						<time>2026-05-01T14:02:23Z</time>
					</trkpt>
					<trkpt lat="49.331220" lon="1.280160">
						<ele>18</ele>
						<time>2026-05-01T14:02:25Z</time>
					</trkpt>
					<trkpt lat="49.331170" lon="1.280190">
						<ele>18</ele>
						<time>2026-05-01T14:02:26Z</time>
					</trkpt>
					<trkpt lat="49.330920" lon="1.280520">
						<ele>20</ele>
						<time>2026-05-01T14:02:32Z</time>
					</trkpt>
					<trkpt lat="49.330900" lon="1.280550">
						<ele>20</ele>
						<time>2026-05-01T14:02:32Z</time>
					</trkpt>
					<trkpt lat="49.330390" lon="1.280030">
						<ele>23</ele>
						<time>2026-05-01T14:02:43Z</time>
					</trkpt>
					<trkpt lat="49.330360" lon="1.279990">
						<ele>23</ele>
						<time>2026-05-01T14:02:44Z</time>
					</trkpt>
					<trkpt lat="49.329910" lon="1.279510">
						<ele>25</ele>
						<time>2026-05-01T14:02:54Z</time>
					</trkpt>
					<trkpt lat="49.329790" lon="1.279340">
						<ele>26</ele>
						<time>2026-05-01T14:02:56Z</time>
					</trkpt>
					<trkpt lat="49.329730" lon="1.279170">
						<ele>27</ele>
						<time>2026-05-01T14:02:59Z</time>
					</trkpt>
					<trkpt lat="49.329610" lon="1.278620">
						<ele>26</ele>
						<time>2026-05-01T14:03:05Z</time>
					</trkpt>
					<trkpt lat="49.329050" lon="1.276940">
						<ele>27</ele>
						<time>2026-05-01T14:03:27Z</time>
					</trkpt>
					<trkpt lat="49.328790" lon="1.275880">
						<ele>28</ele>
						<time>2026-05-01T14:03:40Z</time>
					</trkpt>
					<trkpt lat="49.328560" lon="1.275100">
						<ele>28</ele>
						<time>2026-05-01T14:03:50Z</time>
					</trkpt>
					<trkpt lat="49.328270" lon="1.274300">
						<ele>25</ele>
						<time>2026-05-01T14:04:01Z</time>
					</trkpt>
					<trkpt lat="49.328170" lon="1.273880">
						<ele>26</ele>
						<time>2026-05-01T14:04:06Z</time>
					</trkpt>
					<trkpt lat="49.327780" lon="1.271910">
						<ele>29</ele>
						<time>2026-05-01T14:04:30Z</time>
					</trkpt>
					<trkpt lat="49.327590" lon="1.271210">
						<ele>28</ele>
						<time>2026-05-01T14:04:39Z</time>
					</trkpt>
					<trkpt lat="49.327350" lon="1.268960">
						<ele>22</ele>
						<time>2026-05-01T14:05:05Z</time>
					</trkpt>
					<trkpt lat="49.327320" lon="1.268440">
						<ele>22</ele>
						<time>2026-05-01T14:05:11Z</time>
					</trkpt>
					<trkpt lat="49.327300" lon="1.267750">
						<ele>19</ele>
						<time>2026-05-01T14:05:19Z</time>
					</trkpt>
					<trkpt lat="49.327280" lon="1.267670">
						<ele>19</ele>
						<time>2026-05-01T14:05:20Z</time>
					</trkpt>
					<trkpt lat="49.327240" lon="1.267380">
						<ele>19</ele>
						<time>2026-05-01T14:05:24Z</time>
					</trkpt>
					<trkpt lat="49.327150" lon="1.267030">
						<ele>19</ele>
						<time>2026-05-01T14:05:28Z</time>
					</trkpt>
					<trkpt lat="49.327070" lon="1.266790">
						<ele>20</ele>
						<time>2026-05-01T14:05:31Z</time>
					</trkpt>
					<trkpt lat="49.326850" lon="1.266180">
						<ele>21</ele>
						<time>2026-05-01T14:05:39Z</time>
					</trkpt>
					<trkpt lat="49.326680" lon="1.265640">
						<ele>21</ele>
						<time>2026-05-01T14:05:46Z</time>
					</trkpt>
					<trkpt lat="49.326430" lon="1.264740">
						<ele>25</ele>
						<time>2026-05-01T14:05:58Z</time>
					</trkpt>
					<trkpt lat="49.326340" lon="1.264470">
						<ele>25</ele>
						<time>2026-05-01T14:06:01Z</time>
					</trkpt>
					<trkpt lat="49.326210" lon="1.264100">
						<ele>24</ele>
						<time>2026-05-01T14:06:06Z</time>
					</trkpt>
					<trkpt lat="49.325180" lon="1.261370">
						<ele>23</ele>
						<time>2026-05-01T14:06:43Z</time>
					</trkpt>
					<trkpt lat="49.324750" lon="1.260160">
						<ele>19</ele>
						<time>2026-05-01T14:06:59Z</time>
					</trkpt>
					<trkpt lat="49.324620" lon="1.259790">
						<ele>18</ele>
						<time>2026-05-01T14:07:03Z</time>
					</trkpt>
					<trkpt lat="49.324140" lon="1.258420">
						<ele>17</ele>
						<time>2026-05-01T14:07:21Z</time>
					</trkpt>
					<trkpt lat="49.323810" lon="1.257340">
						<ele>28</ele>
						<time>2026-05-01T14:07:35Z</time>
					</trkpt>
					<trkpt lat="49.323220" lon="1.255030">
						<ele>16</ele>
						<time>2026-05-01T14:08:04Z</time>
					</trkpt>
					<trkpt lat="49.323020" lon="1.254250">
						<ele>20</ele>
						<time>2026-05-01T14:08:14Z</time>
					</trkpt>
					<trkpt lat="49.322860" lon="1.253460">
						<ele>18</ele>
						<time>2026-05-01T14:08:23Z</time>
					</trkpt>
					<trkpt lat="49.322860" lon="1.253290">
						<ele>17</ele>
						<time>2026-05-01T14:08:25Z</time>
					</trkpt>
					<trkpt lat="49.322680" lon="1.253300">
						<ele>19</ele>
						<time>2026-05-01T14:08:29Z</time>
					</trkpt>
					<trkpt lat="49.322620" lon="1.253280">
						<ele>20</ele>
						<time>2026-05-01T14:08:30Z</time>
					</trkpt>
					<trkpt lat="49.322570" lon="1.253240">
						<ele>20</ele>
						<time>2026-05-01T14:08:31Z</time>
					</trkpt>
					<trkpt lat="49.322410" lon="1.252920">
						<ele>22</ele>
						<time>2026-05-01T14:08:35Z</time>
					</trkpt>
					<trkpt lat="49.322290" lon="1.252650">
						<ele>24</ele>
						<time>2026-05-01T14:08:39Z</time>
					</trkpt>
					<trkpt lat="49.322140" lon="1.252290">
						<ele>26</ele>
						<time>2026-05-01T14:08:44Z</time>
					</trkpt>
					<trkpt lat="49.322010" lon="1.251860">
						<ele>25</ele>
						<time>2026-05-01T14:08:50Z</time>
					</trkpt>
					<trkpt lat="49.321890" lon="1.251340">
						<ele>22</ele>
						<time>2026-05-01T14:08:56Z</time>
					</trkpt>
					<trkpt lat="49.321850" lon="1.250960">
						<ele>20</ele>
						<time>2026-05-01T14:09:00Z</time>
					</trkpt>
					<trkpt lat="49.321840" lon="1.250730">
						<ele>18</ele>
						<time>2026-05-01T14:09:03Z</time>
					</trkpt>
					<trkpt lat="49.321830" lon="1.250440">
						<ele>17</ele>
						<time>2026-05-01T14:09:06Z</time>
					</trkpt>
					<trkpt lat="49.321790" lon="1.250070">
						<ele>16</ele>
						<time>2026-05-01T14:09:11Z</time>
					</trkpt>
					<trkpt lat="49.321650" lon="1.249360">
						<ele>13</ele>
						<time>2026-05-01T14:09:19Z</time>
					</trkpt>
					<trkpt lat="49.321500" lon="1.248710">
						<ele>16</ele>
						<time>2026-05-01T14:09:27Z</time>
					</trkpt>
					<trkpt lat="49.321220" lon="1.247640">
						<ele>18</ele>
						<time>2026-05-01T14:09:41Z</time>
					</trkpt>
					<trkpt lat="49.320700" lon="1.245760">
						<ele>17</ele>
						<time>2026-05-01T14:10:04Z</time>
					</trkpt>
					<trkpt lat="49.320550" lon="1.245310">
						<ele>19</ele>
						<time>2026-05-01T14:10:10Z</time>
					</trkpt>
					<trkpt lat="49.320400" lon="1.244970">
						<ele>20</ele>
						<time>2026-05-01T14:10:15Z</time>
					</trkpt>
					<trkpt lat="49.320200" lon="1.244630">
						<ele>19</ele>
						<time>2026-05-01T14:10:20Z</time>
					</trkpt>
					<trkpt lat="49.319270" lon="1.243340">
						<ele>16</ele>
						<time>2026-05-01T14:10:43Z</time>
					</trkpt>
					<trkpt lat="49.318640" lon="1.242610">
						<ele>16</ele>
						<time>2026-05-01T14:10:57Z</time>
					</trkpt>
					<trkpt lat="49.318400" lon="1.242380">
						<ele>15</ele>
						<time>2026-05-01T14:11:02Z</time>
					</trkpt>
					<trkpt lat="49.317840" lon="1.241940">
						<ele>17</ele>
						<time>2026-05-01T14:11:13Z</time>
					</trkpt>
					<trkpt lat="49.317610" lon="1.241770">
						<ele>16</ele>
						<time>2026-05-01T14:11:18Z</time>
					</trkpt>
					<trkpt lat="49.317580" lon="1.241650">
						<ele>13</ele>
						<time>2026-05-01T14:11:19Z</time>
					</trkpt>
					<trkpt lat="49.317340" lon="1.241340">
						<ele>12</ele>
						<time>2026-05-01T14:11:25Z</time>
					</trkpt>
					<trkpt lat="49.316820" lon="1.240040">
						<ele>8</ele>
						<time>2026-05-01T14:11:42Z</time>
					</trkpt>
					<trkpt lat="49.316370" lon="1.238930">
						<ele>8</ele>
						<time>2026-05-01T14:11:57Z</time>
					</trkpt>
					<trkpt lat="49.314070" lon="1.232950">
						<ele>8</ele>
						<time>2026-05-01T14:13:18Z</time>
					</trkpt>
					<trkpt lat="49.314010" lon="1.232840">
						<ele>8</ele>
						<time>2026-05-01T14:13:20Z</time>
					</trkpt>
					<trkpt lat="49.313940" lon="1.232800">
						<ele>8</ele>
						<time>2026-05-01T14:13:21Z</time>
					</trkpt>
					<trkpt lat="49.313850" lon="1.232790">
						<ele>8</ele>
						<time>2026-05-01T14:13:23Z</time>
					</trkpt>
					<trkpt lat="49.312780" lon="1.233440">
						<ele>6</ele>
						<time>2026-05-01T14:13:43Z</time>
					</trkpt>
					<trkpt lat="49.312840" lon="1.234050">
						<ele>5</ele>
						<time>2026-05-01T14:13:50Z</time>
					</trkpt>
					<trkpt lat="49.312860" lon="1.234410">
						<ele>6</ele>
						<time>2026-05-01T14:13:54Z</time>
					</trkpt>
					<trkpt lat="49.312570" lon="1.238330">
						<ele>9</ele>
						<time>2026-05-01T14:14:40Z</time>
					</trkpt>
					<trkpt lat="49.308680" lon="1.235050">
						<ele>7</ele>
						<time>2026-05-01T14:15:59Z</time>
					</trkpt>
					<trkpt lat="49.308530" lon="1.234800">
						<ele>8</ele>
						<time>2026-05-01T14:16:03Z</time>
					</trkpt>
					<trkpt lat="49.308410" lon="1.235340">
						<ele>8</ele>
						<time>2026-05-01T14:16:10Z</time>
					</trkpt>
					<trkpt lat="49.308400" lon="1.235610">
						<ele>7</ele>
						<time>2026-05-01T14:16:13Z</time>
					</trkpt>
					<trkpt lat="49.308400" lon="1.236140">
						<ele>7</ele>
						<time>2026-05-01T14:16:19Z</time>
					</trkpt>
					<trkpt lat="49.308460" lon="1.236630">
						<ele>6</ele>
						<time>2026-05-01T14:16:25Z</time>
					</trkpt>
					<trkpt lat="49.308560" lon="1.236980">
						<ele>6</ele>
						<time>2026-05-01T14:16:29Z</time>
					</trkpt>
					<trkpt lat="49.308630" lon="1.237270">
						<ele>7</ele>
						<time>2026-05-01T14:16:33Z</time>
					</trkpt>
					<trkpt lat="49.308640" lon="1.237530">
						<ele>7</ele>
						<time>2026-05-01T14:16:36Z</time>
					</trkpt>
					<trkpt lat="49.308580" lon="1.237820">
						<ele>7</ele>
						<time>2026-05-01T14:16:39Z</time>
					</trkpt>
					<trkpt lat="49.308480" lon="1.238120">
						<ele>7</ele>
						<time>2026-05-01T14:16:43Z</time>
					</trkpt>
					<trkpt lat="49.308350" lon="1.238210">
						<ele>7</ele>
						<time>2026-05-01T14:16:46Z</time>
					</trkpt>
					<trkpt lat="49.308160" lon="1.238270">
						<ele>8</ele>
						<time>2026-05-01T14:16:49Z</time>
					</trkpt>
					<trkpt lat="49.307910" lon="1.239840">
						<ele>8</ele>
						<time>2026-05-01T14:17:08Z</time>
					</trkpt>
					<trkpt lat="49.307830" lon="1.240100">
						<ele>8</ele>
						<time>2026-05-01T14:17:11Z</time>
					</trkpt>
					<trkpt lat="49.307700" lon="1.240620">
						<ele>8</ele>
						<time>2026-05-01T14:17:18Z</time>
					</trkpt>
					<trkpt lat="49.307620" lon="1.240900">
						<ele>8</ele>
						<time>2026-05-01T14:17:21Z</time>
					</trkpt>
					<trkpt lat="49.307290" lon="1.241410">
						<ele>8</ele>
						<time>2026-05-01T14:17:30Z</time>
					</trkpt>
					<trkpt lat="49.306920" lon="1.241920">
						<ele>9</ele>
						<time>2026-05-01T14:17:39Z</time>
					</trkpt>
					<trkpt lat="49.306570" lon="1.242420">
						<ele>9</ele>
						<time>2026-05-01T14:17:47Z</time>
					</trkpt>
					<trkpt lat="49.306260" lon="1.243030">
						<ele>9</ele>
						<time>2026-05-01T14:17:56Z</time>
					</trkpt>
					<trkpt lat="49.306040" lon="1.243490">
						<ele>9</ele>
						<time>2026-05-01T14:18:03Z</time>
					</trkpt>
					<trkpt lat="49.305890" lon="1.243810">
						<ele>9</ele>
						<time>2026-05-01T14:18:07Z</time>
					</trkpt>
					<trkpt lat="49.305350" lon="1.245030">
						<ele>8</ele>
						<time>2026-05-01T14:18:24Z</time>
					</trkpt>
					<trkpt lat="49.305010" lon="1.246180">
						<ele>9</ele>
						<time>2026-05-01T14:18:39Z</time>
					</trkpt>
					<trkpt lat="49.304980" lon="1.246250">
						<ele>9</ele>
						<time>2026-05-01T14:18:40Z</time>
					</trkpt>
					<trkpt lat="49.304760" lon="1.246770">
						<ele>9</ele>
						<time>2026-05-01T14:18:47Z</time>
					</trkpt>
					<trkpt lat="49.304730" lon="1.246850">
						<ele>9</ele>
						<time>2026-05-01T14:18:48Z</time>
					</trkpt>
					<trkpt lat="49.304310" lon="1.247380">
						<ele>9</ele>
						<time>2026-05-01T14:18:58Z</time>
					</trkpt>
					<trkpt lat="49.303780" lon="1.247970">
						<ele>8</ele>
						<time>2026-05-01T14:19:10Z</time>
					</trkpt>
					<trkpt lat="49.303690" lon="1.248070">
						<ele>8</ele>
						<time>2026-05-01T14:19:12Z</time>
					</trkpt>
					<trkpt lat="49.303480" lon="1.248310">
						<ele>9</ele>
						<time>2026-05-01T14:19:16Z</time>
					</trkpt>
					<trkpt lat="49.302900" lon="1.248900">
						<ele>9</ele>
						<time>2026-05-01T14:19:29Z</time>
					</trkpt>
					<trkpt lat="49.302710" lon="1.249220">
						<ele>10</ele>
						<time>2026-05-01T14:19:34Z</time>
					</trkpt>
					<trkpt lat="49.302620" lon="1.249400">
						<ele>9</ele>
						<time>2026-05-01T14:19:36Z</time>
					</trkpt>
					<trkpt lat="49.302430" lon="1.249840">
						<ele>8</ele>
						<time>2026-05-01T14:19:42Z</time>
					</trkpt>
					<trkpt lat="49.302280" lon="1.250180">
						<ele>8</ele>
						<time>2026-05-01T14:19:47Z</time>
					</trkpt>
					<trkpt lat="49.302010" lon="1.250580">
						<ele>9</ele>
						<time>2026-05-01T14:19:54Z</time>
					</trkpt>
					<trkpt lat="49.301120" lon="1.251340">
						<ele>12</ele>
						<time>2026-05-01T14:20:12Z</time>
					</trkpt>
					<trkpt lat="49.300880" lon="1.251520">
						<ele>12</ele>
						<time>2026-05-01T14:20:17Z</time>
					</trkpt>
					<trkpt lat="49.299840" lon="1.252250">
						<ele>12</ele>
						<time>2026-05-01T14:20:37Z</time>
					</trkpt>
					<trkpt lat="49.299550" lon="1.252570">
						<ele>12</ele>
						<time>2026-05-01T14:20:43Z</time>
					</trkpt>
					<trkpt lat="49.298900" lon="1.251390">
						<ele>11</ele>
						<time>2026-05-01T14:21:01Z</time>
					</trkpt>
					<trkpt lat="49.298360" lon="1.252230">
						<ele>11</ele>
						<time>2026-05-01T14:21:15Z</time>
					</trkpt>
					<trkpt lat="49.298220" lon="1.252520">
						<ele>11</ele>
						<time>2026-05-01T14:21:19Z</time>
					</trkpt>
					<trkpt lat="49.297660" lon="1.253890">
						<ele>12</ele>
						<time>2026-05-01T14:21:38Z</time>
					</trkpt>
					<trkpt lat="49.297420" lon="1.254440">
						<ele>13</ele>
						<time>2026-05-01T14:21:46Z</time>
					</trkpt>
					<trkpt lat="49.297300" lon="1.254630">
						<ele>13</ele>
						<time>2026-05-01T14:21:49Z</time>
					</trkpt>
					<trkpt lat="49.297120" lon="1.254810">
						<ele>12</ele>
						<time>2026-05-01T14:21:52Z</time>
					</trkpt>
					<trkpt lat="49.296760" lon="1.255110">
						<ele>12</ele>
						<time>2026-05-01T14:22:00Z</time>
					</trkpt>
					<trkpt lat="49.296550" lon="1.255300">
						<ele>11</ele>
						<time>2026-05-01T14:22:04Z</time>
					</trkpt>
					<trkpt lat="49.296350" lon="1.255430">
						<ele>11</ele>
						<time>2026-05-01T14:22:08Z</time>
					</trkpt>
					<trkpt lat="49.295610" lon="1.255680">
						<ele>10</ele>
						<time>2026-05-01T14:22:21Z</time>
					</trkpt>
					<trkpt lat="49.294860" lon="1.256140">
						<ele>10</ele>
						<time>2026-05-01T14:22:36Z</time>
					</trkpt>
					<trkpt lat="49.294510" lon="1.256320">
						<ele>11</ele>
						<time>2026-05-01T14:22:42Z</time>
					</trkpt>
					<trkpt lat="49.293800" lon="1.256720">
						<ele>12</ele>
						<time>2026-05-01T14:22:56Z</time>
					</trkpt>
					<trkpt lat="49.293630" lon="1.256820">
						<ele>12</ele>
						<time>2026-05-01T14:22:59Z</time>
					</trkpt>
					<trkpt lat="49.293190" lon="1.257150">
						<ele>13</ele>
						<time>2026-05-01T14:23:08Z</time>
					</trkpt>
					<trkpt lat="49.292600" lon="1.257630">
						<ele>12</ele>
						<time>2026-05-01T14:23:20Z</time>
					</trkpt>
					<trkpt lat="49.291840" lon="1.258100">
						<ele>10</ele>
						<time>2026-05-01T14:23:34Z</time>
					</trkpt>
					<trkpt lat="49.290910" lon="1.258580">
						<ele>8</ele>
						<time>2026-05-01T14:23:52Z</time>
					</trkpt>
					<trkpt lat="49.290470" lon="1.258780">
						<ele>9</ele>
						<time>2026-05-01T14:24:00Z</time>
					</trkpt>
					<trkpt lat="49.290100" lon="1.258930">
						<ele>9</ele>
						<time>2026-05-01T14:24:07Z</time>
					</trkpt>
					<trkpt lat="49.287300" lon="1.259610">
						<ele>9</ele>
						<time>2026-05-01T14:24:57Z</time>
					</trkpt>
					<trkpt lat="49.286690" lon="1.259720">
						<ele>11</ele>
						<time>2026-05-01T14:25:08Z</time>
					</trkpt>
					<trkpt lat="49.286520" lon="1.259740">
						<ele>11</ele>
						<time>2026-05-01T14:25:11Z</time>
					</trkpt>
					<trkpt lat="49.286020" lon="1.259710">
						<ele>11</ele>
						<time>2026-05-01T14:25:20Z</time>
					</trkpt>
					<trkpt lat="49.285150" lon="1.259530">
						<ele>12</ele>
						<time>2026-05-01T14:25:36Z</time>
					</trkpt>
					<trkpt lat="49.284550" lon="1.259490">
						<ele>11</ele>
						<time>2026-05-01T14:25:46Z</time>
					</trkpt>
					<trkpt lat="49.284160" lon="1.259490">
						<ele>10</ele>
						<time>2026-05-01T14:25:53Z</time>
					</trkpt>
					<trkpt lat="49.283780" lon="1.259520">
						<ele>10</ele>
						<time>2026-05-01T14:26:00Z</time>
					</trkpt>
					<trkpt lat="49.282990" lon="1.259730">
						<ele>10</ele>
						<time>2026-05-01T14:26:14Z</time>
					</trkpt>
					<trkpt lat="49.282680" lon="1.259800">
						<ele>10</ele>
						<time>2026-05-01T14:26:20Z</time>
					</trkpt>
					<trkpt lat="49.282430" lon="1.259850">
						<ele>10</ele>
						<time>2026-05-01T14:26:24Z</time>
					</trkpt>
					<trkpt lat="49.281870" lon="1.259870">
						<ele>10</ele>
						<time>2026-05-01T14:26:34Z</time>
					</trkpt>
					<trkpt lat="49.281710" lon="1.259830">
						<ele>10</ele>
						<time>2026-05-01T14:26:37Z</time>
					</trkpt>
					<trkpt lat="49.281240" lon="1.259590">
						<ele>10</ele>
						<time>2026-05-01T14:26:46Z</time>
					</trkpt>
					<trkpt lat="49.279920" lon="1.259160">
						<ele>10</ele>
						<time>2026-05-01T14:27:10Z</time>
					</trkpt>
					<trkpt lat="49.279500" lon="1.259100">
						<ele>10</ele>
						<time>2026-05-01T14:27:18Z</time>
					</trkpt>
					<trkpt lat="49.277630" lon="1.259220">
						<ele>12</ele>
						<time>2026-05-01T14:27:51Z</time>
					</trkpt>
					<trkpt lat="49.277580" lon="1.259220">
						<ele>12</ele>
						<time>2026-05-01T14:27:52Z</time>
					</trkpt>
					<trkpt lat="49.275410" lon="1.259390">
						<ele>11</ele>
						<time>2026-05-01T14:28:30Z</time>
					</trkpt>
					<trkpt lat="49.275120" lon="1.259430">
						<ele>11</ele>
						<time>2026-05-01T14:28:36Z</time>
					</trkpt>
					<trkpt lat="49.274690" lon="1.259480">
						<ele>11</ele>
						<time>2026-05-01T14:28:43Z</time>
					</trkpt>
					<trkpt lat="49.274590" lon="1.259490">
						<ele>11</ele>
						<time>2026-05-01T14:28:45Z</time>
					</trkpt>
					<trkpt lat="49.273990" lon="1.259320">
						<ele>11</ele>
						<time>2026-05-01T14:28:56Z</time>
					</trkpt>
					<trkpt lat="49.273600" lon="1.259220">
						<ele>11</ele>
						<time>2026-05-01T14:29:03Z</time>
					</trkpt>
					<trkpt lat="49.273030" lon="1.259110">
						<ele>11</ele>
						<time>2026-05-01T14:29:13Z</time>
					</trkpt>
					<trkpt lat="49.271940" lon="1.259110">
						<ele>11</ele>
						<time>2026-05-01T14:29:33Z</time>
					</trkpt>
					<trkpt lat="49.271600" lon="1.259090">
						<ele>11</ele>
						<time>2026-05-01T14:29:39Z</time>
					</trkpt>
					<trkpt lat="49.270730" lon="1.258970">
						<ele>10</ele>
						<time>2026-05-01T14:29:54Z</time>
					</trkpt>
					<trkpt lat="49.270480" lon="1.258940">
						<ele>10</ele>
						<time>2026-05-01T14:29:59Z</time>
					</trkpt>
					<trkpt lat="49.269740" lon="1.259010">
						<ele>11</ele>
						<time>2026-05-01T14:30:12Z</time>
					</trkpt>
					<trkpt lat="49.269600" lon="1.259030">
						<ele>11</ele>
						<time>2026-05-01T14:30:14Z</time>
					</trkpt>
					<trkpt lat="49.269430" lon="1.259040">
						<ele>11</ele>
						<time>2026-05-01T14:30:17Z</time>
					</trkpt>
					<trkpt lat="49.268960" lon="1.259220">
						<ele>12</ele>
						<time>2026-05-01T14:30:26Z</time>
					</trkpt>
					<trkpt lat="49.268700" lon="1.259330">
						<ele>11</ele>
						<time>2026-05-01T14:30:31Z</time>
					</trkpt>
					<trkpt lat="49.268280" lon="1.259470">
						<ele>11</ele>
						<time>2026-05-01T14:30:38Z</time>
					</trkpt>
					<trkpt lat="49.268050" lon="1.259470">
						<ele>11</ele>
						<time>2026-05-01T14:30:42Z</time>
					</trkpt>
					<trkpt lat="49.267670" lon="1.259410">
						<ele>12</ele>
						<time>2026-05-01T14:30:49Z</time>
					</trkpt>
					<trkpt lat="49.267140" lon="1.259220">
						<ele>10</ele>
						<time>2026-05-01T14:30:59Z</time>
					</trkpt>
					<trkpt lat="49.266300" lon="1.258760">
						<ele>9</ele>
						<time>2026-05-01T14:31:15Z</time>
					</trkpt>
					<trkpt lat="49.266110" lon="1.258680">
						<ele>8</ele>
						<time>2026-05-01T14:31:18Z</time>
					</trkpt>
					<trkpt lat="49.265770" lon="1.258640">
						<ele>8</ele>
						<time>2026-05-01T14:31:24Z</time>
					</trkpt>
					<trkpt lat="49.265320" lon="1.258770">
						<ele>8</ele>
						<time>2026-05-01T14:31:33Z</time>
					</trkpt>
					<trkpt lat="49.264880" lon="1.258830">
						<ele>7</ele>
						<time>2026-05-01T14:31:40Z</time>
					</trkpt>
					<trkpt lat="49.264440" lon="1.258840">
						<ele>7</ele>
						<time>2026-05-01T14:31:48Z</time>
					</trkpt>
					<trkpt lat="49.261710" lon="1.258580">
						<ele>9</ele>
						<time>2026-05-01T14:32:37Z</time>
					</trkpt>
					<trkpt lat="49.260210" lon="1.258270">
						<ele>8</ele>
						<time>2026-05-01T14:33:04Z</time>
					</trkpt>
					<trkpt lat="49.259980" lon="1.258190">
						<ele>8</ele>
						<time>2026-05-01T14:33:08Z</time>
					</trkpt>
					<trkpt lat="49.259870" lon="1.258140">
						<ele>8</ele>
						<time>2026-05-01T14:33:10Z</time>
					</trkpt>
					<trkpt lat="49.259660" lon="1.258010">
						<ele>9</ele>
						<time>2026-05-01T14:33:14Z</time>
					</trkpt>
					<trkpt lat="49.257980" lon="1.256840">
						<ele>8</ele>
						<time>2026-05-01T14:33:47Z</time>
					</trkpt>
					<trkpt lat="49.257710" lon="1.256730">
						<ele>8</ele>
						<time>2026-05-01T14:33:52Z</time>
					</trkpt>
					<trkpt lat="49.256970" lon="1.256820">
						<ele>8</ele>
						<time>2026-05-01T14:34:05Z</time>
					</trkpt>
					<trkpt lat="49.256690" lon="1.256810">
						<ele>8</ele>
						<time>2026-05-01T14:34:10Z</time>
					</trkpt>
					<trkpt lat="49.256010" lon="1.256730">
						<ele>9</ele>
						<time>2026-05-01T14:34:22Z</time>
					</trkpt>
					<trkpt lat="49.255450" lon="1.256570">
						<ele>8</ele>
						<time>2026-05-01T14:34:32Z</time>
					</trkpt>
					<trkpt lat="49.255170" lon="1.256570">
						<ele>8</ele>
						<time>2026-05-01T14:34:37Z</time>
					</trkpt>
					<trkpt lat="49.255100" lon="1.256570">
						<ele>8</ele>
						<time>2026-05-01T14:34:39Z</time>
					</trkpt>
					<trkpt lat="49.254230" lon="1.256810">
						<ele>9</ele>
						<time>2026-05-01T14:34:54Z</time>
					</trkpt>
					<trkpt lat="49.252670" lon="1.257000">
						<ele>10</ele>
						<time>2026-05-01T14:35:22Z</time>
					</trkpt>
					<trkpt lat="49.252380" lon="1.256990">
						<ele>10</ele>
						<time>2026-05-01T14:35:27Z</time>
					</trkpt>
					<trkpt lat="49.252010" lon="1.256940">
						<ele>10</ele>
						<time>2026-05-01T14:35:34Z</time>
					</trkpt>
					<trkpt lat="49.251550" lon="1.256850">
						<ele>9</ele>
						<time>2026-05-01T14:35:42Z</time>
					</trkpt>
					<trkpt lat="49.251060" lon="1.256730">
						<ele>9</ele>
						<time>2026-05-01T14:35:51Z</time>
					</trkpt>
					<trkpt lat="49.250700" lon="1.256610">
						<ele>9</ele>
						<time>2026-05-01T14:35:58Z</time>
					</trkpt>
					<trkpt lat="49.250010" lon="1.256330">
						<ele>8</ele>
						<time>2026-05-01T14:36:10Z</time>
					</trkpt>
					<trkpt lat="49.248370" lon="1.255730">
						<ele>12</ele>
						<time>2026-05-01T14:36:40Z</time>
					</trkpt>
					<trkpt lat="49.246780" lon="1.255140">
						<ele>11</ele>
						<time>2026-05-01T14:37:09Z</time>
					</trkpt>
					<trkpt lat="49.246280" lon="1.254630">
						<ele>11</ele>
						<time>2026-05-01T14:37:20Z</time>
					</trkpt>
					<trkpt lat="49.246200" lon="1.254510">
						<ele>10</ele>
						<time>2026-05-01T14:37:22Z</time>
					</trkpt>
					<trkpt lat="49.245540" lon="1.253610">
						<ele>11</ele>
						<time>2026-05-01T14:37:38Z</time>
					</trkpt>
					<trkpt lat="49.245400" lon="1.253310">
						<ele>11</ele>
						<time>2026-05-01T14:37:42Z</time>
					</trkpt>
					<trkpt lat="49.245260" lon="1.253280">
						<ele>12</ele>
						<time>2026-05-01T14:37:45Z</time>
					</trkpt>
					<trkpt lat="49.245210" lon="1.253260">
						<ele>12</ele>
						<time>2026-05-01T14:37:46Z</time>
					</trkpt>
					<trkpt lat="49.244580" lon="1.252650">
						<ele>10</ele>
						<time>2026-05-01T14:37:59Z</time>
					</trkpt>
					<trkpt lat="49.244370" lon="1.252340">
						<ele>10</ele>
						<time>2026-05-01T14:38:04Z</time>
					</trkpt>
					<trkpt lat="49.243950" lon="1.251780">
						<ele>11</ele>
						<time>2026-05-01T14:38:14Z</time>
					</trkpt>
					<trkpt lat="49.243720" lon="1.251410">
						<ele>11</ele>
						<time>2026-05-01T14:38:20Z</time>
					</trkpt>
					<trkpt lat="49.243370" lon="1.250810">
						<ele>10</ele>
						<time>2026-05-01T14:38:29Z</time>
					</trkpt>
					<trkpt lat="49.242910" lon="1.249890">
						<ele>10</ele>
						<time>2026-05-01T14:38:43Z</time>
					</trkpt>
					<trkpt lat="49.242630" lon="1.249230">
						<ele>11</ele>
						<time>2026-05-01T14:38:52Z</time>
					</trkpt>
					<trkpt lat="49.242510" lon="1.248920">
						<ele>11</ele>
						<time>2026-05-01T14:38:56Z</time>
					</trkpt>
					<trkpt lat="49.242330" lon="1.248270">
						<ele>11</ele>
						<time>2026-05-01T14:39:04Z</time>
					</trkpt>
					<trkpt lat="49.242210" lon="1.247270">
						<ele>10</ele>
						<time>2026-05-01T14:39:16Z</time>
					</trkpt>
					<trkpt lat="49.241930" lon="1.244430">
						<ele>12</ele>
						<time>2026-05-01T14:39:49Z</time>
					</trkpt>
					<trkpt lat="49.241640" lon="1.241320">
						<ele>11</ele>
						<time>2026-05-01T14:40:26Z</time>
					</trkpt>
					<trkpt lat="49.241450" lon="1.239370">
						<ele>9</ele>
						<time>2026-05-01T14:40:49Z</time>
					</trkpt>
					<trkpt lat="49.241390" lon="1.238990">
						<ele>9</ele>
						<time>2026-05-01T14:40:53Z</time>
					</trkpt>
					<trkpt lat="49.241330" lon="1.238670">
						<ele>9</ele>
						<time>2026-05-01T14:40:57Z</time>
					</trkpt>
					<trkpt lat="49.241260" lon="1.238450">
						<ele>9</ele>
						<time>2026-05-01T14:41:00Z</time>
					</trkpt>
					<trkpt lat="49.241120" lon="1.238090">
						<ele>9</ele>
						<time>2026-05-01T14:41:05Z</time>
					</trkpt>
					<trkpt lat="49.241030" lon="1.237930">
						<ele>9</ele>
						<time>2026-05-01T14:41:07Z</time>
					</trkpt>
					<trkpt lat="49.240740" lon="1.237450">
						<ele>9</ele>
						<time>2026-05-01T14:41:15Z</time>
					</trkpt>
					<trkpt lat="49.239460" lon="1.235470">
						<ele>9</ele>
						<time>2026-05-01T14:41:47Z</time>
					</trkpt>
					<trkpt lat="49.239370" lon="1.235360">
						<ele>9</ele>
						<time>2026-05-01T14:41:49Z</time>
					</trkpt>
					<trkpt lat="49.239150" lon="1.235150">
						<ele>9</ele>
						<time>2026-05-01T14:41:54Z</time>
					</trkpt>
					<trkpt lat="49.238920" lon="1.234890">
						<ele>9</ele>
						<time>2026-05-01T14:41:59Z</time>
					</trkpt>
					<trkpt lat="49.238680" lon="1.234600">
						<ele>10</ele>
						<time>2026-05-01T14:42:04Z</time>
					</trkpt>
					<trkpt lat="49.238050" lon="1.233600">
						<ele>10</ele>
						<time>2026-05-01T14:42:21Z</time>
					</trkpt>
					<trkpt lat="49.237160" lon="1.232120">
						<ele>11</ele>
						<time>2026-05-01T14:42:44Z</time>
					</trkpt>
					<trkpt lat="49.236980" lon="1.231750">
						<ele>11</ele>
						<time>2026-05-01T14:42:49Z</time>
					</trkpt>
					<trkpt lat="49.236860" lon="1.231600">
						<ele>12</ele>
						<time>2026-05-01T14:42:52Z</time>
					</trkpt>
					<trkpt lat="49.236600" lon="1.231200">
						<ele>11</ele>
						<time>2026-05-01T14:42:59Z</time>
					</trkpt>
					<trkpt lat="49.235120" lon="1.228800">
						<ele>10</ele>
						<time>2026-05-01T14:43:37Z</time>
					</trkpt>
					<trkpt lat="49.235030" lon="1.228620">
						<ele>10</ele>
						<time>2026-05-01T14:43:40Z</time>
					</trkpt>
					<trkpt lat="49.234920" lon="1.228450">
						<ele>10</ele>
						<time>2026-05-01T14:43:42Z</time>
					</trkpt>
					<trkpt lat="49.234510" lon="1.227770">
						<ele>11</ele>
						<time>2026-05-01T14:43:53Z</time>
					</trkpt>
					<trkpt lat="49.234430" lon="1.227640">
						<ele>11</ele>
						<time>2026-05-01T14:43:55Z</time>
					</trkpt>
					<trkpt lat="49.234320" lon="1.227390">
						<ele>11</ele>
						<time>2026-05-01T14:43:59Z</time>
					</trkpt>
					<trkpt lat="49.234060" lon="1.226790">
						<ele>12</ele>
						<time>2026-05-01T14:44:07Z</time>
					</trkpt>
					<trkpt lat="49.233850" lon="1.226140">
						<ele>12</ele>
						<time>2026-05-01T14:44:16Z</time>
					</trkpt>
					<trkpt lat="49.233550" lon="1.225270">
						<ele>13</ele>
						<time>2026-05-01T14:44:27Z</time>
					</trkpt>
					<trkpt lat="49.233550" lon="1.225190">
						<ele>13</ele>
						<time>2026-05-01T14:44:28Z</time>
					</trkpt>
					<trkpt lat="49.233600" lon="1.225030">
						<ele>13</ele>
						<time>2026-05-01T14:44:30Z</time>
					</trkpt>
					<trkpt lat="49.233500" lon="1.224920">
						<ele>13</ele>
						<time>2026-05-01T14:44:32Z</time>
					</trkpt>
					<trkpt lat="49.233370" lon="1.224730">
						<ele>13</ele>
						<time>2026-05-01T14:44:35Z</time>
					</trkpt>
					<trkpt lat="49.233290" lon="1.224660">
						<ele>13</ele>
						<time>2026-05-01T14:44:37Z</time>
					</trkpt>
					<trkpt lat="49.232950" lon="1.224540">
						<ele>13</ele>
						<time>2026-05-01T14:44:43Z</time>
					</trkpt>
					<trkpt lat="49.232150" lon="1.224280">
						<ele>13</ele>
						<time>2026-05-01T14:44:58Z</time>
					</trkpt>
					<trkpt lat="49.232080" lon="1.224250">
						<ele>13</ele>
						<time>2026-05-01T14:44:59Z</time>
					</trkpt>
					<trkpt lat="49.231710" lon="1.224140">
						<ele>13</ele>
						<time>2026-05-01T14:45:06Z</time>
					</trkpt>
					<trkpt lat="49.231600" lon="1.224140">
						<ele>13</ele>
						<time>2026-05-01T14:45:08Z</time>
					</trkpt>
					<trkpt lat="49.231550" lon="1.224160">
						<ele>13</ele>
						<time>2026-05-01T14:45:09Z</time>
					</trkpt>
					<trkpt lat="49.231450" lon="1.224230">
						<ele>13</ele>
						<time>2026-05-01T14:45:11Z</time>
					</trkpt>
					<trkpt lat="49.231390" lon="1.224300">
						<ele>13</ele>
						<time>2026-05-01T14:45:12Z</time>
					</trkpt>
					<trkpt lat="49.231300" lon="1.224490">
						<ele>13</ele>
						<time>2026-05-01T14:45:15Z</time>
					</trkpt>
					<trkpt lat="49.231200" lon="1.224870">
						<ele>14</ele>
						<time>2026-05-01T14:45:19Z</time>
					</trkpt>
					<trkpt lat="49.231020" lon="1.225520">
						<ele>13</ele>
						<time>2026-05-01T14:45:28Z</time>
					</trkpt>
					<trkpt lat="49.230920" lon="1.225930">
						<ele>12</ele>
						<time>2026-05-01T14:45:33Z</time>
					</trkpt>
					<trkpt lat="49.230350" lon="1.228040">
						<ele>13</ele>
						<time>2026-05-01T14:45:59Z</time>
					</trkpt>
					<trkpt lat="49.230120" lon="1.228940">
						<ele>14</ele>
						<time>2026-05-01T14:46:10Z</time>
					</trkpt>
					<trkpt lat="49.230070" lon="1.229140">
						<ele>14</ele>
						<time>2026-05-01T14:46:13Z</time>
					</trkpt>
					<trkpt lat="49.229990" lon="1.229410">
						<ele>14</ele>
						<time>2026-05-01T14:46:16Z</time>
					</trkpt>
					<trkpt lat="49.229900" lon="1.229770">
						<ele>14</ele>
						<time>2026-05-01T14:46:21Z</time>
					</trkpt>
					<trkpt lat="49.229670" lon="1.230680">
						<ele>11</ele>
						<time>2026-05-01T14:46:32Z</time>
					</trkpt>
					<trkpt lat="49.229160" lon="1.232530">
						<ele>11</ele>
						<time>2026-05-01T14:46:56Z</time>
					</trkpt>
					<trkpt lat="49.229130" lon="1.232760">
						<ele>11</ele>
						<time>2026-05-01T14:46:58Z</time>
					</trkpt>
					<trkpt lat="49.229140" lon="1.232960">
						<ele>10</ele>
						<time>2026-05-01T14:47:01Z</time>
					</trkpt>
					<trkpt lat="49.229180" lon="1.233240">
						<ele>10</ele>
						<time>2026-05-01T14:47:04Z</time>
					</trkpt>
					<trkpt lat="49.229240" lon="1.233460">
						<ele>10</ele>
						<time>2026-05-01T14:47:07Z</time>
					</trkpt>
					<trkpt lat="49.229440" lon="1.234010">
						<ele>10</ele>
						<time>2026-05-01T14:47:14Z</time>
					</trkpt>
					<trkpt lat="49.229630" lon="1.234520">
						<ele>12</ele>
						<time>2026-05-01T14:47:21Z</time>
					</trkpt>
					<trkpt lat="49.229880" lon="1.235210">
						<ele>16</ele>
						<time>2026-05-01T14:47:30Z</time>
					</trkpt>
					<trkpt lat="49.230660" lon="1.237400">
						<ele>17</ele>
						<time>2026-05-01T14:47:59Z</time>
					</trkpt>
					<trkpt lat="49.231010" lon="1.238390">
						<ele>19</ele>
						<time>2026-05-01T14:48:12Z</time>
					</trkpt>
					<trkpt lat="49.231220" lon="1.238960">
						<ele>20</ele>
						<time>2026-05-01T14:48:20Z</time>
					</trkpt>
					<trkpt lat="49.231290" lon="1.239160">
						<ele>21</ele>
						<time>2026-05-01T14:48:22Z</time>
					</trkpt>
					<trkpt lat="49.231400" lon="1.239460">
						<ele>21</ele>
						<time>2026-05-01T14:48:26Z</time>
					</trkpt>
					<trkpt lat="49.231450" lon="1.239610">
						<ele>21</ele>
						<time>2026-05-01T14:48:28Z</time>
					</trkpt>
					<trkpt lat="49.231630" lon="1.239430">
						<ele>22</ele>
						<time>2026-05-01T14:48:32Z</time>
					</trkpt>
					<trkpt lat="49.231970" lon="1.239070">
						<ele>22</ele>
						<time>2026-05-01T14:48:39Z</time>
					</trkpt>
					<trkpt lat="49.232170" lon="1.238770">
						<ele>21</ele>
						<time>2026-05-01T14:48:44Z</time>
					</trkpt>
					<trkpt lat="49.232320" lon="1.238530">
						<ele>21</ele>
						<time>2026-05-01T14:48:48Z</time>
					</trkpt>
					<trkpt lat="49.232430" lon="1.238250">
						<ele>20</ele>
						<time>2026-05-01T14:48:52Z</time>
					</trkpt>
					<trkpt lat="49.232460" lon="1.238290">
						<ele>20</ele>
						<time>2026-05-01T14:48:53Z</time>
					</trkpt>
					<trkpt lat="49.232630" lon="1.238470">
						<ele>20</ele>
						<time>2026-05-01T14:48:56Z</time>
					</trkpt>
					<trkpt lat="49.232770" lon="1.238840">
						<ele>20</ele>
						<time>2026-05-01T14:49:01Z</time>
					</trkpt>
					<trkpt lat="49.232800" lon="1.238910">
						<ele>20</ele>
						<time>2026-05-01T14:49:02Z</time>
					</trkpt>
					<trkpt lat="49.232980" lon="1.239320">
						<ele>20</ele>
						<time>2026-05-01T14:49:08Z</time>
					</trkpt>
					<trkpt lat="49.233180" lon="1.239830">
						<ele>21</ele>
						<time>2026-05-01T14:49:15Z</time>
					</trkpt>
					<trkpt lat="49.233650" lon="1.240980">
						<ele>23</ele>
						<time>2026-05-01T14:49:31Z</time>
					</trkpt>
					<trkpt lat="49.233890" lon="1.241680">
						<ele>25</ele>
						<time>2026-05-01T14:49:40Z</time>
					</trkpt>
					<trkpt lat="49.234400" lon="1.243050">
						<ele>27</ele>
						<time>2026-05-01T14:49:58Z</time>
					</trkpt>
					<trkpt lat="49.234820" lon="1.243940">
						<ele>28</ele>
						<time>2026-05-01T14:50:11Z</time>
					</trkpt>
					<trkpt lat="49.235060" lon="1.244440">
						<ele>30</ele>
						<time>2026-05-01T14:50:18Z</time>
					</trkpt>
					<trkpt lat="49.235720" lon="1.245970">
						<ele>35</ele>
						<time>2026-05-01T14:50:40Z</time>
					</trkpt>
					<trkpt lat="49.235870" lon="1.246270">
						<ele>36</ele>
						<time>2026-05-01T14:50:44Z</time>
					</trkpt>
					<trkpt lat="49.236030" lon="1.246560">
						<ele>35</ele>
						<time>2026-05-01T14:50:48Z</time>
					</trkpt>
					<trkpt lat="49.236130" lon="1.246720">
						<ele>35</ele>
						<time>2026-05-01T14:50:51Z</time>
					</trkpt>
					<trkpt lat="49.236250" lon="1.246870">
						<ele>34</ele>
						<time>2026-05-01T14:50:54Z</time>
					</trkpt>
					<trkpt lat="49.236320" lon="1.247030">
						<ele>35</ele>
						<time>2026-05-01T14:50:56Z</time>
					</trkpt>
					<trkpt lat="49.236500" lon="1.247270">
						<ele>35</ele>
						<time>2026-05-01T14:51:00Z</time>
					</trkpt>
					<trkpt lat="49.237450" lon="1.249040">
						<ele>41</ele>
						<time>2026-05-01T14:51:27Z</time>
					</trkpt>
					<trkpt lat="49.237750" lon="1.249700">
						<ele>40</ele>
						<time>2026-05-01T14:51:36Z</time>
					</trkpt>
					<trkpt lat="49.237860" lon="1.249950">
						<ele>41</ele>
						<time>2026-05-01T14:51:40Z</time>
					</trkpt>
					<trkpt lat="49.237940" lon="1.250310">
						<ele>43</ele>
						<time>2026-05-01T14:51:44Z</time>
					</trkpt>
					<trkpt lat="49.238220" lon="1.251760">
						<ele>47</ele>
						<time>2026-05-01T14:52:02Z</time>
					</trkpt>
					<trkpt lat="49.238510" lon="1.253070">
						<ele>46</ele>
						<time>2026-05-01T14:52:18Z</time>
					</trkpt>
					<trkpt lat="49.238730" lon="1.254250">
						<ele>42</ele>
						<time>2026-05-01T14:52:32Z</time>
					</trkpt>
					<trkpt lat="49.239090" lon="1.254650">
						<ele>41</ele>
						<time>2026-05-01T14:52:40Z</time>
					</trkpt>
					<trkpt lat="49.239120" lon="1.254680">
						<ele>40</ele>
						<time>2026-05-01T14:52:41Z</time>
					</trkpt>
					<trkpt lat="49.239290" lon="1.254910">
						<ele>39</ele>
						<time>2026-05-01T14:52:45Z</time>
					</trkpt>
					<trkpt lat="49.239360" lon="1.255000">
						<ele>39</ele>
						<time>2026-05-01T14:52:46Z</time>
					</trkpt>
					<trkpt lat="49.239800" lon="1.255650">
						<ele>40</ele>
						<time>2026-05-01T14:52:57Z</time>
					</trkpt>
					<trkpt lat="49.240080" lon="1.256120">
						<ele>40</ele>
						<time>2026-05-01T14:53:04Z</time>
					</trkpt>
					<trkpt lat="49.240390" lon="1.256860">
						<ele>41</ele>
						<time>2026-05-01T14:53:15Z</time>
					</trkpt>
					<trkpt lat="49.242810" lon="1.262400">
						<ele>40</ele>
						<time>2026-05-01T14:54:32Z</time>
					</trkpt>
					<trkpt lat="49.242890" lon="1.262590">
						<ele>40</ele>
						<time>2026-05-01T14:54:35Z</time>
					</trkpt>
					<trkpt lat="49.242910" lon="1.262680">
						<ele>40</ele>
						<time>2026-05-01T14:54:36Z</time>
					</trkpt>
					<trkpt lat="49.242970" lon="1.262690">
						<ele>40</ele>
						<time>2026-05-01T14:54:37Z</time>
					</trkpt>
					<trkpt lat="49.243250" lon="1.263050">
						<ele>39</ele>
						<time>2026-05-01T14:54:43Z</time>
					</trkpt>
					<trkpt lat="49.243500" lon="1.263410">
						<ele>38</ele>
						<time>2026-05-01T14:54:50Z</time>
					</trkpt>
					<trkpt lat="49.244850" lon="1.265330">
						<ele>36</ele>
						<time>2026-05-01T14:55:22Z</time>
					</trkpt>
					<trkpt lat="49.245120" lon="1.265720">
						<ele>34</ele>
						<time>2026-05-01T14:55:29Z</time>
					</trkpt>
					<trkpt lat="49.245260" lon="1.265810">
						<ele>33</ele>
						<time>2026-05-01T14:55:32Z</time>
					</trkpt>
					<trkpt lat="49.245410" lon="1.265850">
						<ele>31</ele>
						<time>2026-05-01T14:55:34Z</time>
					</trkpt>
					<trkpt lat="49.245600" lon="1.265780">
						<ele>30</ele>
						<time>2026-05-01T14:55:38Z</time>
					</trkpt>
					<trkpt lat="49.245750" lon="1.265670">
						<ele>29</ele>
						<time>2026-05-01T14:55:41Z</time>
					</trkpt>
					<trkpt lat="49.246010" lon="1.265360">
						<ele>28</ele>
						<time>2026-05-01T14:55:47Z</time>
					</trkpt>
					<trkpt lat="49.246490" lon="1.264770">
						<ele>25</ele>
						<time>2026-05-01T14:55:58Z</time>
					</trkpt>
					<trkpt lat="49.246710" lon="1.264550">
						<ele>24</ele>
						<time>2026-05-01T14:56:02Z</time>
					</trkpt>
					<trkpt lat="49.246830" lon="1.264480">
						<ele>24</ele>
						<time>2026-05-01T14:56:05Z</time>
					</trkpt>
					<trkpt lat="49.246960" lon="1.264460">
						<ele>23</ele>
						<time>2026-05-01T14:56:07Z</time>
					</trkpt>
					<trkpt lat="49.247070" lon="1.264490">
						<ele>21</ele>
						<time>2026-05-01T14:56:09Z</time>
					</trkpt>
					<trkpt lat="49.247210" lon="1.264580">
						<ele>20</ele>
						<time>2026-05-01T14:56:12Z</time>
					</trkpt>
					<trkpt lat="49.247370" lon="1.264730">
						<ele>18</ele>
						<time>2026-05-01T14:56:15Z</time>
					</trkpt>
					<trkpt lat="49.247550" lon="1.264940">
						<ele>17</ele>
						<time>2026-05-01T14:56:19Z</time>
					</trkpt>
					<trkpt lat="49.247670" lon="1.265070">
						<ele>18</ele>
						<time>2026-05-01T14:56:22Z</time>
					</trkpt>
					<trkpt lat="49.248240" lon="1.265740">
						<ele>24</ele>
						<time>2026-05-01T14:56:34Z</time>
					</trkpt>
					<trkpt lat="49.248690" lon="1.266170">
						<ele>29</ele>
						<time>2026-05-01T14:56:44Z</time>
					</trkpt>
					<trkpt lat="49.248880" lon="1.266330">
						<ele>30</ele>
						<time>2026-05-01T14:56:48Z</time>
					</trkpt>
					<trkpt lat="49.249180" lon="1.266510">
						<ele>30</ele>
						<time>2026-05-01T14:56:53Z</time>
					</trkpt>
					<trkpt lat="49.249900" lon="1.266990">
						<ele>29</ele>
						<time>2026-05-01T14:57:07Z</time>
					</trkpt>
					<trkpt lat="49.250150" lon="1.267120">
						<ele>28</ele>
						<time>2026-05-01T14:57:12Z</time>
					</trkpt>
					<trkpt lat="49.250250" lon="1.267180">
						<ele>28</ele>
						<time>2026-05-01T14:57:14Z</time>
					</trkpt>
					<trkpt lat="49.250540" lon="1.267260">
						<ele>25</ele>
						<time>2026-05-01T14:57:19Z</time>
					</trkpt>
					<trkpt lat="49.250890" lon="1.267430">
						<ele>22</ele>
						<time>2026-05-01T14:57:26Z</time>
					</trkpt>
					<trkpt lat="49.251100" lon="1.267550">
						<ele>22</ele>
						<time>2026-05-01T14:57:30Z</time>
					</trkpt>
					<trkpt lat="49.252610" lon="1.268540">
						<ele>19</ele>
						<time>2026-05-01T14:57:59Z</time>
					</trkpt>
					<trkpt lat="49.253490" lon="1.269200">
						<ele>21</ele>
						<time>2026-05-01T14:58:16Z</time>
					</trkpt>
					<trkpt lat="49.253870" lon="1.269510">
						<ele>18</ele>
						<time>2026-05-01T14:58:24Z</time>
					</trkpt>
					<trkpt lat="49.254310" lon="1.270030">
						<ele>15</ele>
						<time>2026-05-01T14:58:34Z</time>
					</trkpt>
					<trkpt lat="49.254440" lon="1.270120">
						<ele>15</ele>
						<time>2026-05-01T14:58:36Z</time>
					</trkpt>
					<trkpt lat="49.254720" lon="1.270150">
						<ele>13</ele>
						<time>2026-05-01T14:58:41Z</time>
					</trkpt>
					<trkpt lat="49.255090" lon="1.270360">
						<ele>12</ele>
						<time>2026-05-01T14:58:48Z</time>
					</trkpt>
					<trkpt lat="49.255400" lon="1.270440">
						<ele>13</ele>
						<time>2026-05-01T14:58:54Z</time>
					</trkpt>
					<trkpt lat="49.255960" lon="1.270420">
						<ele>14</ele>
						<time>2026-05-01T14:59:04Z</time>
					</trkpt>
					<trkpt lat="49.256030" lon="1.270440">
						<ele>14</ele>
						<time>2026-05-01T14:59:05Z</time>
					</trkpt>
					<trkpt lat="49.256710" lon="1.270590">
						<ele>20</ele>
						<time>2026-05-01T14:59:17Z</time>
					</trkpt>
					<trkpt lat="49.256910" lon="1.270600">
						<ele>21</ele>
						<time>2026-05-01T14:59:21Z</time>
					</trkpt>
					<trkpt lat="49.257780" lon="1.270500">
						<ele>24</ele>
						<time>2026-05-01T14:59:37Z</time>
					</trkpt>
					<trkpt lat="49.258650" lon="1.270440">
						<ele>25</ele>
						<time>2026-05-01T14:59:52Z</time>
					</trkpt>
					<trkpt lat="49.258990" lon="1.270430">
						<ele>26</ele>
						<time>2026-05-01T14:59:58Z</time>
					</trkpt>
					<trkpt lat="49.259260" lon="1.270400">
						<ele>26</ele>
						<time>2026-05-01T15:00:03Z</time>
					</trkpt>
					<trkpt lat="49.259570" lon="1.270310">
						<ele>25</ele>
						<time>2026-05-01T15:00:09Z</time>
					</trkpt>
					<trkpt lat="49.260030" lon="1.270150">
						<ele>22</ele>
						<time>2026-05-01T15:00:17Z</time>
					</trkpt>
					<trkpt lat="49.260820" lon="1.269890">
						<ele>23</ele>
						<time>2026-05-01T15:00:31Z</time>
					</trkpt>
					<trkpt lat="49.261380" lon="1.269740">
						<ele>24</ele>
						<time>2026-05-01T15:00:41Z</time>
					</trkpt>
					<trkpt lat="49.261660" lon="1.269740">
						<ele>25</ele>
						<time>2026-05-01T15:00:46Z</time>
					</trkpt>
					<trkpt lat="49.262910" lon="1.269790">
						<ele>26</ele>
						<time>2026-05-01T15:01:09Z</time>
					</trkpt>
					<trkpt lat="49.264310" lon="1.269720">
						<ele>22</ele>
						<time>2026-05-01T15:01:34Z</time>
					</trkpt>
					<trkpt lat="49.264420" lon="1.269730">
						<ele>22</ele>
						<time>2026-05-01T15:01:36Z</time>
					</trkpt>
					<trkpt lat="49.265830" lon="1.269790">
						<ele>20</ele>
						<time>2026-05-01T15:02:01Z</time>
					</trkpt>
					<trkpt lat="49.266890" lon="1.269870">
						<ele>19</ele>
						<time>2026-05-01T15:02:20Z</time>
					</trkpt>
					<trkpt lat="49.267320" lon="1.269950">
						<ele>17</ele>
						<time>2026-05-01T15:02:27Z</time>
					</trkpt>
					<trkpt lat="49.269640" lon="1.270540">
						<ele>22</ele>
						<time>2026-05-01T15:03:09Z</time>
					</trkpt>
					<trkpt lat="49.270570" lon="1.270870">
						<ele>22</ele>
						<time>2026-05-01T15:03:26Z</time>
					</trkpt>
					<trkpt lat="49.271670" lon="1.271010">
						<ele>19</ele>
						<time>2026-05-01T15:03:46Z</time>
					</trkpt>
					<trkpt lat="49.273410" lon="1.271210">
						<ele>19</ele>
						<time>2026-05-01T15:04:17Z</time>
					</trkpt>
					<trkpt lat="49.274000" lon="1.271280">
						<ele>19</ele>
						<time>2026-05-01T15:04:27Z</time>
					</trkpt>
					<trkpt lat="49.275040" lon="1.271410">
						<ele>19</ele>
						<time>2026-05-01T15:04:46Z</time>
					</trkpt>
					<trkpt lat="49.275370" lon="1.271430">
						<ele>21</ele>
						<time>2026-05-01T15:04:52Z</time>
					</trkpt>
					<trkpt lat="49.275680" lon="1.271380">
						<ele>21</ele>
						<time>2026-05-01T15:04:57Z</time>
					</trkpt>
					<trkpt lat="49.276690" lon="1.271110">
						<ele>19</ele>
						<time>2026-05-01T15:05:16Z</time>
					</trkpt>
					<trkpt lat="49.277390" lon="1.271090">
						<ele>20</ele>
						<time>2026-05-01T15:05:28Z</time>
					</trkpt>
					<trkpt lat="49.277960" lon="1.271140">
						<ele>20</ele>
						<time>2026-05-01T15:05:38Z</time>
					</trkpt>
					<trkpt lat="49.278500" lon="1.271130">
						<ele>19</ele>
						<time>2026-05-01T15:05:48Z</time>
					</trkpt>
					<trkpt lat="49.279130" lon="1.271050">
						<ele>20</ele>
						<time>2026-05-01T15:05:59Z</time>
					</trkpt>
					<trkpt lat="49.280230" lon="1.270960">
						<ele>18</ele>
						<time>2026-05-01T15:06:19Z</time>
					</trkpt>
					<trkpt lat="49.280740" lon="1.270900">
						<ele>17</ele>
						<time>2026-05-01T15:06:28Z</time>
					</trkpt>
					<trkpt lat="49.281080" lon="1.270860">
						<ele>18</ele>
						<time>2026-05-01T15:06:34Z</time>
					</trkpt>
					<trkpt lat="49.281290" lon="1.270810">
						<ele>18</ele>
						<time>2026-05-01T15:06:38Z</time>
					</trkpt>
					<trkpt lat="49.281500" lon="1.270770">
						<ele>19</ele>
						<time>2026-05-01T15:06:41Z</time>
					</trkpt>
					<trkpt lat="49.282070" lon="1.270570">
						<ele>20</ele>
						<time>2026-05-01T15:06:52Z</time>
					</trkpt>
					<trkpt lat="49.282870" lon="1.270400">
						<ele>20</ele>
						<time>2026-05-01T15:07:06Z</time>
					</trkpt>
					<trkpt lat="49.283220" lon="1.270360">
						<ele>21</ele>
						<time>2026-05-01T15:07:12Z</time>
					</trkpt>
					<trkpt lat="49.283730" lon="1.270330">
						<ele>21</ele>
						<time>2026-05-01T15:07:21Z</time>
					</trkpt>
					<trkpt lat="49.284820" lon="1.270310">
						<ele>20</ele>
						<time>2026-05-01T15:07:41Z</time>
					</trkpt>
					<trkpt lat="49.285500" lon="1.270310">
						<ele>20</ele>
						<time>2026-05-01T15:07:53Z</time>
					</trkpt>
					<trkpt lat="49.285740" lon="1.270310">
						<ele>20</ele>
						<time>2026-05-01T15:07:57Z</time>
					</trkpt>
					<trkpt lat="49.285980" lon="1.270220">
						<ele>21</ele>
						<time>2026-05-01T15:08:02Z</time>
					</trkpt>
					<trkpt lat="49.286250" lon="1.270000">
						<ele>22</ele>
						<time>2026-05-01T15:08:07Z</time>
					</trkpt>
					<trkpt lat="49.286600" lon="1.269670">
						<ele>21</ele>
						<time>2026-05-01T15:08:14Z</time>
					</trkpt>
					<trkpt lat="49.287490" lon="1.268960">
						<ele>20</ele>
						<time>2026-05-01T15:08:32Z</time>
					</trkpt>
					<trkpt lat="49.288040" lon="1.268710">
						<ele>20</ele>
						<time>2026-05-01T15:08:42Z</time>
					</trkpt>
					<trkpt lat="49.288360" lon="1.268610">
						<ele>19</ele>
						<time>2026-05-01T15:08:48Z</time>
					</trkpt>
					<trkpt lat="49.289530" lon="1.268340">
						<ele>17</ele>
						<time>2026-05-01T15:09:09Z</time>
					</trkpt>
					<trkpt lat="49.289930" lon="1.268180">
						<ele>16</ele>
						<time>2026-05-01T15:09:17Z</time>
					</trkpt>
					<trkpt lat="49.290950" lon="1.267570">
						<ele>16</ele>
						<time>2026-05-01T15:09:36Z</time>
					</trkpt>
					<trkpt lat="49.291250" lon="1.267410">
						<ele>16</ele>
						<time>2026-05-01T15:09:42Z</time>
					</trkpt>
					<trkpt lat="49.291940" lon="1.267230">
						<ele>18</ele>
						<time>2026-05-01T15:09:54Z</time>
					</trkpt>
					<trkpt lat="49.293040" lon="1.267000">
						<ele>19</ele>
						<time>2026-05-01T15:10:14Z</time>
					</trkpt>
					<trkpt lat="49.293690" lon="1.266790">
						<ele>19</ele>
						<time>2026-05-01T15:10:26Z</time>
					</trkpt>
					<trkpt lat="49.293870" lon="1.266710">
						<ele>19</ele>
						<time>2026-05-01T15:10:29Z</time>
					</trkpt>
					<trkpt lat="49.294030" lon="1.266630">
						<ele>18</ele>
						<time>2026-05-01T15:10:32Z</time>
					</trkpt>
					<trkpt lat="49.294330" lon="1.266450">
						<ele>20</ele>
						<time>2026-05-01T15:10:38Z</time>
					</trkpt>
					<trkpt lat="49.295480" lon="1.265680">
						<ele>18</ele>
						<time>2026-05-01T15:11:00Z</time>
					</trkpt>
					<trkpt lat="49.295630" lon="1.265600">
						<ele>18</ele>
						<time>2026-05-01T15:11:03Z</time>
					</trkpt>
					<trkpt lat="49.296050" lon="1.265470">
						<ele>20</ele>
						<time>2026-05-01T15:11:11Z</time>
					</trkpt>
					<trkpt lat="49.296980" lon="1.265250">
						<ele>21</ele>
						<time>2026-05-01T15:11:27Z</time>
					</trkpt>
					<trkpt lat="49.297630" lon="1.265060">
						<ele>18</ele>
						<time>2026-05-01T15:11:39Z</time>
					</trkpt>
					<trkpt lat="49.298220" lon="1.264860">
						<ele>18</ele>
						<time>2026-05-01T15:11:50Z</time>
					</trkpt>
					<trkpt lat="49.298520" lon="1.264650">
						<ele>18</ele>
						<time>2026-05-01T15:11:56Z</time>
					</trkpt>
					<trkpt lat="49.298800" lon="1.264380">
						<ele>18</ele>
						<time>2026-05-01T15:12:02Z</time>
					</trkpt>
					<trkpt lat="49.299350" lon="1.263760">
						<ele>17</ele>
						<time>2026-05-01T15:12:14Z</time>
					</trkpt>
					<trkpt lat="49.299530" lon="1.263580">
						<ele>18</ele>
						<time>2026-05-01T15:12:18Z</time>
					</trkpt>
					<trkpt lat="49.299900" lon="1.263270">
						<ele>18</ele>
						<time>2026-05-01T15:12:25Z</time>
					</trkpt>
					<trkpt lat="49.300380" lon="1.262840">
						<ele>20</ele>
						<time>2026-05-01T15:12:35Z</time>
					</trkpt>
					<trkpt lat="49.300980" lon="1.262190">
						<ele>17</ele>
						<time>2026-05-01T15:12:48Z</time>
					</trkpt>
					<trkpt lat="49.301410" lon="1.261830">
						<ele>17</ele>
						<time>2026-05-01T15:12:57Z</time>
					</trkpt>
					<trkpt lat="49.301680" lon="1.261650">
						<ele>16</ele>
						<time>2026-05-01T15:13:02Z</time>
					</trkpt>
					<trkpt lat="49.302880" lon="1.260910">
						<ele>19</ele>
						<time>2026-05-01T15:13:25Z</time>
					</trkpt>
					<trkpt lat="49.303480" lon="1.260650">
						<ele>22</ele>
						<time>2026-05-01T15:13:36Z</time>
					</trkpt>
					<trkpt lat="49.303940" lon="1.260400">
						<ele>25</ele>
						<time>2026-05-01T15:13:45Z</time>
					</trkpt>
					<trkpt lat="49.304310" lon="1.260140">
						<ele>23</ele>
						<time>2026-05-01T15:13:52Z</time>
					</trkpt>
					<trkpt lat="49.304750" lon="1.259770">
						<ele>22</ele>
						<time>2026-05-01T15:14:01Z</time>
					</trkpt>
					<trkpt lat="49.305030" lon="1.259510">
						<ele>21</ele>
						<time>2026-05-01T15:14:07Z</time>
					</trkpt>
					<trkpt lat="49.305320" lon="1.259200">
						<ele>20</ele>
						<time>2026-05-01T15:14:13Z</time>
					</trkpt>
					<trkpt lat="49.305510" lon="1.259000">
						<ele>21</ele>
						<time>2026-05-01T15:14:17Z</time>
					</trkpt>
					<trkpt lat="49.305580" lon="1.258900">
						<ele>20</ele>
						<time>2026-05-01T15:14:19Z</time>
					</trkpt>
					<trkpt lat="49.305730" lon="1.258700">
						<ele>20</ele>
						<time>2026-05-01T15:14:22Z</time>
					</trkpt>
					<trkpt lat="49.306790" lon="1.257120">
						<ele>24</ele>
						<time>2026-05-01T15:14:49Z</time>
					</trkpt>
					<trkpt lat="49.307890" lon="1.255640">
						<ele>27</ele>
						<time>2026-05-01T15:15:15Z</time>
					</trkpt>
					<trkpt lat="49.308350" lon="1.254930">
						<ele>22</ele>
						<time>2026-05-01T15:15:26Z</time>
					</trkpt>
					<trkpt lat="49.309130" lon="1.253670">
						<ele>24</ele>
						<time>2026-05-01T15:15:47Z</time>
					</trkpt>
					<trkpt lat="49.310230" lon="1.251900">
						<ele>27</ele>
						<time>2026-05-01T15:16:15Z</time>
					</trkpt>
					<trkpt lat="49.310430" lon="1.251530">
						<ele>26</ele>
						<time>2026-05-01T15:16:20Z</time>
					</trkpt>
					<trkpt lat="49.310900" lon="1.250740">
						<ele>20</ele>
						<time>2026-05-01T15:16:33Z</time>
					</trkpt>
					<trkpt lat="49.311060" lon="1.250340">
						<ele>20</ele>
						<time>2026-05-01T15:16:38Z</time>
					</trkpt>
					<trkpt lat="49.311140" lon="1.249690">
						<ele>17</ele>
						<time>2026-05-01T15:16:46Z</time>
					</trkpt>
					<trkpt lat="49.311160" lon="1.249620">
						<ele>17</ele>
						<time>2026-05-01T15:16:47Z</time>
					</trkpt>
					<trkpt lat="49.311360" lon="1.248990">
						<ele>18</ele>
						<time>2026-05-01T15:16:55Z</time>
					</trkpt>
					<trkpt lat="49.311600" lon="1.248270">
						<ele>16</ele>
						<time>2026-05-01T15:17:04Z</time>
					</trkpt>
					<trkpt lat="49.311780" lon="1.247790">
						<ele>18</ele>
						<time>2026-05-01T15:17:11Z</time>
					</trkpt>
					<trkpt lat="49.312080" lon="1.247120">
						<ele>19</ele>
						<time>2026-05-01T15:17:20Z</time>
					</trkpt>
					<trkpt lat="49.312370" lon="1.246570">
						<ele>18</ele>
						<time>2026-05-01T15:17:28Z</time>
					</trkpt>
					<trkpt lat="49.313240" lon="1.244890">
						<ele>19</ele>
						<time>2026-05-01T15:17:53Z</time>
					</trkpt>
					<trkpt lat="49.313490" lon="1.244450">
						<ele>21</ele>
						<time>2026-05-01T15:18:00Z</time>
					</trkpt>
					<trkpt lat="49.313750" lon="1.244070">
						<ele>23</ele>
						<time>2026-05-01T15:18:06Z</time>
					</trkpt>
					<trkpt lat="49.314160" lon="1.243480">
						<ele>23</ele>
						<time>2026-05-01T15:18:16Z</time>
					</trkpt>
					<trkpt lat="49.314390" lon="1.243160">
						<ele>25</ele>
						<time>2026-05-01T15:18:22Z</time>
					</trkpt>
					<trkpt lat="49.313070" lon="1.241110">
						<ele>13</ele>
						<time>2026-05-01T15:18:55Z</time>
					</trkpt>
					<trkpt lat="49.312450" lon="1.240150">
						<ele>8</ele>
						<time>2026-05-01T15:19:11Z</time>
					</trkpt>
					<trkpt lat="49.312460" lon="1.240050">
						<ele>7</ele>
						<time>2026-05-01T15:19:12Z</time>
					</trkpt>
					<trkpt lat="49.312480" lon="1.239740">
						<ele>8</ele>
						<time>2026-05-01T15:19:16Z</time>
					</trkpt>
					<trkpt lat="49.312510" lon="1.239480">
						<ele>8</ele>
						<time>2026-05-01T15:19:19Z</time>
					</trkpt>
					<trkpt lat="49.312670" lon="1.238680">
						<ele>10</ele>
						<time>2026-05-01T15:19:29Z</time>
					</trkpt>
					<trkpt lat="49.312670" lon="1.238660">
						<ele>10</ele>
						<time>2026-05-01T15:19:29Z</time>
					</trkpt>
					<trkpt lat="49.312670" lon="1.238680">
						<ele>10</ele>
						<time>2026-05-01T15:19:29Z</time>
					</trkpt>
					<trkpt lat="49.312510" lon="1.239480">
						<ele>8</ele>
						<time>2026-05-01T15:19:39Z</time>
					</trkpt>
					<trkpt lat="49.312480" lon="1.239740">
						<ele>8</ele>
						<time>2026-05-01T15:19:42Z</time>
					</trkpt>
					<trkpt lat="49.312460" lon="1.240050">
						<ele>7</ele>
						<time>2026-05-01T15:19:45Z</time>
					</trkpt>
					<trkpt lat="49.312450" lon="1.240150">
						<ele>8</ele>
						<time>2026-05-01T15:19:47Z</time>
					</trkpt>
					<trkpt lat="49.313070" lon="1.241110">
						<ele>13</ele>
						<time>2026-05-01T15:20:02Z</time>
					</trkpt>
					<trkpt lat="49.314390" lon="1.243160">
						<ele>25</ele>
						<time>2026-05-01T15:20:36Z</time>
					</trkpt>
					<trkpt lat="49.314160" lon="1.243480">
						<ele>23</ele>
						<time>2026-05-01T15:20:41Z</time>
					</trkpt>
					<trkpt lat="49.313750" lon="1.244070">
						<ele>23</ele>
						<time>2026-05-01T15:20:51Z</time>
					</trkpt>
					<trkpt lat="49.313490" lon="1.244450">
						<ele>21</ele>
						<time>2026-05-01T15:20:58Z</time>
					</trkpt>
					<trkpt lat="49.313240" lon="1.244890">
						<ele>19</ele>
						<time>2026-05-01T15:21:04Z</time>
					</trkpt>
					<trkpt lat="49.312370" lon="1.246570">
						<ele>18</ele>
						<time>2026-05-01T15:21:29Z</time>
					</trkpt>
					<trkpt lat="49.312080" lon="1.247120">
						<ele>19</ele>
						<time>2026-05-01T15:21:38Z</time>
					</trkpt>
					<trkpt lat="49.311780" lon="1.247790">
						<ele>18</ele>
						<time>2026-05-01T15:21:47Z</time>
					</trkpt>
					<trkpt lat="49.311600" lon="1.248270">
						<ele>16</ele>
						<time>2026-05-01T15:21:53Z</time>
					</trkpt>
					<trkpt lat="49.311360" lon="1.248990">
						<ele>18</ele>
						<time>2026-05-01T15:22:03Z</time>
					</trkpt>
					<trkpt lat="49.311160" lon="1.249620">
						<ele>17</ele>
						<time>2026-05-01T15:22:11Z</time>
					</trkpt>
					<trkpt lat="49.311140" lon="1.249690">
						<ele>17</ele>
						<time>2026-05-01T15:22:12Z</time>
					</trkpt>
					<trkpt lat="49.311060" lon="1.250340">
						<ele>20</ele>
						<time>2026-05-01T15:22:19Z</time>
					</trkpt>
					<trkpt lat="49.310900" lon="1.250740">
						<ele>20</ele>
						<time>2026-05-01T15:22:25Z</time>
					</trkpt>
					<trkpt lat="49.310430" lon="1.251530">
						<ele>26</ele>
						<time>2026-05-01T15:22:37Z</time>
					</trkpt>
					<trkpt lat="49.310230" lon="1.251900">
						<ele>27</ele>
						<time>2026-05-01T15:22:43Z</time>
					</trkpt>
					<trkpt lat="49.309130" lon="1.253670">
						<ele>24</ele>
						<time>2026-05-01T15:23:11Z</time>
					</trkpt>
					<trkpt lat="49.308350" lon="1.254930">
						<ele>22</ele>
						<time>2026-05-01T15:23:31Z</time>
					</trkpt>
					<trkpt lat="49.307890" lon="1.255640">
						<ele>27</ele>
						<time>2026-05-01T15:23:43Z</time>
					</trkpt>
					<trkpt lat="49.306790" lon="1.257120">
						<ele>24</ele>
						<time>2026-05-01T15:24:09Z</time>
					</trkpt>
					<trkpt lat="49.305730" lon="1.258700">
						<ele>20</ele>
						<time>2026-05-01T15:24:35Z</time>
					</trkpt>
					<trkpt lat="49.305580" lon="1.258900">
						<ele>20</ele>
						<time>2026-05-01T15:24:39Z</time>
					</trkpt>
					<trkpt lat="49.305510" lon="1.259000">
						<ele>21</ele>
						<time>2026-05-01T15:24:41Z</time>
					</trkpt>
					<trkpt lat="49.305630" lon="1.259300">
						<ele>24</ele>
						<time>2026-05-01T15:24:45Z</time>
					</trkpt>
					<trkpt lat="49.305660" lon="1.259410">
						<ele>26</ele>
						<time>2026-05-01T15:24:46Z</time>
					</trkpt>
					<trkpt lat="49.305740" lon="1.259640">
						<ele>28</ele>
						<time>2026-05-01T15:24:49Z</time>
					</trkpt>
					<trkpt lat="49.305910" lon="1.260180">
						<ele>34</ele>
						<time>2026-05-01T15:24:56Z</time>
					</trkpt>
					<trkpt lat="49.306010" lon="1.260430">
						<ele>39</ele>
						<time>2026-05-01T15:24:59Z</time>
					</trkpt>
					<trkpt lat="49.306060" lon="1.260630">
						<ele>41</ele>
						<time>2026-05-01T15:25:02Z</time>
					</trkpt>
					<trkpt lat="49.306090" lon="1.260830">
						<ele>43</ele>
						<time>2026-05-01T15:25:04Z</time>
					</trkpt>
					<trkpt lat="49.306130" lon="1.261150">
						<ele>47</ele>
						<time>2026-05-01T15:25:08Z</time>
					</trkpt>
					<trkpt lat="49.306140" lon="1.261380">
						<ele>50</ele>
						<time>2026-05-01T15:25:11Z</time>
					</trkpt>
					<trkpt lat="49.306200" lon="1.261690">
						<ele>53</ele>
						<time>2026-05-01T15:25:15Z</time>
					</trkpt>
					<trkpt lat="49.306200" lon="1.261780">
						<ele>55</ele>
						<time>2026-05-01T15:25:16Z</time>
					</trkpt>
					<trkpt lat="49.306190" lon="1.261850">
						<ele>56</ele>
						<time>2026-05-01T15:25:16Z</time>
					</trkpt>
					<trkpt lat="49.306150" lon="1.261880">
						<ele>56</ele>
						<time>2026-05-01T15:25:17Z</time>
					</trkpt>
					<trkpt lat="49.306100" lon="1.261860">
						<ele>56</ele>
						<time>2026-05-01T15:25:18Z</time>
					</trkpt>
					<trkpt lat="49.305900" lon="1.261600">
						<ele>50</ele>
						<time>2026-05-01T15:25:23Z</time>
					</trkpt>
					<trkpt lat="49.305680" lon="1.261350">
						<ele>49</ele>
						<time>2026-05-01T15:25:28Z</time>
					</trkpt>
					<trkpt lat="49.305470" lon="1.261120">
						<ele>48</ele>
						<time>2026-05-01T15:25:32Z</time>
					</trkpt>
					<trkpt lat="49.305270" lon="1.260880">
						<ele>45</ele>
						<time>2026-05-01T15:25:37Z</time>
					</trkpt>
					<trkpt lat="49.305170" lon="1.260790">
						<ele>44</ele>
						<time>2026-05-01T15:25:39Z</time>
					</trkpt>
					<trkpt lat="49.305140" lon="1.260780">
						<ele>44</ele>
						<time>2026-05-01T15:25:39Z</time>
					</trkpt>
					<trkpt lat="49.305120" lon="1.260790">
						<ele>45</ele>
						<time>2026-05-01T15:25:40Z</time>
					</trkpt>
					<trkpt lat="49.305090" lon="1.260810">
						<ele>45</ele>
						<time>2026-05-01T15:25:40Z</time>
					</trkpt>
					<trkpt lat="49.305070" lon="1.260850">
						<ele>47</ele>
						<time>2026-05-01T15:25:41Z</time>
					</trkpt>
					<trkpt lat="49.305060" lon="1.260880">
						<ele>48</ele>
						<time>2026-05-01T15:25:41Z</time>
					</trkpt>
					<trkpt lat="49.305060" lon="1.260900">
						<ele>48</ele>
						<time>2026-05-01T15:25:42Z</time>
					</trkpt>
					<trkpt lat="49.305080" lon="1.260990">
						<ele>51</ele>
						<time>2026-05-01T15:25:43Z</time>
					</trkpt>
					<trkpt lat="49.305160" lon="1.261090">
						<ele>52</ele>
						<time>2026-05-01T15:25:44Z</time>
					</trkpt>
					<trkpt lat="49.305290" lon="1.261230">
						<ele>54</ele>
						<time>2026-05-01T15:25:47Z</time>
					</trkpt>
					<trkpt lat="49.305410" lon="1.261420">
						<ele>56</ele>
						<time>2026-05-01T15:25:50Z</time>
					</trkpt>
					<trkpt lat="49.305560" lon="1.261690">
						<ele>59</ele>
						<time>2026-05-01T15:25:54Z</time>
					</trkpt>
					<trkpt lat="49.305880" lon="1.262410">
						<ele>70</ele>
						<time>2026-05-01T15:26:05Z</time>
					</trkpt>
					<trkpt lat="49.306170" lon="1.263000">
						<ele>77</ele>
						<time>2026-05-01T15:26:13Z</time>
					</trkpt>
					<trkpt lat="49.306280" lon="1.263350">
						<ele>80</ele>
						<time>2026-05-01T15:26:18Z</time>
					</trkpt>
					<trkpt lat="49.306290" lon="1.263480">
						<ele>81</ele>
						<time>2026-05-01T15:26:19Z</time>
					</trkpt>
					<trkpt lat="49.306290" lon="1.263590">
						<ele>82</ele>
						<time>2026-05-01T15:26:20Z</time>
					</trkpt>
					<trkpt lat="49.306280" lon="1.263840">
						<ele>84</ele>
						<time>2026-05-01T15:26:23Z</time>
					</trkpt>
					<trkpt lat="49.306230" lon="1.264150">
						<ele>88</ele>
						<time>2026-05-01T15:26:27Z</time>
					</trkpt>
					<trkpt lat="49.306160" lon="1.264390">
						<ele>90</ele>
						<time>2026-05-01T15:26:30Z</time>
					</trkpt>
					<trkpt lat="49.305880" lon="1.265120">
						<ele>95</ele>
						<time>2026-05-01T15:26:40Z</time>
					</trkpt>
					<trkpt lat="49.305860" lon="1.265140">
						<ele>95</ele>
						<time>2026-05-01T15:26:40Z</time>
					</trkpt>
					<trkpt lat="49.305830" lon="1.265140">
						<ele>95</ele>
						<time>2026-05-01T15:26:41Z</time>
					</trkpt>
					<trkpt lat="49.305790" lon="1.265100">
						<ele>96</ele>
						<time>2026-05-01T15:26:42Z</time>
					</trkpt>
					<trkpt lat="49.305770" lon="1.265060">
						<ele>97</ele>
						<time>2026-05-01T15:26:42Z</time>
					</trkpt>
					<trkpt lat="49.305760" lon="1.264990">
						<ele>97</ele>
						<time>2026-05-01T15:26:43Z</time>
					</trkpt>
					<trkpt lat="49.305840" lon="1.264530">
						<ele>96</ele>
						<time>2026-05-01T15:26:49Z</time>
					</trkpt>
					<trkpt lat="49.305920" lon="1.264130">
						<ele>95</ele>
						<time>2026-05-01T15:26:54Z</time>
					</trkpt>
					<trkpt lat="49.305960" lon="1.263900">
						<ele>93</ele>
						<time>2026-05-01T15:26:56Z</time>
					</trkpt>
					<trkpt lat="49.305960" lon="1.263670">
						<ele>91</ele>
						<time>2026-05-01T15:26:59Z</time>
					</trkpt>
					<trkpt lat="49.305850" lon="1.263440">
						<ele>93</ele>
						<time>2026-05-01T15:27:02Z</time>
					</trkpt>
					<trkpt lat="49.305240" lon="1.262690">
						<ele>97</ele>
						<time>2026-05-01T15:27:16Z</time>
					</trkpt>
					<trkpt lat="49.305050" lon="1.262480">
						<ele>98</ele>
						<time>2026-05-01T15:27:20Z</time>
					</trkpt>
					<trkpt lat="49.304840" lon="1.262380">
						<ele>95</ele>
						<time>2026-05-01T15:27:24Z</time>
					</trkpt>
					<trkpt lat="49.304780" lon="1.262360">
						<ele>94</ele>
						<time>2026-05-01T15:27:25Z</time>
					</trkpt>
					<trkpt lat="49.304650" lon="1.262400">
						<ele>95</ele>
						<time>2026-05-01T15:27:28Z</time>
					</trkpt>
					<trkpt lat="49.304360" lon="1.262520">
						<ele>98</ele>
						<time>2026-05-01T15:27:33Z</time>
					</trkpt>
					<trkpt lat="49.303950" lon="1.262780">
						<ele>103</ele>
						<time>2026-05-01T15:27:41Z</time>
					</trkpt>
					<trkpt lat="49.303580" lon="1.263060">
						<ele>106</ele>
						<time>2026-05-01T15:27:48Z</time>
					</trkpt>
					<trkpt lat="49.303300" lon="1.263360">
						<ele>111</ele>
						<time>2026-05-01T15:27:54Z</time>
					</trkpt>
					<trkpt lat="49.303050" lon="1.263600">
						<ele>112</ele>
						<time>2026-05-01T15:28:00Z</time>
					</trkpt>
					<trkpt lat="49.302930" lon="1.263750">
						<ele>113</ele>
						<time>2026-05-01T15:28:02Z</time>
					</trkpt>
					<trkpt lat="49.302820" lon="1.263960">
						<ele>118</ele>
						<time>2026-05-01T15:28:06Z</time>
					</trkpt>
					<trkpt lat="49.302690" lon="1.264140">
						<ele>121</ele>
						<time>2026-05-01T15:28:09Z</time>
					</trkpt>
					<trkpt lat="49.302560" lon="1.264250">
						<ele>120</ele>
						<time>2026-05-01T15:28:11Z</time>
					</trkpt>
					<trkpt lat="49.302360" lon="1.264330">
						<ele>116</ele>
						<time>2026-05-01T15:28:15Z</time>
					</trkpt>
					<trkpt lat="49.302220" lon="1.264410">
						<ele>113</ele>
						<time>2026-05-01T15:28:18Z</time>
					</trkpt>
					<trkpt lat="49.302130" lon="1.264480">
						<ele>112</ele>
						<time>2026-05-01T15:28:19Z</time>
					</trkpt>
					<trkpt lat="49.302090" lon="1.264550">
						<ele>111</ele>
						<time>2026-05-01T15:28:20Z</time>
					</trkpt>
					<trkpt lat="49.302070" lon="1.264610">
						<ele>111</ele>
						<time>2026-05-01T15:28:21Z</time>
					</trkpt>
					<trkpt lat="49.302070" lon="1.264690">
						<ele>112</ele>
						<time>2026-05-01T15:28:22Z</time>
					</trkpt>
					<trkpt lat="49.302090" lon="1.264770">
						<ele>114</ele>
						<time>2026-05-01T15:28:23Z</time>
					</trkpt>
					<trkpt lat="49.302270" lon="1.265150">
						<ele>123</ele>
						<time>2026-05-01T15:28:29Z</time>
					</trkpt>
					<trkpt lat="49.302350" lon="1.265320">
						<ele>124</ele>
						<time>2026-05-01T15:28:31Z</time>
					</trkpt>
					<trkpt lat="49.302820" lon="1.266410">
						<ele>130</ele>
						<time>2026-05-01T15:28:46Z</time>
					</trkpt>
					<trkpt lat="49.302930" lon="1.266840">
						<ele>131</ele>
						<time>2026-05-01T15:28:52Z</time>
					</trkpt>
					<trkpt lat="49.302980" lon="1.267170">
						<ele>132</ele>
						<time>2026-05-01T15:28:56Z</time>
					</trkpt>
					<trkpt lat="49.303020" lon="1.267820">
						<ele>131</ele>
						<time>2026-05-01T15:29:03Z</time>
					</trkpt>
					<trkpt lat="49.303020" lon="1.267930">
						<ele>131</ele>
						<time>2026-05-01T15:29:04Z</time>
					</trkpt>
					<trkpt lat="49.303000" lon="1.268210">
						<ele>130</ele>
						<time>2026-05-01T15:29:08Z</time>
					</trkpt>
					<trkpt lat="49.303010" lon="1.268440">
						<ele>130</ele>
						<time>2026-05-01T15:29:10Z</time>
					</trkpt>
					<trkpt lat="49.303030" lon="1.268520">
						<ele>131</ele>
						<time>2026-05-01T15:29:11Z</time>
					</trkpt>
					<trkpt lat="49.303060" lon="1.268590">
						<ele>133</ele>
						<time>2026-05-01T15:29:12Z</time>
					</trkpt>
					<trkpt lat="49.303100" lon="1.268600">
						<ele>134</ele>
						<time>2026-05-01T15:29:13Z</time>
					</trkpt>
					<trkpt lat="49.303360" lon="1.268480">
						<ele>141</ele>
						<time>2026-05-01T15:29:18Z</time>
					</trkpt>
					<trkpt lat="49.303450" lon="1.268460">
						<ele>141</ele>
						<time>2026-05-01T15:29:19Z</time>
					</trkpt>
					<trkpt lat="49.303490" lon="1.268470">
						<ele>141</ele>
						<time>2026-05-01T15:29:20Z</time>
					</trkpt>
					<trkpt lat="49.303530" lon="1.268480">
						<ele>141</ele>
						<time>2026-05-01T15:29:21Z</time>
					</trkpt>
					<trkpt lat="49.303600" lon="1.268590">
						<ele>141</ele>
						<time>2026-05-01T15:29:23Z</time>
					</trkpt>
					<trkpt lat="49.303710" lon="1.268890">
						<ele>141</ele>
						<time>2026-05-01T15:29:27Z</time>
					</trkpt>
					<trkpt lat="49.303770" lon="1.269030">
						<ele>141</ele>
						<time>2026-05-01T15:29:29Z</time>
					</trkpt>
					<trkpt lat="49.303970" lon="1.269300">
						<ele>142</ele>
						<time>2026-05-01T15:29:33Z</time>
					</trkpt>
					<trkpt lat="49.303980" lon="1.269350">
						<ele>142</ele>
						<time>2026-05-01T15:29:34Z</time>
					</trkpt>
					<trkpt lat="49.303960" lon="1.269430">
						<ele>142</ele>
						<time>2026-05-01T15:29:35Z</time>
					</trkpt>
					<trkpt lat="49.303910" lon="1.269550">
						<ele>142</ele>
						<time>2026-05-01T15:29:37Z</time>
					</trkpt>
					<trkpt lat="49.303830" lon="1.269660">
						<ele>142</ele>
						<time>2026-05-01T15:29:39Z</time>
					</trkpt>
					<trkpt lat="49.303790" lon="1.269830">
						<ele>143</ele>
						<time>2026-05-01T15:29:41Z</time>
					</trkpt>
					<trkpt lat="49.303770" lon="1.270000">
						<ele>143</ele>
						<time>2026-05-01T15:29:43Z</time>
					</trkpt>
					<trkpt lat="49.303760" lon="1.271130">
						<ele>142</ele>
						<time>2026-05-01T15:29:56Z</time>
					</trkpt>
					<trkpt lat="49.303730" lon="1.271690">
						<ele>142</ele>
						<time>2026-05-01T15:30:02Z</time>
					</trkpt>
					<trkpt lat="49.303660" lon="1.272060">
						<ele>143</ele>
						<time>2026-05-01T15:30:07Z</time>
					</trkpt>
					<trkpt lat="49.303640" lon="1.272160">
						<ele>143</ele>
						<time>2026-05-01T15:30:08Z</time>
					</trkpt>
					<trkpt lat="49.303560" lon="1.272370">
						<ele>144</ele>
						<time>2026-05-01T15:30:11Z</time>
					</trkpt>
					<trkpt lat="49.303430" lon="1.272640">
						<ele>144</ele>
						<time>2026-05-01T15:30:15Z</time>
					</trkpt>
					<trkpt lat="49.303410" lon="1.272760">
						<ele>144</ele>
						<time>2026-05-01T15:30:16Z</time>
					</trkpt>
					<trkpt lat="49.303410" lon="1.272930">
						<ele>144</ele>
						<time>2026-05-01T15:30:18Z</time>
					</trkpt>
					<trkpt lat="49.303430" lon="1.273060">
						<ele>143</ele>
						<time>2026-05-01T15:30:20Z</time>
					</trkpt>
					<trkpt lat="49.303570" lon="1.273520">
						<ele>143</ele>
						<time>2026-05-01T15:30:26Z</time>
					</trkpt>
					<trkpt lat="49.303900" lon="1.274090">
						<ele>144</ele>
						<time>2026-05-01T15:30:34Z</time>
					</trkpt>
					<trkpt lat="49.304520" lon="1.275160">
						<ele>147</ele>
						<time>2026-05-01T15:30:51Z</time>
					</trkpt>
					<trkpt lat="49.304610" lon="1.275310">
						<ele>147</ele>
						<time>2026-05-01T15:30:53Z</time>
					</trkpt>
					<trkpt lat="49.304720" lon="1.275650">
						<ele>148</ele>
						<time>2026-05-01T15:30:58Z</time>
					</trkpt>
					<trkpt lat="49.304920" lon="1.276790">
						<ele>150</ele>
						<time>2026-05-01T15:31:11Z</time>
					</trkpt>
					<trkpt lat="49.304970" lon="1.277200">
						<ele>151</ele>
						<time>2026-05-01T15:31:16Z</time>
					</trkpt>
					<trkpt lat="49.305430" lon="1.279940">
						<ele>151</ele>
						<time>2026-05-01T15:31:49Z</time>
					</trkpt>
					<trkpt lat="49.305810" lon="1.282210">
						<ele>147</ele>
						<time>2026-05-01T15:32:16Z</time>
					</trkpt>
					<trkpt lat="49.306130" lon="1.284090">
						<ele>146</ele>
						<time>2026-05-01T15:32:39Z</time>
					</trkpt>
					<trkpt lat="49.306160" lon="1.284390">
						<ele>146</ele>
						<time>2026-05-01T15:32:42Z</time>
					</trkpt>
					<trkpt lat="49.306160" lon="1.284630">
						<ele>146</ele>
						<time>2026-05-01T15:32:45Z</time>
					</trkpt>
					<trkpt lat="49.306070" lon="1.285130">
						<ele>146</ele>
						<time>2026-05-01T15:32:51Z</time>
					</trkpt>
					<trkpt lat="49.305630" lon="1.287180">
						<ele>145</ele>
						<time>2026-05-01T15:33:16Z</time>
					</trkpt>
					<trkpt lat="49.305460" lon="1.288250">
						<ele>144</ele>
						<time>2026-05-01T15:33:29Z</time>
					</trkpt>
					<trkpt lat="49.305270" lon="1.289630">
						<ele>144</ele>
						<time>2026-05-01T15:33:45Z</time>
					</trkpt>
					<trkpt lat="49.305040" lon="1.290950">
						<ele>146</ele>
						<time>2026-05-01T15:34:01Z</time>
					</trkpt>
					<trkpt lat="49.304810" lon="1.292420">
						<ele>146</ele>
						<time>2026-05-01T15:34:19Z</time>
					</trkpt>
					<trkpt lat="49.304740" lon="1.293040">
						<ele>146</ele>
						<time>2026-05-01T15:34:26Z</time>
					</trkpt>
					<trkpt lat="49.304450" lon="1.294430">
						<ele>146</ele>
						<time>2026-05-01T15:34:43Z</time>
					</trkpt>
					<trkpt lat="49.304420" lon="1.294890">
						<ele>146</ele>
						<time>2026-05-01T15:34:48Z</time>
					</trkpt>
					<trkpt lat="49.304400" lon="1.295380">
						<ele>146</ele>
						<time>2026-05-01T15:34:54Z</time>
					</trkpt>
					<trkpt lat="49.304390" lon="1.296510">
						<ele>148</ele>
						<time>2026-05-01T15:35:07Z</time>
					</trkpt>
					<trkpt lat="49.304320" lon="1.298340">
						<ele>151</ele>
						<time>2026-05-01T15:35:28Z</time>
					</trkpt>
					<trkpt lat="49.304240" lon="1.299530">
						<ele>151</ele>
						<time>2026-05-01T15:35:42Z</time>
					</trkpt>
					<trkpt lat="49.304200" lon="1.300600">
						<ele>152</ele>
						<time>2026-05-01T15:35:55Z</time>
					</trkpt>
					<trkpt lat="49.304220" lon="1.301640">
						<ele>153</ele>
						<time>2026-05-01T15:36:07Z</time>
					</trkpt>
					<trkpt lat="49.304270" lon="1.303740">
						<ele>154</ele>
						<time>2026-05-01T15:36:31Z</time>
					</trkpt>
					<trkpt lat="49.304260" lon="1.304550">
						<ele>154</ele>
						<time>2026-05-01T15:36:41Z</time>
					</trkpt>
					<trkpt lat="49.304200" lon="1.305710">
						<ele>153</ele>
						<time>2026-05-01T15:36:54Z</time>
					</trkpt>
					<trkpt lat="49.304130" lon="1.306600">
						<ele>152</ele>
						<time>2026-05-01T15:37:04Z</time>
					</trkpt>
					<trkpt lat="49.303880" lon="1.309370">
						<ele>149</ele>
						<time>2026-05-01T15:37:37Z</time>
					</trkpt>
					<trkpt lat="49.303500" lon="1.312610">
						<ele>145</ele>
						<time>2026-05-01T15:38:15Z</time>
					</trkpt>
					<trkpt lat="49.303440" lon="1.313470">
						<ele>145</ele>
						<time>2026-05-01T15:38:25Z</time>
					</trkpt>
					<trkpt lat="49.303410" lon="1.314380">
						<ele>144</ele>
						<time>2026-05-01T15:38:36Z</time>
					</trkpt>
					<trkpt lat="49.303440" lon="1.314830">
						<ele>144</ele>
						<time>2026-05-01T15:38:41Z</time>
					</trkpt>
					<trkpt lat="49.303560" lon="1.315800">
						<ele>143</ele>
						<time>2026-05-01T15:38:52Z</time>
					</trkpt>
					<trkpt lat="49.303630" lon="1.316300">
						<ele>142</ele>
						<time>2026-05-01T15:38:58Z</time>
					</trkpt>
					<trkpt lat="49.303660" lon="1.316840">
						<ele>141</ele>
						<time>2026-05-01T15:39:05Z</time>
					</trkpt>
					<trkpt lat="49.303670" lon="1.317210">
						<ele>141</ele>
						<time>2026-05-01T15:39:09Z</time>
					</trkpt>
					<trkpt lat="49.303660" lon="1.317700">
						<ele>140</ele>
						<time>2026-05-01T15:39:15Z</time>
					</trkpt>
					<trkpt lat="49.303600" lon="1.318210">
						<ele>140</ele>
						<time>2026-05-01T15:39:21Z</time>
					</trkpt>
					<trkpt lat="49.303420" lon="1.319430">
						<ele>141</ele>
						<time>2026-05-01T15:39:35Z</time>
					</trkpt>
					<trkpt lat="49.303350" lon="1.319960">
						<ele>142</ele>
						<time>2026-05-01T15:39:41Z</time>
					</trkpt>
					<trkpt lat="49.303350" lon="1.320260">
						<ele>142</ele>
						<time>2026-05-01T15:39:45Z</time>
					</trkpt>
					<trkpt lat="49.303360" lon="1.320530">
						<ele>143</ele>
						<time>2026-05-01T15:39:48Z</time>
					</trkpt>
					<trkpt lat="49.303380" lon="1.320810">
						<ele>143</ele>
						<time>2026-05-01T15:39:51Z</time>
					</trkpt>
					<trkpt lat="49.303500" lon="1.321430">
						<ele>144</ele>
						<time>2026-05-01T15:39:59Z</time>
					</trkpt>
					<trkpt lat="49.303530" lon="1.321580">
						<ele>144</ele>
						<time>2026-05-01T15:40:01Z</time>
					</trkpt>
					<trkpt lat="49.303570" lon="1.321600">
						<ele>144</ele>
						<time>2026-05-01T15:40:01Z</time>
					</trkpt>
					<trkpt lat="49.303540" lon="1.321760">
						<ele>144</ele>
						<time>2026-05-01T15:40:03Z</time>
					</trkpt>
					<trkpt lat="49.303240" lon="1.324000">
						<ele>145</ele>
						<time>2026-05-01T15:40:30Z</time>
					</trkpt>
					<trkpt lat="49.303180" lon="1.324320">
						<ele>145</ele>
						<time>2026-05-01T15:40:34Z</time>
					</trkpt>
					<trkpt lat="49.303160" lon="1.324440">
						<ele>145</ele>
						<time>2026-05-01T15:40:35Z</time>
					</trkpt>
					<trkpt lat="49.303150" lon="1.324500">
						<ele>145</ele>
						<time>2026-05-01T15:40:36Z</time>
					</trkpt>
					<trkpt lat="49.301770" lon="1.333720">
						<ele>150</ele>
						<time>2026-05-01T15:42:26Z</time>
					</trkpt>
					<trkpt lat="49.300500" lon="1.342110">
						<ele>147</ele>
						<time>2026-05-01T15:44:06Z</time>
					</trkpt>
					<trkpt lat="49.300250" lon="1.343850">
						<ele>149</ele>
						<time>2026-05-01T15:44:26Z</time>
					</trkpt>
					<trkpt lat="49.299650" lon="1.347940">
						<ele>151</ele>
						<time>2026-05-01T15:45:15Z</time>
					</trkpt>
					<trkpt lat="49.299360" lon="1.349910">
						<ele>152</ele>
						<time>2026-05-01T15:45:38Z</time>
					</trkpt>
					<trkpt lat="49.299300" lon="1.350350">
						<ele>153</ele>
						<time>2026-05-01T15:45:43Z</time>
					</trkpt>
					<trkpt lat="49.299060" lon="1.351790">
						<ele>154</ele>
						<time>2026-05-01T15:46:01Z</time>
					</trkpt>
					<trkpt lat="49.299060" lon="1.352150">
						<ele>154</ele>
						<time>2026-05-01T15:46:05Z</time>
					</trkpt>
					<trkpt lat="49.299030" lon="1.352170">
						<ele>154</ele>
						<time>2026-05-01T15:46:05Z</time>
					</trkpt>
					<trkpt lat="49.299030" lon="1.352210">
						<ele>154</ele>
						<time>2026-05-01T15:46:06Z</time>
					</trkpt>
					<trkpt lat="49.299040" lon="1.352250">
						<ele>153</ele>
						<time>2026-05-01T15:46:06Z</time>
					</trkpt>
					<trkpt lat="49.299070" lon="1.352250">
						<ele>153</ele>
						<time>2026-05-01T15:46:07Z</time>
					</trkpt>
					<trkpt lat="49.299130" lon="1.352490">
						<ele>153</ele>
						<time>2026-05-01T15:46:10Z</time>
					</trkpt>
					<trkpt lat="49.299540" lon="1.353360">
						<ele>155</ele>
						<time>2026-05-01T15:46:22Z</time>
					</trkpt>
					<trkpt lat="49.300500" lon="1.355440">
						<ele>155</ele>
						<time>2026-05-01T15:46:52Z</time>
					</trkpt>
					<trkpt lat="49.300690" lon="1.355850">
						<ele>155</ele>
						<time>2026-05-01T15:46:58Z</time>
					</trkpt>
					<trkpt lat="49.300810" lon="1.356210">
						<ele>155</ele>
						<time>2026-05-01T15:47:03Z</time>
					</trkpt>
					<trkpt lat="49.300870" lon="1.356420">
						<ele>156</ele>
						<time>2026-05-01T15:47:05Z</time>
					</trkpt>
					<trkpt lat="49.301350" lon="1.358330">
						<ele>156</ele>
						<time>2026-05-01T15:47:29Z</time>
					</trkpt>
					<trkpt lat="49.301630" lon="1.359430">
						<ele>156</ele>
						<time>2026-05-01T15:47:43Z</time>
					</trkpt>
					<trkpt lat="49.301690" lon="1.359680">
						<ele>156</ele>
						<time>2026-05-01T15:47:46Z</time>
					</trkpt>
					<trkpt lat="49.301950" lon="1.360210">
						<ele>155</ele>
						<time>2026-05-01T15:47:53Z</time>
					</trkpt>
					<trkpt lat="49.302120" lon="1.360490">
						<ele>155</ele>
						<time>2026-05-01T15:47:58Z</time>
					</trkpt>
					<trkpt lat="49.304410" lon="1.363790">
						<ele>151</ele>
						<time>2026-05-01T15:48:54Z</time>
					</trkpt>
					<trkpt lat="49.305680" lon="1.365620">
						<ele>152</ele>
						<time>2026-05-01T15:49:25Z</time>
					</trkpt>
					<trkpt lat="49.306600" lon="1.366910">
						<ele>152</ele>
						<time>2026-05-01T15:49:47Z</time>
					</trkpt>
					<trkpt lat="49.306880" lon="1.367180">
						<ele>151</ele>
						<time>2026-05-01T15:49:53Z</time>
					</trkpt>
					<trkpt lat="49.307660" lon="1.367890">
						<ele>150</ele>
						<time>2026-05-01T15:50:09Z</time>
					</trkpt>
					<trkpt lat="49.307700" lon="1.367910">
						<ele>150</ele>
						<time>2026-05-01T15:50:10Z</time>
					</trkpt>
					<trkpt lat="49.307860" lon="1.368030">
						<ele>150</ele>
						<time>2026-05-01T15:50:13Z</time>
					</trkpt>
					<trkpt lat="49.308390" lon="1.368330">
						<ele>149</ele>
						<time>2026-05-01T15:50:23Z</time>
					</trkpt>
					<trkpt lat="49.308830" lon="1.368560">
						<ele>150</ele>
						<time>2026-05-01T15:50:31Z</time>
					</trkpt>
					<trkpt lat="49.310470" lon="1.369440">
						<ele>150</ele>
						<time>2026-05-01T15:51:02Z</time>
					</trkpt>
					<trkpt lat="49.310620" lon="1.369480">
						<ele>149</ele>
						<time>2026-05-01T15:51:05Z</time>
					</trkpt>
					<trkpt lat="49.310740" lon="1.369480">
						<ele>149</ele>
						<time>2026-05-01T15:51:07Z</time>
					</trkpt>
					<trkpt lat="49.310860" lon="1.369420">
						<ele>149</ele>
						<time>2026-05-01T15:51:09Z</time>
					</trkpt>
					<trkpt lat="49.311260" lon="1.369200">
						<ele>148</ele>
						<time>2026-05-01T15:51:17Z</time>
					</trkpt>
					<trkpt lat="49.311370" lon="1.369180">
						<ele>148</ele>
						<time>2026-05-01T15:51:19Z</time>
					</trkpt>
					<trkpt lat="49.311470" lon="1.369190">
						<ele>148</ele>
						<time>2026-05-01T15:51:21Z</time>
					</trkpt>
					<trkpt lat="49.311550" lon="1.369310">
						<ele>148</ele>
						<time>2026-05-01T15:51:23Z</time>
					</trkpt>
					<trkpt lat="49.311800" lon="1.370290">
						<ele>147</ele>
						<time>2026-05-01T15:51:35Z</time>
					</trkpt>
					<trkpt lat="49.311840" lon="1.370380">
						<ele>147</ele>
						<time>2026-05-01T15:51:36Z</time>
					</trkpt>
					<trkpt lat="49.311870" lon="1.370450">
						<ele>147</ele>
						<time>2026-05-01T15:51:37Z</time>
					</trkpt>
					<trkpt lat="49.312580" lon="1.370990">
						<ele>147</ele>
						<time>2026-05-01T15:51:51Z</time>
					</trkpt>
					<trkpt lat="49.312700" lon="1.371000">
						<ele>147</ele>
						<time>2026-05-01T15:51:53Z</time>
					</trkpt>
					<trkpt lat="49.312810" lon="1.371000">
						<ele>147</ele>
						<time>2026-05-01T15:51:55Z</time>
					</trkpt>
					<trkpt lat="49.312870" lon="1.371040">
						<ele>147</ele>
						<time>2026-05-01T15:51:56Z</time>
					</trkpt>
					<trkpt lat="49.312910" lon="1.371160">
						<ele>147</ele>
						<time>2026-05-01T15:51:58Z</time>
					</trkpt>
					<trkpt lat="49.312850" lon="1.371700">
						<ele>146</ele>
						<time>2026-05-01T15:52:04Z</time>
					</trkpt>
					<trkpt lat="49.313010" lon="1.372380">
						<ele>147</ele>
						<time>2026-05-01T15:52:13Z</time>
					</trkpt>
					<trkpt lat="49.313080" lon="1.372820">
						<ele>148</ele>
						<time>2026-05-01T15:52:18Z</time>
					</trkpt>
					<trkpt lat="49.313080" lon="1.373400">
						<ele>150</ele>
						<time>2026-05-01T15:52:25Z</time>
					</trkpt>
					<trkpt lat="49.313070" lon="1.373540">
						<ele>150</ele>
						<time>2026-05-01T15:52:26Z</time>
					</trkpt>
					<trkpt lat="49.313050" lon="1.373660">
						<ele>150</ele>
						<time>2026-05-01T15:52:28Z</time>
					</trkpt>
					<trkpt lat="49.313020" lon="1.373780">
						<ele>150</ele>
						<time>2026-05-01T15:52:29Z</time>
					</trkpt>
					<trkpt lat="49.312990" lon="1.373860">
						<ele>150</ele>
						<time>2026-05-01T15:52:30Z</time>
					</trkpt>
					<trkpt lat="49.312930" lon="1.373980">
						<ele>150</ele>
						<time>2026-05-01T15:52:32Z</time>
					</trkpt>
					<trkpt lat="49.312770" lon="1.374220">
						<ele>151</ele>
						<time>2026-05-01T15:52:36Z</time>
					</trkpt>
					<trkpt lat="49.312710" lon="1.374330">
						<ele>151</ele>
						<time>2026-05-01T15:52:38Z</time>
					</trkpt>
					<trkpt lat="49.312680" lon="1.374420">
						<ele>151</ele>
						<time>2026-05-01T15:52:39Z</time>
					</trkpt>
					<trkpt lat="49.312660" lon="1.374510">
						<ele>151</ele>
						<time>2026-05-01T15:52:40Z</time>
					</trkpt>
					<trkpt lat="49.312640" lon="1.374630">
						<ele>151</ele>
						<time>2026-05-01T15:52:41Z</time>
					</trkpt>
					<trkpt lat="49.312640" lon="1.374750">
						<ele>151</ele>
						<time>2026-05-01T15:52:43Z</time>
					</trkpt>
					<trkpt lat="49.312660" lon="1.374940">
						<ele>152</ele>
						<time>2026-05-01T15:52:45Z</time>
					</trkpt>
					<trkpt lat="49.312690" lon="1.375190">
						<ele>151</ele>
						<time>2026-05-01T15:52:48Z</time>
					</trkpt>
					<trkpt lat="49.312730" lon="1.375360">
						<ele>151</ele>
						<time>2026-05-01T15:52:50Z</time>
					</trkpt>
					<trkpt lat="49.312870" lon="1.375880">
						<ele>151</ele>
						<time>2026-05-01T15:52:57Z</time>
					</trkpt>
					<trkpt lat="49.312930" lon="1.376040">
						<ele>151</ele>
						<time>2026-05-01T15:52:59Z</time>
					</trkpt>
					<trkpt lat="49.313280" lon="1.376760">
						<ele>151</ele>
						<time>2026-05-01T15:53:09Z</time>
					</trkpt>
					<trkpt lat="49.315500" lon="1.381110">
						<ele>148</ele>
						<time>2026-05-01T15:54:13Z</time>
					</trkpt>
					<trkpt lat="49.318100" lon="1.386200">
						<ele>138</ele>
						<time>2026-05-01T15:55:28Z</time>
					</trkpt>
					<trkpt lat="49.318380" lon="1.386710">
						<ele>137</ele>
						<time>2026-05-01T15:55:36Z</time>
					</trkpt>
					<trkpt lat="49.318720" lon="1.387240">
						<ele>137</ele>
						<time>2026-05-01T15:55:45Z</time>
					</trkpt>
					<trkpt lat="49.318880" lon="1.387460">
						<ele>137</ele>
						<time>2026-05-01T15:55:48Z</time>
					</trkpt>
					<trkpt lat="49.319250" lon="1.387930">
						<ele>137</ele>
						<time>2026-05-01T15:55:57Z</time>
					</trkpt>
					<trkpt lat="49.319710" lon="1.388430">
						<ele>139</ele>
						<time>2026-05-01T15:56:07Z</time>
					</trkpt>
					<trkpt lat="49.320410" lon="1.389040">
						<ele>140</ele>
						<time>2026-05-01T15:56:21Z</time>
					</trkpt>
					<trkpt lat="49.320840" lon="1.389380">
						<ele>141</ele>
						<time>2026-05-01T15:56:30Z</time>
					</trkpt>
					<trkpt lat="49.320890" lon="1.389430">
						<ele>141</ele>
						<time>2026-05-01T15:56:31Z</time>
					</trkpt>
					<trkpt lat="49.320910" lon="1.389480">
						<ele>140</ele>
						<time>2026-05-01T15:56:32Z</time>
					</trkpt>
					<trkpt lat="49.321000" lon="1.389430">
						<ele>141</ele>
						<time>2026-05-01T15:56:33Z</time>
					</trkpt>
					<trkpt lat="49.321050" lon="1.389530">
						<ele>140</ele>
						<time>2026-05-01T15:56:35Z</time>
					</trkpt>
					<trkpt lat="49.321110" lon="1.389600">
						<ele>140</ele>
						<time>2026-05-01T15:56:36Z</time>
					</trkpt>
					<trkpt lat="49.324930" lon="1.392710">
						<ele>147</ele>
						<time>2026-05-01T15:57:53Z</time>
					</trkpt>
					<trkpt lat="49.325180" lon="1.392920">
						<ele>148</ele>
						<time>2026-05-01T15:57:58Z</time>
					</trkpt>
					<trkpt lat="49.325350" lon="1.393080">
						<ele>148</ele>
						<time>2026-05-01T15:58:02Z</time>
					</trkpt>
					<trkpt lat="49.325560" lon="1.393300">
						<ele>149</ele>
						<time>2026-05-01T15:58:06Z</time>
					</trkpt>
					<trkpt lat="49.325740" lon="1.393510">
						<ele>149</ele>
						<time>2026-05-01T15:58:10Z</time>
					</trkpt>
					<trkpt lat="49.325980" lon="1.393800">
						<ele>150</ele>
						<time>2026-05-01T15:58:16Z</time>
					</trkpt>
					<trkpt lat="49.326760" lon="1.394820">
						<ele>152</ele>
						<time>2026-05-01T15:58:34Z</time>
					</trkpt>
					<trkpt lat="49.326990" lon="1.395150">
						<ele>151</ele>
						<time>2026-05-01T15:58:40Z</time>
					</trkpt>
					<trkpt lat="49.327320" lon="1.395710">
						<ele>149</ele>
						<time>2026-05-01T15:58:48Z</time>
					</trkpt>
					<trkpt lat="49.328320" lon="1.397360">
						<ele>146</ele>
						<time>2026-05-01T15:59:14Z</time>
					</trkpt>
					<trkpt lat="49.328810" lon="1.396470">
						<ele>147</ele>
						<time>2026-05-01T15:59:28Z</time>
					</trkpt>
					<trkpt lat="49.331620" lon="1.399230">
						<ele>136</ele>
						<time>2026-05-01T16:00:27Z</time>
					</trkpt>
					<trkpt lat="49.334220" lon="1.401850">
						<ele>132</ele>
						<time>2026-05-01T16:01:23Z</time>
					</trkpt>
					<trkpt lat="49.335880" lon="1.403500">
						<ele>126</ele>
						<time>2026-05-01T16:01:58Z</time>
					</trkpt>
					<trkpt lat="49.336430" lon="1.403940">
						<ele>125</ele>
						<time>2026-05-01T16:02:09Z</time>
					</trkpt>
					<trkpt lat="49.336950" lon="1.404080">
						<ele>125</ele>
						<time>2026-05-01T16:02:18Z</time>
					</trkpt>
					<trkpt lat="49.338690" lon="1.404210">
						<ele>127</ele>
						<time>2026-05-01T16:02:49Z</time>
					</trkpt>
					<trkpt lat="49.339030" lon="1.404300">
						<ele>129</ele>
						<time>2026-05-01T16:02:55Z</time>
					</trkpt>
					<trkpt lat="49.339670" lon="1.404690">
						<ele>130</ele>
						<time>2026-05-01T16:03:08Z</time>
					</trkpt>
					<trkpt lat="49.340270" lon="1.405030">
						<ele>130</ele>
						<time>2026-05-01T16:03:19Z</time>
					</trkpt>
					<trkpt lat="49.340440" lon="1.405100">
						<ele>130</ele>
						<time>2026-05-01T16:03:22Z</time>
					</trkpt>
					<trkpt lat="49.340520" lon="1.405120">
						<ele>130</ele>
						<time>2026-05-01T16:03:24Z</time>
					</trkpt>
					<trkpt lat="49.341480" lon="1.405140">
						<ele>130</ele>
						<time>2026-05-01T16:03:41Z</time>
					</trkpt>
					<trkpt lat="49.341620" lon="1.405150">
						<ele>130</ele>
						<time>2026-05-01T16:03:43Z</time>
					</trkpt>
					<trkpt lat="49.341870" lon="1.405200">
						<ele>130</ele>
						<time>2026-05-01T16:03:48Z</time>
					</trkpt>
					<trkpt lat="49.342070" lon="1.405290">
						<ele>130</ele>
						<time>2026-05-01T16:03:51Z</time>
					</trkpt>
					<trkpt lat="49.342140" lon="1.405340">
						<ele>130</ele>
						<time>2026-05-01T16:03:53Z</time>
					</trkpt>
					<trkpt lat="49.342220" lon="1.405410">
						<ele>130</ele>
						<time>2026-05-01T16:03:54Z</time>
					</trkpt>
					<trkpt lat="49.342310" lon="1.405510">
						<ele>130</ele>
						<time>2026-05-01T16:03:56Z</time>
					</trkpt>
					<trkpt lat="49.342500" lon="1.405750">
						<ele>131</ele>
						<time>2026-05-01T16:04:01Z</time>
					</trkpt>
					<trkpt lat="49.342570" lon="1.405810">
						<ele>131</ele>
						<time>2026-05-01T16:04:02Z</time>
					</trkpt>
					<trkpt lat="49.342650" lon="1.405850">
						<ele>131</ele>
						<time>2026-05-01T16:04:04Z</time>
					</trkpt>
					<trkpt lat="49.343190" lon="1.406000">
						<ele>130</ele>
						<time>2026-05-01T16:04:13Z</time>
					</trkpt>
					<trkpt lat="49.343610" lon="1.406140">
						<ele>129</ele>
						<time>2026-05-01T16:04:21Z</time>
					</trkpt>
					<trkpt lat="49.344130" lon="1.406350">
						<ele>128</ele>
						<time>2026-05-01T16:04:31Z</time>
					</trkpt>
					<trkpt lat="49.344430" lon="1.406470">
						<ele>127</ele>
						<time>2026-05-01T16:04:36Z</time>
					</trkpt>
					<trkpt lat="49.344720" lon="1.406570">
						<ele>127</ele>
						<time>2026-05-01T16:04:41Z</time>
					</trkpt>
					<trkpt lat="49.345020" lon="1.406670">
						<ele>127</ele>
						<time>2026-05-01T16:04:47Z</time>
					</trkpt>
					<trkpt lat="49.345210" lon="1.406740">
						<ele>127</ele>
						<time>2026-05-01T16:04:50Z</time>
					</trkpt>
					<trkpt lat="49.345570" lon="1.406940">
						<ele>126</ele>
						<time>2026-05-01T16:04:57Z</time>
					</trkpt>
					<trkpt lat="49.346500" lon="1.407360">
						<ele>124</ele>
						<time>2026-05-01T16:05:14Z</time>
					</trkpt>
					<trkpt lat="49.346760" lon="1.407460">
						<ele>124</ele>
						<time>2026-05-01T16:05:19Z</time>
					</trkpt>
					<trkpt lat="49.346930" lon="1.407500">
						<ele>124</ele>
						<time>2026-05-01T16:05:22Z</time>
					</trkpt>
					<trkpt lat="49.347040" lon="1.407510">
						<ele>124</ele>
						<time>2026-05-01T16:05:24Z</time>
					</trkpt>
					<trkpt lat="49.347550" lon="1.407490">
						<ele>123</ele>
						<time>2026-05-01T16:05:33Z</time>
					</trkpt>
					<trkpt lat="49.347620" lon="1.407500">
						<ele>123</ele>
						<time>2026-05-01T16:05:35Z</time>
					</trkpt>
					<trkpt lat="49.347860" lon="1.407570">
						<ele>122</ele>
						<time>2026-05-01T16:05:39Z</time>
					</trkpt>
					<trkpt lat="49.348080" lon="1.407730">
						<ele>121</ele>
						<time>2026-05-01T16:05:43Z</time>
					</trkpt>
					<trkpt lat="49.348200" lon="1.407860">
						<ele>120</ele>
						<time>2026-05-01T16:05:46Z</time>
					</trkpt>
					<trkpt lat="49.348320" lon="1.408010">
						<ele>120</ele>
						<time>2026-05-01T16:05:49Z</time>
					</trkpt>
					<trkpt lat="49.348610" lon="1.408400">
						<ele>119</ele>
						<time>2026-05-01T16:05:55Z</time>
					</trkpt>
					<trkpt lat="49.350260" lon="1.410580">
						<ele>114</ele>
						<time>2026-05-01T16:06:34Z</time>
					</trkpt>
					<trkpt lat="49.350730" lon="1.411330">
						<ele>112</ele>
						<time>2026-05-01T16:06:46Z</time>
					</trkpt>
					<trkpt lat="49.351650" lon="1.413050">
						<ele>106</ele>
						<time>2026-05-01T16:07:12Z</time>
					</trkpt>
					<trkpt lat="49.352020" lon="1.413380">
						<ele>105</ele>
						<time>2026-05-01T16:07:20Z</time>
					</trkpt>
					<trkpt lat="49.353080" lon="1.414060">
						<ele>101</ele>
						<time>2026-05-01T16:07:40Z</time>
					</trkpt>
					<trkpt lat="49.354190" lon="1.414500">
						<ele>94</ele>
						<time>2026-05-01T16:08:00Z</time>
					</trkpt>
					<trkpt lat="49.354590" lon="1.414850">
						<ele>88</ele>
						<time>2026-05-01T16:08:09Z</time>
					</trkpt>
					<trkpt lat="49.355570" lon="1.415940">
						<ele>75</ele>
						<time>2026-05-01T16:08:30Z</time>
					</trkpt>
					<trkpt lat="49.356210" lon="1.416600">
						<ele>67</ele>
						<time>2026-05-01T16:08:44Z</time>
					</trkpt>
					<trkpt lat="49.356330" lon="1.416720">
						<ele>65</ele>
						<time>2026-05-01T16:08:46Z</time>
					</trkpt>
					<trkpt lat="49.357260" lon="1.417580">
						<ele>58</ele>
						<time>2026-05-01T16:09:06Z</time>
					</trkpt>
					<trkpt lat="49.357380" lon="1.417700">
						<ele>57</ele>
						<time>2026-05-01T16:09:08Z</time>
					</trkpt>
					<trkpt lat="49.357590" lon="1.417820">
						<ele>56</ele>
						<time>2026-05-01T16:09:12Z</time>
					</trkpt>
					<trkpt lat="49.357990" lon="1.417920">
						<ele>54</ele>
						<time>2026-05-01T16:09:20Z</time>
					</trkpt>
					<trkpt lat="49.358500" lon="1.418040">
						<ele>52</ele>
						<time>2026-05-01T16:09:29Z</time>
					</trkpt>
					<trkpt lat="49.358950" lon="1.418160">
						<ele>50</ele>
						<time>2026-05-01T16:09:37Z</time>
					</trkpt>
					<trkpt lat="49.359110" lon="1.418230">
						<ele>49</ele>
						<time>2026-05-01T16:09:40Z</time>
					</trkpt>
					<trkpt lat="49.359540" lon="1.418540">
						<ele>48</ele>
						<time>2026-05-01T16:09:48Z</time>
					</trkpt>
					<trkpt lat="49.359670" lon="1.418570">
						<ele>48</ele>
						<time>2026-05-01T16:09:51Z</time>
					</trkpt>
					<trkpt lat="49.359710" lon="1.418560">
						<ele>48</ele>
						<time>2026-05-01T16:09:51Z</time>
					</trkpt>
					<trkpt lat="49.359780" lon="1.419070">
						<ele>47</ele>
						<time>2026-05-01T16:09:57Z</time>
					</trkpt>
					<trkpt lat="49.359870" lon="1.419710">
						<ele>47</ele>
						<time>2026-05-01T16:10:05Z</time>
					</trkpt>
					<trkpt lat="49.359900" lon="1.419890">
						<ele>47</ele>
						<time>2026-05-01T16:10:07Z</time>
					</trkpt>
					<trkpt lat="49.359960" lon="1.420290">
						<ele>48</ele>
						<time>2026-05-01T16:10:12Z</time>
					</trkpt>
					<trkpt lat="49.360800" lon="1.425730">
						<ele>54</ele>
						<time>2026-05-01T16:11:17Z</time>
					</trkpt>
					<trkpt lat="49.360940" lon="1.426670">
						<ele>60</ele>
						<time>2026-05-01T16:11:28Z</time>
					</trkpt>
					<trkpt lat="49.361030" lon="1.427020">
						<ele>62</ele>
						<time>2026-05-01T16:11:32Z</time>
					</trkpt>
					<trkpt lat="49.361150" lon="1.427370">
						<ele>62</ele>
						<time>2026-05-01T16:11:37Z</time>
					</trkpt>
					<trkpt lat="49.361320" lon="1.427660">
						<ele>61</ele>
						<time>2026-05-01T16:11:41Z</time>
					</trkpt>
					<trkpt lat="49.363500" lon="1.431250">
						<ele>58</ele>
						<time>2026-05-01T16:12:38Z</time>
					</trkpt>
					<trkpt lat="49.364220" lon="1.432400">
						<ele>60</ele>
						<time>2026-05-01T16:12:57Z</time>
					</trkpt>
					<trkpt lat="49.365630" lon="1.434690">
						<ele>62</ele>
						<time>2026-05-01T16:13:33Z</time>
					</trkpt>
					<trkpt lat="49.365810" lon="1.434920">
						<ele>62</ele>
						<time>2026-05-01T16:13:37Z</time>
					</trkpt>
					<trkpt lat="49.366020" lon="1.435140">
						<ele>62</ele>
						<time>2026-05-01T16:13:42Z</time>
					</trkpt>
					<trkpt lat="49.366330" lon="1.435380">
						<ele>60</ele>
						<time>2026-05-01T16:13:48Z</time>
					</trkpt>
					<trkpt lat="49.367940" lon="1.436280">
						<ele>60</ele>
						<time>2026-05-01T16:14:19Z</time>
					</trkpt>
					<trkpt lat="49.368630" lon="1.436670">
						<ele>61</ele>
						<time>2026-05-01T16:14:32Z</time>
					</trkpt>
					<trkpt lat="49.369990" lon="1.437470">
						<ele>63</ele>
						<time>2026-05-01T16:14:58Z</time>
					</trkpt>
					<trkpt lat="49.370170" lon="1.437580">
						<ele>63</ele>
						<time>2026-05-01T16:15:01Z</time>
					</trkpt>
					<trkpt lat="49.370430" lon="1.437830">
						<ele>63</ele>
						<time>2026-05-01T16:15:06Z</time>
					</trkpt>
					<trkpt lat="49.370610" lon="1.438050">
						<ele>63</ele>
						<time>2026-05-01T16:15:11Z</time>
					</trkpt>
					<trkpt lat="49.371130" lon="1.438860">
						<ele>66</ele>
						<time>2026-05-01T16:15:24Z</time>
					</trkpt>
					<trkpt lat="49.371430" lon="1.439290">
						<ele>68</ele>
						<time>2026-05-01T16:15:31Z</time>
					</trkpt>
					<trkpt lat="49.371800" lon="1.439760">
						<ele>70</ele>
						<time>2026-05-01T16:15:40Z</time>
					</trkpt>
					<trkpt lat="49.373090" lon="1.441210">
						<ele>74</ele>
						<time>2026-05-01T16:16:08Z</time>
					</trkpt>
					<trkpt lat="49.373230" lon="1.441370">
						<ele>74</ele>
						<time>2026-05-01T16:16:11Z</time>
					</trkpt>
					<trkpt lat="49.373640" lon="1.441760">
						<ele>76</ele>
						<time>2026-05-01T16:16:20Z</time>
					</trkpt>
					<trkpt lat="49.373910" lon="1.441940">
						<ele>78</ele>
						<time>2026-05-01T16:16:25Z</time>
					</trkpt>
					<trkpt lat="49.374090" lon="1.442030">
						<ele>79</ele>
						<time>2026-05-01T16:16:28Z</time>
					</trkpt>
					<trkpt lat="49.374290" lon="1.442080">
						<ele>79</ele>
						<time>2026-05-01T16:16:32Z</time>
					</trkpt>
					<trkpt lat="49.375790" lon="1.442070">
						<ele>74</ele>
						<time>2026-05-01T16:16:59Z</time>
					</trkpt>
					<trkpt lat="49.375940" lon="1.442080">
						<ele>74</ele>
						<time>2026-05-01T16:17:01Z</time>
					</trkpt>
					<trkpt lat="49.376150" lon="1.442150">
						<ele>73</ele>
						<time>2026-05-01T16:17:05Z</time>
					</trkpt>
					<trkpt lat="49.376280" lon="1.442240">
						<ele>73</ele>
						<time>2026-05-01T16:17:08Z</time>
					</trkpt>
					<trkpt lat="49.376570" lon="1.442520">
						<ele>73</ele>
						<time>2026-05-01T16:17:14Z</time>
					</trkpt>
					<trkpt lat="49.377920" lon="1.444110">
						<ele>66</ele>
						<time>2026-05-01T16:17:44Z</time>
					</trkpt>
					<trkpt lat="49.378190" lon="1.444420">
						<ele>66</ele>
						<time>2026-05-01T16:17:50Z</time>
					</trkpt>
					<trkpt lat="49.378720" lon="1.444990">
						<ele>67</ele>
						<time>2026-05-01T16:18:01Z</time>
					</trkpt>
					<trkpt lat="49.378880" lon="1.445130">
						<ele>68</ele>
						<time>2026-05-01T16:18:05Z</time>
					</trkpt>
					<trkpt lat="49.379220" lon="1.445290">
						<ele>68</ele>
						<time>2026-05-01T16:18:11Z</time>
					</trkpt>
					<trkpt lat="49.379740" lon="1.445440">
						<ele>69</ele>
						<time>2026-05-01T16:18:20Z</time>
					</trkpt>
					<trkpt lat="49.380900" lon="1.445800">
						<ele>73</ele>
						<time>2026-05-01T16:18:42Z</time>
					</trkpt>
					<trkpt lat="49.381230" lon="1.445910">
						<ele>74</ele>
						<time>2026-05-01T16:18:48Z</time>
					</trkpt>
					<trkpt lat="49.381640" lon="1.446010">
						<ele>77</ele>
						<time>2026-05-01T16:18:55Z</time>
					</trkpt>
					<trkpt lat="49.381950" lon="1.446120">
						<ele>77</ele>
						<time>2026-05-01T16:19:01Z</time>
					</trkpt>
					<trkpt lat="49.382060" lon="1.446170">
						<ele>77</ele>
						<time>2026-05-01T16:19:03Z</time>
					</trkpt>
					<trkpt lat="49.382200" lon="1.446240">
						<ele>77</ele>
						<time>2026-05-01T16:19:05Z</time>
					</trkpt>
					<trkpt lat="49.382650" lon="1.446450">
						<ele>78</ele>
						<time>2026-05-01T16:19:14Z</time>
					</trkpt>
					<trkpt lat="49.385750" lon="1.448020">
						<ele>76</ele>
						<time>2026-05-01T16:20:12Z</time>
					</trkpt>
					<trkpt lat="49.388380" lon="1.449390">
						<ele>75</ele>
						<time>2026-05-01T16:21:01Z</time>
					</trkpt>
					<trkpt lat="49.388700" lon="1.449600">
						<ele>77</ele>
						<time>2026-05-01T16:21:07Z</time>
					</trkpt>
					<trkpt lat="49.388970" lon="1.449820">
						<ele>78</ele>
						<time>2026-05-01T16:21:13Z</time>
					</trkpt>
					<trkpt lat="49.389340" lon="1.450170">
						<ele>79</ele>
						<time>2026-05-01T16:21:20Z</time>
					</trkpt>
					<trkpt lat="49.389510" lon="1.450370">
						<ele>79</ele>
						<time>2026-05-01T16:21:24Z</time>
					</trkpt>
					<trkpt lat="49.389760" lon="1.450720">
						<ele>80</ele>
						<time>2026-05-01T16:21:30Z</time>
					</trkpt>
					<trkpt lat="49.389960" lon="1.451090">
						<ele>79</ele>
						<time>2026-05-01T16:21:36Z</time>
					</trkpt>
					<trkpt lat="49.389990" lon="1.451130">
						<ele>79</ele>
						<time>2026-05-01T16:21:37Z</time>
					</trkpt>
					<trkpt lat="49.390260" lon="1.451670">
						<ele>77</ele>
						<time>2026-05-01T16:21:44Z</time>
					</trkpt>
					<trkpt lat="49.390490" lon="1.452330">
						<ele>77</ele>
						<time>2026-05-01T16:21:53Z</time>
					</trkpt>
					<trkpt lat="49.390800" lon="1.453420">
						<ele>79</ele>
						<time>2026-05-01T16:22:07Z</time>
					</trkpt>
					<trkpt lat="49.392950" lon="1.460960">
						<ele>89</ele>
						<time>2026-05-01T16:23:42Z</time>
					</trkpt>
					<trkpt lat="49.393410" lon="1.462590">
						<ele>84</ele>
						<time>2026-05-01T16:24:03Z</time>
					</trkpt>
					<trkpt lat="49.393590" lon="1.463190">
						<ele>84</ele>
						<time>2026-05-01T16:24:10Z</time>
					</trkpt>
					<trkpt lat="49.393770" lon="1.463620">
						<ele>83</ele>
						<time>2026-05-01T16:24:16Z</time>
					</trkpt>
					<trkpt lat="49.393960" lon="1.463980">
						<ele>82</ele>
						<time>2026-05-01T16:24:22Z</time>
					</trkpt>
					<trkpt lat="49.394220" lon="1.464370">
						<ele>81</ele>
						<time>2026-05-01T16:24:28Z</time>
					</trkpt>
					<trkpt lat="49.395610" lon="1.465680">
						<ele>82</ele>
						<time>2026-05-01T16:24:57Z</time>
					</trkpt>
					<trkpt lat="49.396530" lon="1.466550">
						<ele>83</ele>
						<time>2026-05-01T16:25:16Z</time>
					</trkpt>
					<trkpt lat="49.396940" lon="1.466780">
						<ele>82</ele>
						<time>2026-05-01T16:25:24Z</time>
					</trkpt>
					<trkpt lat="49.397460" lon="1.467050">
						<ele>81</ele>
						<time>2026-05-01T16:25:34Z</time>
					</trkpt>
					<trkpt lat="49.397680" lon="1.467120">
						<ele>81</ele>
						<time>2026-05-01T16:25:38Z</time>
					</trkpt>
					<trkpt lat="49.398000" lon="1.467130">
						<ele>82</ele>
						<time>2026-05-01T16:25:44Z</time>
					</trkpt>
					<trkpt lat="49.398060" lon="1.467140">
						<ele>82</ele>
						<time>2026-05-01T16:25:45Z</time>
					</trkpt>
					<trkpt lat="49.398100" lon="1.467180">
						<ele>82</ele>
						<time>2026-05-01T16:25:46Z</time>
					</trkpt>
					<trkpt lat="49.398190" lon="1.467490">
						<ele>82</ele>
						<time>2026-05-01T16:25:50Z</time>
					</trkpt>
					<trkpt lat="49.398200" lon="1.467590">
						<ele>82</ele>
						<time>2026-05-01T16:25:51Z</time>
					</trkpt>
					<trkpt lat="49.398130" lon="1.468220">
						<ele>84</ele>
						<time>2026-05-01T16:25:58Z</time>
					</trkpt>
					<trkpt lat="49.398140" lon="1.468430">
						<ele>84</ele>
						<time>2026-05-01T16:26:01Z</time>
					</trkpt>
					<trkpt lat="49.398170" lon="1.468950">
						<ele>84</ele>
						<time>2026-05-01T16:26:07Z</time>
					</trkpt>
					<trkpt lat="49.398310" lon="1.469760">
						<ele>85</ele>
						<time>2026-05-01T16:26:16Z</time>
					</trkpt>
					<trkpt lat="49.398390" lon="1.470110">
						<ele>86</ele>
						<time>2026-05-01T16:26:21Z</time>
					</trkpt>
					<trkpt lat="49.398700" lon="1.471060">
						<ele>91</ele>
						<time>2026-05-01T16:26:33Z</time>
					</trkpt>
					<trkpt lat="49.398880" lon="1.471510">
						<ele>92</ele>
						<time>2026-05-01T16:26:39Z</time>
					</trkpt>
					<trkpt lat="49.398940" lon="1.471720">
						<ele>92</ele>
						<time>2026-05-01T16:26:42Z</time>
					</trkpt>
					<trkpt lat="49.398960" lon="1.471930">
						<ele>92</ele>
						<time>2026-05-01T16:26:44Z</time>
					</trkpt>
					<trkpt lat="49.398940" lon="1.472350">
						<ele>93</ele>
						<time>2026-05-01T16:26:49Z</time>
					</trkpt>
					<trkpt lat="49.398920" lon="1.472860">
						<ele>94</ele>
						<time>2026-05-01T16:26:55Z</time>
					</trkpt>
					<trkpt lat="49.398930" lon="1.473350">
						<ele>94</ele>
						<time>2026-05-01T16:27:01Z</time>
					</trkpt>
					<trkpt lat="49.398960" lon="1.473740">
						<ele>96</ele>
						<time>2026-05-01T16:27:05Z</time>
					</trkpt>
					<trkpt lat="49.399000" lon="1.473890">
						<ele>97</ele>
						<time>2026-05-01T16:27:07Z</time>
					</trkpt>
					<trkpt lat="49.399070" lon="1.474050">
						<ele>97</ele>
						<time>2026-05-01T16:27:09Z</time>
					</trkpt>
					<trkpt lat="49.399250" lon="1.474230">
						<ele>97</ele>
						<time>2026-05-01T16:27:13Z</time>
					</trkpt>
					<trkpt lat="49.399670" lon="1.475000">
						<ele>96</ele>
						<time>2026-05-01T16:27:25Z</time>
					</trkpt>
					<trkpt lat="49.400130" lon="1.475420">
						<ele>94</ele>
						<time>2026-05-01T16:27:34Z</time>
					</trkpt>
					<trkpt lat="49.400280" lon="1.475570">
						<ele>94</ele>
						<time>2026-05-01T16:27:37Z</time>
					</trkpt>
					<trkpt lat="49.400610" lon="1.475930">
						<ele>93</ele>
						<time>2026-05-01T16:27:45Z</time>
					</trkpt>
					<trkpt lat="49.400990" lon="1.476330">
						<ele>92</ele>
						<time>2026-05-01T16:27:53Z</time>
					</trkpt>
					<trkpt lat="49.401100" lon="1.476510">
						<ele>92</ele>
						<time>2026-05-01T16:27:56Z</time>
					</trkpt>
					<trkpt lat="49.401300" lon="1.477070">
						<ele>91</ele>
						<time>2026-05-01T16:28:03Z</time>
					</trkpt>
					<trkpt lat="49.401400" lon="1.477390">
						<ele>90</ele>
						<time>2026-05-01T16:28:07Z</time>
					</trkpt>
					<trkpt lat="49.401560" lon="1.478060">
						<ele>89</ele>
						<time>2026-05-01T16:28:15Z</time>
					</trkpt>
					<trkpt lat="49.401650" lon="1.478360">
						<ele>89</ele>
						<time>2026-05-01T16:28:19Z</time>
					</trkpt>
					<trkpt lat="49.401720" lon="1.478440">
						<ele>89</ele>
						<time>2026-05-01T16:28:21Z</time>
					</trkpt>
					<trkpt lat="49.401840" lon="1.478480">
						<ele>89</ele>
						<time>2026-05-01T16:28:23Z</time>
					</trkpt>
					<trkpt lat="49.402480" lon="1.478180">
						<ele>88</ele>
						<time>2026-05-01T16:28:35Z</time>
					</trkpt>
					<trkpt lat="49.402580" lon="1.478130">
						<ele>89</ele>
						<time>2026-05-01T16:28:37Z</time>
					</trkpt>
					<trkpt lat="49.403110" lon="1.477870">
						<ele>93</ele>
						<time>2026-05-01T16:28:47Z</time>
					</trkpt>
					<trkpt lat="49.403220" lon="1.477850">
						<ele>93</ele>
						<time>2026-05-01T16:28:49Z</time>
					</trkpt>
					<trkpt lat="49.403270" lon="1.477890">
						<ele>94</ele>
						<time>2026-05-01T16:28:50Z</time>
					</trkpt>
					<trkpt lat="49.403340" lon="1.477910">
						<ele>94</ele>
						<time>2026-05-01T16:28:51Z</time>
					</trkpt>
					<trkpt lat="49.403430" lon="1.477960">
						<ele>96</ele>
						<time>2026-05-01T16:28:53Z</time>
					</trkpt>
					<trkpt lat="49.403480" lon="1.478040">
						<ele>97</ele>
						<time>2026-05-01T16:28:54Z</time>
					</trkpt>
					<trkpt lat="49.403550" lon="1.478180">
						<ele>98</ele>
						<time>2026-05-01T16:28:56Z</time>
					</trkpt>
					<trkpt lat="49.403630" lon="1.478560">
						<ele>99</ele>
						<time>2026-05-01T16:29:01Z</time>
					</trkpt>
					<trkpt lat="49.403660" lon="1.478610">
						<ele>99</ele>
						<time>2026-05-01T16:29:01Z</time>
					</trkpt>
					<trkpt lat="49.403920" lon="1.480000">
						<ele>97</ele>
						<time>2026-05-01T16:29:18Z</time>
					</trkpt>
					<trkpt lat="49.404240" lon="1.481680">
						<ele>101</ele>
						<time>2026-05-01T16:29:38Z</time>
					</trkpt>
					<trkpt lat="49.404290" lon="1.481830">
						<ele>100</ele>
						<time>2026-05-01T16:29:40Z</time>
					</trkpt>
					<trkpt lat="49.404410" lon="1.482290">
						<ele>98</ele>
						<time>2026-05-01T16:29:46Z</time>
					</trkpt>
					<trkpt lat="49.404490" lon="1.482500">
						<ele>97</ele>
						<time>2026-05-01T16:29:49Z</time>
					</trkpt>
					<trkpt lat="49.404560" lon="1.482700">
						<ele>96</ele>
						<time>2026-05-01T16:29:52Z</time>
					</trkpt>
					<trkpt lat="49.404680" lon="1.482890">
						<ele>95</ele>
						<time>2026-05-01T16:29:55Z</time>
					</trkpt>
					<trkpt lat="49.404780" lon="1.483020">
						<ele>94</ele>
						<time>2026-05-01T16:29:57Z</time>
					</trkpt>
					<trkpt lat="49.404900" lon="1.483130">
						<ele>94</ele>
						<time>2026-05-01T16:29:59Z</time>
					</trkpt>
					<trkpt lat="49.405000" lon="1.483160">
						<ele>94</ele>
						<time>2026-05-01T16:30:01Z</time>
					</trkpt>
					<trkpt lat="49.405110" lon="1.483190">
						<ele>95</ele>
						<time>2026-05-01T16:30:03Z</time>
					</trkpt>
					<trkpt lat="49.405210" lon="1.483170">
						<ele>95</ele>
						<time>2026-05-01T16:30:05Z</time>
					</trkpt>
					<trkpt lat="49.406440" lon="1.482870">
						<ele>105</ele>
						<time>2026-05-01T16:30:27Z</time>
					</trkpt>
					<trkpt lat="49.406770" lon="1.482720">
						<ele>108</ele>
						<time>2026-05-01T16:30:33Z</time>
					</trkpt>
					<trkpt lat="49.407040" lon="1.482480">
						<ele>111</ele>
						<time>2026-05-01T16:30:39Z</time>
					</trkpt>
					<trkpt lat="49.407230" lon="1.482180">
						<ele>113</ele>
						<time>2026-05-01T16:30:44Z</time>
					</trkpt>
					<trkpt lat="49.408110" lon="1.481070">
						<ele>126</ele>
						<time>2026-05-01T16:31:04Z</time>
					</trkpt>
					<trkpt lat="49.408300" lon="1.480450">
						<ele>129</ele>
						<time>2026-05-01T16:31:12Z</time>
					</trkpt>
					<trkpt lat="49.408300" lon="1.479920">
						<ele>128</ele>
						<time>2026-05-01T16:31:18Z</time>
					</trkpt>
					<trkpt lat="49.408380" lon="1.479510">
						<ele>126</ele>
						<time>2026-05-01T16:31:23Z</time>
					</trkpt>
					<trkpt lat="49.408580" lon="1.479200">
						<ele>127</ele>
						<time>2026-05-01T16:31:28Z</time>
					</trkpt>
					<trkpt lat="49.408970" lon="1.478890">
						<ele>130</ele>
						<time>2026-05-01T16:31:36Z</time>
					</trkpt>
					<trkpt lat="49.409290" lon="1.478740">
						<ele>132</ele>
						<time>2026-05-01T16:31:42Z</time>
					</trkpt>
					<trkpt lat="49.409870" lon="1.478470">
						<ele>135</ele>
						<time>2026-05-01T16:31:53Z</time>
					</trkpt>
					<trkpt lat="49.410560" lon="1.478450">
						<ele>141</ele>
						<time>2026-05-01T16:32:05Z</time>
					</trkpt>
					<trkpt lat="49.411060" lon="1.478480">
						<ele>145</ele>
						<time>2026-05-01T16:32:14Z</time>
					</trkpt>
					<trkpt lat="49.412350" lon="1.478550">
						<ele>149</ele>
						<time>2026-05-01T16:32:37Z</time>
					</trkpt>
					<trkpt lat="49.413250" lon="1.478590">
						<ele>154</ele>
						<time>2026-05-01T16:32:53Z</time>
					</trkpt>
					<trkpt lat="49.416070" lon="1.479310">
						<ele>151</ele>
						<time>2026-05-01T16:33:44Z</time>
					</trkpt>
					<trkpt lat="49.416850" lon="1.479490">
						<ele>152</ele>
						<time>2026-05-01T16:33:58Z</time>
					</trkpt>
					<trkpt lat="49.417200" lon="1.479540">
						<ele>153</ele>
						<time>2026-05-01T16:34:04Z</time>
					</trkpt>
					<trkpt lat="49.417530" lon="1.479510">
						<ele>153</ele>
						<time>2026-05-01T16:34:10Z</time>
					</trkpt>
					<trkpt lat="49.419820" lon="1.479080">
						<ele>155</ele>
						<time>2026-05-01T16:34:51Z</time>
					</trkpt>
					<trkpt lat="49.420290" lon="1.479000">
						<ele>156</ele>
						<time>2026-05-01T16:34:59Z</time>
					</trkpt>
					<trkpt lat="49.420840" lon="1.479060">
						<ele>156</ele>
						<time>2026-05-01T16:35:09Z</time>
					</trkpt>
					<trkpt lat="49.422310" lon="1.479400">
						<ele>157</ele>
						<time>2026-05-01T16:35:35Z</time>
					</trkpt>
					<trkpt lat="49.422740" lon="1.479450">
						<ele>158</ele>
						<time>2026-05-01T16:35:43Z</time>
					</trkpt>
					<trkpt lat="49.423200" lon="1.479260">
						<ele>159</ele>
						<time>2026-05-01T16:35:52Z</time>
					</trkpt>
					<trkpt lat="49.425060" lon="1.478470">
						<ele>161</ele>
						<time>2026-05-01T16:36:26Z</time>
					</trkpt>
					<trkpt lat="49.425260" lon="1.478440">
						<ele>161</ele>
						<time>2026-05-01T16:36:30Z</time>
					</trkpt>
					<trkpt lat="49.425380" lon="1.478460">
						<ele>161</ele>
						<time>2026-05-01T16:36:32Z</time>
					</trkpt>
					<trkpt lat="49.425590" lon="1.478560">
						<ele>160</ele>
						<time>2026-05-01T16:36:36Z</time>
					</trkpt>
					<trkpt lat="49.426020" lon="1.478820">
						<ele>161</ele>
						<time>2026-05-01T16:36:44Z</time>
					</trkpt>
					<trkpt lat="49.426640" lon="1.479230">
						<ele>162</ele>
						<time>2026-05-01T16:36:56Z</time>
					</trkpt>
					<trkpt lat="49.426680" lon="1.479200">
						<ele>162</ele>
						<time>2026-05-01T16:36:57Z</time>
					</trkpt>
					<trkpt lat="49.427140" lon="1.479290">
						<ele>161</ele>
						<time>2026-05-01T16:37:05Z</time>
					</trkpt>
					<trkpt lat="49.427740" lon="1.479410">
						<ele>160</ele>
						<time>2026-05-01T16:37:16Z</time>
					</trkpt>
					<trkpt lat="49.429320" lon="1.479770">
						<ele>159</ele>
						<time>2026-05-01T16:37:44Z</time>
					</trkpt>
					<trkpt lat="49.429560" lon="1.479770">
						<ele>160</ele>
						<time>2026-05-01T16:37:48Z</time>
					</trkpt>
					<trkpt lat="49.430310" lon="1.479630">
						<ele>160</ele>
						<time>2026-05-01T16:38:02Z</time>
					</trkpt>
					<trkpt lat="49.430540" lon="1.479580">
						<ele>160</ele>
						<time>2026-05-01T16:38:06Z</time>
					</trkpt>
					<trkpt lat="49.430760" lon="1.479580">
						<ele>160</ele>
						<time>2026-05-01T16:38:10Z</time>
					</trkpt>
					<trkpt lat="49.431020" lon="1.479650">
						<ele>160</ele>
						<time>2026-05-01T16:38:15Z</time>
					</trkpt>
					<trkpt lat="49.431520" lon="1.479960">
						<ele>160</ele>
						<time>2026-05-01T16:38:24Z</time>
					</trkpt>
					<trkpt lat="49.431740" lon="1.480050">
						<ele>160</ele>
						<time>2026-05-01T16:38:28Z</time>
					</trkpt>
					<trkpt lat="49.432150" lon="1.480050">
						<ele>161</ele>
						<time>2026-05-01T16:38:35Z</time>
					</trkpt>
					<trkpt lat="49.432430" lon="1.480010">
						<ele>161</ele>
						<time>2026-05-01T16:38:40Z</time>
					</trkpt>
					<trkpt lat="49.433660" lon="1.480390">
						<ele>160</ele>
						<time>2026-05-01T16:39:03Z</time>
					</trkpt>
					<trkpt lat="49.435410" lon="1.480400">
						<ele>159</ele>
						<time>2026-05-01T16:39:34Z</time>
					</trkpt>
					<trkpt lat="49.435960" lon="1.480360">
						<ele>158</ele>
						<time>2026-05-01T16:39:44Z</time>
					</trkpt>
					<trkpt lat="49.436460" lon="1.480240">
						<ele>158</ele>
						<time>2026-05-01T16:39:53Z</time>
					</trkpt>
					<trkpt lat="49.436880" lon="1.480260">
						<ele>158</ele>
						<time>2026-05-01T16:40:00Z</time>
					</trkpt>
					<trkpt lat="49.437290" lon="1.480370">
						<ele>158</ele>
						<time>2026-05-01T16:40:08Z</time>
					</trkpt>
					<trkpt lat="49.437820" lon="1.480430">
						<ele>159</ele>
						<time>2026-05-01T16:40:17Z</time>
					</trkpt>
					<trkpt lat="49.440180" lon="1.480420">
						<ele>163</ele>
						<time>2026-05-01T16:40:59Z</time>
					</trkpt>
					<trkpt lat="49.441360" lon="1.480420">
						<ele>161</ele>
						<time>2026-05-01T16:41:20Z</time>
					</trkpt>
					<trkpt lat="49.441580" lon="1.480380">
						<ele>161</ele>
						<time>2026-05-01T16:41:24Z</time>
					</trkpt>
					<trkpt lat="49.441690" lon="1.478470">
						<ele>160</ele>
						<time>2026-05-01T16:41:46Z</time>
					</trkpt>
					<trkpt lat="49.444530" lon="1.477270">
						<ele>162</ele>
						<time>2026-05-01T16:42:39Z</time>
					</trkpt>
					<trkpt lat="49.445950" lon="1.476860">
						<ele>170</ele>
						<time>2026-05-01T16:43:04Z</time>
					</trkpt>
					<trkpt lat="49.446320" lon="1.476720">
						<ele>169</ele>
						<time>2026-05-01T16:43:11Z</time>
					</trkpt>
					<trkpt lat="49.446760" lon="1.476680">
						<ele>166</ele>
						<time>2026-05-01T16:43:19Z</time>
					</trkpt>
					<trkpt lat="49.447300" lon="1.476630">
						<ele>164</ele>
						<time>2026-05-01T16:43:29Z</time>
					</trkpt>
					<trkpt lat="49.447690" lon="1.476620">
						<ele>164</ele>
						<time>2026-05-01T16:43:35Z</time>
					</trkpt>
					<trkpt lat="49.448260" lon="1.476690">
						<ele>167</ele>
						<time>2026-05-01T16:43:46Z</time>
					</trkpt>
					<trkpt lat="49.448570" lon="1.476710">
						<ele>168</ele>
						<time>2026-05-01T16:43:51Z</time>
					</trkpt>
					<trkpt lat="49.449800" lon="1.476650">
						<ele>168</ele>
						<time>2026-05-01T16:44:13Z</time>
					</trkpt>
					<trkpt lat="49.451340" lon="1.476220">
						<ele>163</ele>
						<time>2026-05-01T16:44:41Z</time>
					</trkpt>
					<trkpt lat="49.451460" lon="1.476210">
						<ele>163</ele>
						<time>2026-05-01T16:44:43Z</time>
					</trkpt>
					<trkpt lat="49.453400" lon="1.476060">
						<ele>166</ele>
						<time>2026-05-01T16:45:18Z</time>
					</trkpt>
					<trkpt lat="49.456140" lon="1.475920">
						<ele>167</ele>
						<time>2026-05-01T16:46:06Z</time>
					</trkpt>
					<trkpt lat="49.456630" lon="1.475850">
						<ele>167</ele>
						<time>2026-05-01T16:46:15Z</time>
					</trkpt>
					<trkpt lat="49.457590" lon="1.475500">
						<ele>178</ele>
						<time>2026-05-01T16:46:33Z</time>
					</trkpt>
					<trkpt lat="49.459050" lon="1.474960">
						<ele>183</ele>
						<time>2026-05-01T16:46:59Z</time>
					</trkpt>
					<trkpt lat="49.459810" lon="1.474690">
						<ele>187</ele>
						<time>2026-05-01T16:47:13Z</time>
					</trkpt>
					<trkpt lat="49.459930" lon="1.474650">
						<ele>187</ele>
						<time>2026-05-01T16:47:15Z</time>
					</trkpt>
					<trkpt lat="49.460290" lon="1.474680">
						<ele>187</ele>
						<time>2026-05-01T16:47:22Z</time>
					</trkpt>
					<trkpt lat="49.460960" lon="1.474260">
						<ele>188</ele>
						<time>2026-05-01T16:47:35Z</time>
					</trkpt>
					<trkpt lat="49.463360" lon="1.473360">
						<ele>172</ele>
						<time>2026-05-01T16:48:19Z</time>
					</trkpt>
					<trkpt lat="49.463570" lon="1.473300">
						<ele>171</ele>
						<time>2026-05-01T16:48:23Z</time>
					</trkpt>
					<trkpt lat="49.463650" lon="1.473310">
						<ele>170</ele>
						<time>2026-05-01T16:48:24Z</time>
					</trkpt>
					<trkpt lat="49.463700" lon="1.473340">
						<ele>170</ele>
						<time>2026-05-01T16:48:25Z</time>
					</trkpt>
					<trkpt lat="49.463760" lon="1.473400">
						<ele>169</ele>
						<time>2026-05-01T16:48:26Z</time>
					</trkpt>
					<trkpt lat="49.464750" lon="1.474830">
						<ele>163</ele>
						<time>2026-05-01T16:48:50Z</time>
					</trkpt>
					<trkpt lat="49.464830" lon="1.474970">
						<ele>162</ele>
						<time>2026-05-01T16:48:52Z</time>
					</trkpt>
					<trkpt lat="49.464900" lon="1.475180">
						<ele>161</ele>
						<time>2026-05-01T16:48:55Z</time>
					</trkpt>
					<trkpt lat="49.464950" lon="1.475430">
						<ele>161</ele>
						<time>2026-05-01T16:48:58Z</time>
					</trkpt>
					<trkpt lat="49.464960" lon="1.475680">
						<ele>160</ele>
						<time>2026-05-01T16:49:01Z</time>
					</trkpt>
					<trkpt lat="49.464940" lon="1.475960">
						<ele>159</ele>
						<time>2026-05-01T16:49:04Z</time>
					</trkpt>
					<trkpt lat="49.464890" lon="1.476190">
						<ele>157</ele>
						<time>2026-05-01T16:49:07Z</time>
					</trkpt>
					<trkpt lat="49.464790" lon="1.476420">
						<ele>156</ele>
						<time>2026-05-01T16:49:10Z</time>
					</trkpt>
					<trkpt lat="49.464450" lon="1.476960">
						<ele>154</ele>
						<time>2026-05-01T16:49:19Z</time>
					</trkpt>
					<trkpt lat="49.464360" lon="1.477120">
						<ele>153</ele>
						<time>2026-05-01T16:49:22Z</time>
					</trkpt>
					<trkpt lat="49.464290" lon="1.477320">
						<ele>151</ele>
						<time>2026-05-01T16:49:24Z</time>
					</trkpt>
					<trkpt lat="49.464220" lon="1.477660">
						<ele>149</ele>
						<time>2026-05-01T16:49:28Z</time>
					</trkpt>
					<trkpt lat="49.464150" lon="1.478340">
						<ele>146</ele>
						<time>2026-05-01T16:49:36Z</time>
					</trkpt>
					<trkpt lat="49.464120" lon="1.478960">
						<ele>143</ele>
						<time>2026-05-01T16:49:43Z</time>
					</trkpt>
					<trkpt lat="49.464120" lon="1.479180">
						<ele>142</ele>
						<time>2026-05-01T16:49:46Z</time>
					</trkpt>
					<trkpt lat="49.464150" lon="1.479420">
						<ele>141</ele>
						<time>2026-05-01T16:49:49Z</time>
					</trkpt>
					<trkpt lat="49.464210" lon="1.479630">
						<ele>140</ele>
						<time>2026-05-01T16:49:51Z</time>
					</trkpt>
					<trkpt lat="49.464320" lon="1.479770">
						<ele>141</ele>
						<time>2026-05-01T16:49:54Z</time>
					</trkpt>
					<trkpt lat="49.464420" lon="1.479830">
						<ele>141</ele>
						<time>2026-05-01T16:49:56Z</time>
					</trkpt>
					<trkpt lat="49.464570" lon="1.479840">
						<ele>141</ele>
						<time>2026-05-01T16:49:59Z</time>
					</trkpt>
					<trkpt lat="49.464610" lon="1.479830">
						<ele>141</ele>
						<time>2026-05-01T16:49:59Z</time>
					</trkpt>
					<trkpt lat="49.464640" lon="1.479820">
						<ele>141</ele>
						<time>2026-05-01T16:50:00Z</time>
					</trkpt>
					<trkpt lat="49.464730" lon="1.479730">
						<ele>141</ele>
						<time>2026-05-01T16:50:02Z</time>
					</trkpt>
					<trkpt lat="49.464820" lon="1.479600">
						<ele>141</ele>
						<time>2026-05-01T16:50:04Z</time>
					</trkpt>
					<trkpt lat="49.464930" lon="1.479320">
						<ele>139</ele>
						<time>2026-05-01T16:50:08Z</time>
					</trkpt>
					<trkpt lat="49.465050" lon="1.478970">
						<ele>138</ele>
						<time>2026-05-01T16:50:12Z</time>
					</trkpt>
					<trkpt lat="49.465170" lon="1.478670">
						<ele>137</ele>
						<time>2026-05-01T16:50:16Z</time>
					</trkpt>
					<trkpt lat="49.465300" lon="1.478480">
						<ele>136</ele>
						<time>2026-05-01T16:50:20Z</time>
					</trkpt>
					<trkpt lat="49.465440" lon="1.478350">
						<ele>136</ele>
						<time>2026-05-01T16:50:22Z</time>
					</trkpt>
					<trkpt lat="49.465680" lon="1.478280">
						<ele>135</ele>
						<time>2026-05-01T16:50:27Z</time>
					</trkpt>
					<trkpt lat="49.465990" lon="1.478240">
						<ele>135</ele>
						<time>2026-05-01T16:50:32Z</time>
					</trkpt>
					<trkpt lat="49.466250" lon="1.478150">
						<ele>136</ele>
						<time>2026-05-01T16:50:37Z</time>
					</trkpt>
					<trkpt lat="49.466440" lon="1.478030">
						<ele>136</ele>
						<time>2026-05-01T16:50:41Z</time>
					</trkpt>
					<trkpt lat="49.466600" lon="1.477910">
						<ele>135</ele>
						<time>2026-05-01T16:50:44Z</time>
					</trkpt>
					<trkpt lat="49.466840" lon="1.477650">
						<ele>134</ele>
						<time>2026-05-01T16:50:49Z</time>
					</trkpt>
					<trkpt lat="49.467070" lon="1.477310">
						<ele>133</ele>
						<time>2026-05-01T16:50:55Z</time>
					</trkpt>
					<trkpt lat="49.467570" lon="1.476410">
						<ele>128</ele>
						<time>2026-05-01T16:51:09Z</time>
					</trkpt>
					<trkpt lat="49.467730" lon="1.476140">
						<ele>129</ele>
						<time>2026-05-01T16:51:13Z</time>
					</trkpt>
					<trkpt lat="49.467840" lon="1.475980">
						<ele>128</ele>
						<time>2026-05-01T16:51:15Z</time>
					</trkpt>
					<trkpt lat="49.467970" lon="1.475830">
						<ele>128</ele>
						<time>2026-05-01T16:51:18Z</time>
					</trkpt>
					<trkpt lat="49.468250" lon="1.475580">
						<ele>128</ele>
						<time>2026-05-01T16:51:24Z</time>
					</trkpt>
					<trkpt lat="49.468620" lon="1.475420">
						<ele>129</ele>
						<time>2026-05-01T16:51:31Z</time>
					</trkpt>
					<trkpt lat="49.469010" lon="1.475330">
						<ele>129</ele>
						<time>2026-05-01T16:51:38Z</time>
					</trkpt>
					<trkpt lat="49.469190" lon="1.475260">
						<ele>129</ele>
						<time>2026-05-01T16:51:41Z</time>
					</trkpt>
					<trkpt lat="49.469380" lon="1.475140">
						<ele>128</ele>
						<time>2026-05-01T16:51:45Z</time>
					</trkpt>
					<trkpt lat="49.469670" lon="1.474910">
						<ele>127</ele>
						<time>2026-05-01T16:51:51Z</time>
					</trkpt>
					<trkpt lat="49.469820" lon="1.474720">
						<ele>127</ele>
						<time>2026-05-01T16:51:54Z</time>
					</trkpt>
					<trkpt lat="49.469950" lon="1.474490">
						<ele>126</ele>
						<time>2026-05-01T16:51:58Z</time>
					</trkpt>
					<trkpt lat="49.470020" lon="1.474250">
						<ele>125</ele>
						<time>2026-05-01T16:52:01Z</time>
					</trkpt>
					<trkpt lat="49.470120" lon="1.473800">
						<ele>125</ele>
						<time>2026-05-01T16:52:06Z</time>
					</trkpt>
					<trkpt lat="49.470170" lon="1.473500">
						<ele>126</ele>
						<time>2026-05-01T16:52:10Z</time>
					</trkpt>
					<trkpt lat="49.470190" lon="1.473320">
						<ele>125</ele>
						<time>2026-05-01T16:52:12Z</time>
					</trkpt>
					<trkpt lat="49.470260" lon="1.473010">
						<ele>124</ele>
						<time>2026-05-01T16:52:16Z</time>
					</trkpt>
					<trkpt lat="49.470400" lon="1.472700">
						<ele>123</ele>
						<time>2026-05-01T16:52:20Z</time>
					</trkpt>
					<trkpt lat="49.470420" lon="1.472640">
						<ele>123</ele>
						<time>2026-05-01T16:52:21Z</time>
					</trkpt>
					<trkpt lat="49.470560" lon="1.472480">
						<ele>122</ele>
						<time>2026-05-01T16:52:24Z</time>
					</trkpt>
					<trkpt lat="49.470740" lon="1.472340">
						<ele>122</ele>
						<time>2026-05-01T16:52:28Z</time>
					</trkpt>
					<trkpt lat="49.470940" lon="1.472280">
						<ele>122</ele>
						<time>2026-05-01T16:52:31Z</time>
					</trkpt>
					<trkpt lat="49.471400" lon="1.472340">
						<ele>122</ele>
						<time>2026-05-01T16:52:39Z</time>
					</trkpt>
					<trkpt lat="49.471660" lon="1.472360">
						<ele>122</ele>
						<time>2026-05-01T16:52:44Z</time>
					</trkpt>
					<trkpt lat="49.471860" lon="1.472300">
						<ele>123</ele>
						<time>2026-05-01T16:52:48Z</time>
					</trkpt>
					<trkpt lat="49.472160" lon="1.472110">
						<ele>123</ele>
						<time>2026-05-01T16:52:53Z</time>
					</trkpt>
					<trkpt lat="49.472470" lon="1.471890">
						<ele>121</ele>
						<time>2026-05-01T16:52:59Z</time>
					</trkpt>
					<trkpt lat="49.472680" lon="1.471650">
						<ele>120</ele>
						<time>2026-05-01T16:53:04Z</time>
					</trkpt>
					<trkpt lat="49.472890" lon="1.471340">
						<ele>122</ele>
						<time>2026-05-01T16:53:09Z</time>
					</trkpt>
					<trkpt lat="49.473270" lon="1.470480">
						<ele>117</ele>
						<time>2026-05-01T16:53:21Z</time>
					</trkpt>
					<trkpt lat="49.473430" lon="1.470160">
						<ele>116</ele>
						<time>2026-05-01T16:53:26Z</time>
					</trkpt>
					<trkpt lat="49.473700" lon="1.469710">
						<ele>116</ele>
						<time>2026-05-01T16:53:33Z</time>
					</trkpt>
					<trkpt lat="49.474340" lon="1.468730">
						<ele>114</ele>
						<time>2026-05-01T16:53:49Z</time>
					</trkpt>
					<trkpt lat="49.474490" lon="1.468460">
						<ele>116</ele>
						<time>2026-05-01T16:53:53Z</time>
					</trkpt>
					<trkpt lat="49.474530" lon="1.468300">
						<ele>116</ele>
						<time>2026-05-01T16:53:55Z</time>
					</trkpt>
					<trkpt lat="49.474550" lon="1.468150">
						<ele>116</ele>
						<time>2026-05-01T16:53:57Z</time>
					</trkpt>
					<trkpt lat="49.474550" lon="1.467870">
						<ele>116</ele>
						<time>2026-05-01T16:54:00Z</time>
					</trkpt>
					<trkpt lat="49.474520" lon="1.467500">
						<ele>115</ele>
						<time>2026-05-01T16:54:05Z</time>
					</trkpt>
					<trkpt lat="49.474520" lon="1.467080">
						<ele>112</ele>
						<time>2026-05-01T16:54:09Z</time>
					</trkpt>
					<trkpt lat="49.474700" lon="1.466440">
						<ele>110</ele>
						<time>2026-05-01T16:54:17Z</time>
					</trkpt>
					<trkpt lat="49.474820" lon="1.466180">
						<ele>109</ele>
						<time>2026-05-01T16:54:21Z</time>
					</trkpt>
					<trkpt lat="49.474940" lon="1.466030">
						<ele>108</ele>
						<time>2026-05-01T16:54:24Z</time>
					</trkpt>
					<trkpt lat="49.475100" lon="1.465920">
						<ele>107</ele>
						<time>2026-05-01T16:54:27Z</time>
					</trkpt>
					<trkpt lat="49.475260" lon="1.465860">
						<ele>106</ele>
						<time>2026-05-01T16:54:30Z</time>
					</trkpt>
					<trkpt lat="49.475480" lon="1.465840">
						<ele>106</ele>
						<time>2026-05-01T16:54:34Z</time>
					</trkpt>
					<trkpt lat="49.476230" lon="1.466000">
						<ele>108</ele>
						<time>2026-05-01T16:54:47Z</time>
					</trkpt>
					<trkpt lat="49.476470" lon="1.466040">
						<ele>109</ele>
						<time>2026-05-01T16:54:52Z</time>
					</trkpt>
					<trkpt lat="49.476660" lon="1.465990">
						<ele>108</ele>
						<time>2026-05-01T16:54:55Z</time>
					</trkpt>
					<trkpt lat="49.476900" lon="1.465860">
						<ele>109</ele>
						<time>2026-05-01T16:55:00Z</time>
					</trkpt>
					<trkpt lat="49.477330" lon="1.465450">
						<ele>111</ele>
						<time>2026-05-01T16:55:09Z</time>
					</trkpt>
					<trkpt lat="49.477490" lon="1.465250">
						<ele>110</ele>
						<time>2026-05-01T16:55:12Z</time>
					</trkpt>
					<trkpt lat="49.477620" lon="1.465000">
						<ele>109</ele>
						<time>2026-05-01T16:55:16Z</time>
					</trkpt>
					<trkpt lat="49.477840" lon="1.464490">
						<ele>109</ele>
						<time>2026-05-01T16:55:23Z</time>
					</trkpt>
					<trkpt lat="49.478020" lon="1.464110">
						<ele>107</ele>
						<time>2026-05-01T16:55:29Z</time>
					</trkpt>
					<trkpt lat="49.478250" lon="1.463690">
						<ele>105</ele>
						<time>2026-05-01T16:55:35Z</time>
					</trkpt>
					<trkpt lat="49.478390" lon="1.463480">
						<ele>103</ele>
						<time>2026-05-01T16:55:38Z</time>
					</trkpt>
					<trkpt lat="49.478530" lon="1.463320">
						<ele>102</ele>
						<time>2026-05-01T16:55:41Z</time>
					</trkpt>
					<trkpt lat="49.478810" lon="1.463180">
						<ele>103</ele>
						<time>2026-05-01T16:55:47Z</time>
					</trkpt>
					<trkpt lat="49.479240" lon="1.463050">
						<ele>103</ele>
						<time>2026-05-01T16:55:54Z</time>
					</trkpt>
					<trkpt lat="49.479580" lon="1.463010">
						<ele>102</ele>
						<time>2026-05-01T16:56:01Z</time>
					</trkpt>
					<trkpt lat="49.480110" lon="1.463070">
						<ele>101</ele>
						<time>2026-05-01T16:56:10Z</time>
					</trkpt>
					<trkpt lat="49.480360" lon="1.463030">
						<ele>101</ele>
						<time>2026-05-01T16:56:14Z</time>
					</trkpt>
					<trkpt lat="49.481040" lon="1.462760">
						<ele>98</ele>
						<time>2026-05-01T16:56:27Z</time>
					</trkpt>
					<trkpt lat="49.482080" lon="1.462070">
						<ele>93</ele>
						<time>2026-05-01T16:56:47Z</time>
					</trkpt>
					<trkpt lat="49.482240" lon="1.461990">
						<ele>92</ele>
						<time>2026-05-01T16:56:50Z</time>
					</trkpt>
					<trkpt lat="49.482390" lon="1.461960">
						<ele>91</ele>
						<time>2026-05-01T16:56:53Z</time>
					</trkpt>
					<trkpt lat="49.482580" lon="1.461980">
						<ele>91</ele>
						<time>2026-05-01T16:56:56Z</time>
					</trkpt>
					<trkpt lat="49.482730" lon="1.462040">
						<ele>90</ele>
						<time>2026-05-01T16:56:59Z</time>
					</trkpt>
					<trkpt lat="49.483260" lon="1.462310">
						<ele>86</ele>
						<time>2026-05-01T16:57:09Z</time>
					</trkpt>
					<trkpt lat="49.483760" lon="1.462530">
						<ele>87</ele>
						<time>2026-05-01T16:57:18Z</time>
					</trkpt>
					<trkpt lat="49.483820" lon="1.462560">
						<ele>87</ele>
						<time>2026-05-01T16:57:19Z</time>
					</trkpt>
					<trkpt lat="49.484050" lon="1.462690">
						<ele>87</ele>
						<time>2026-05-01T16:57:24Z</time>
					</trkpt>
					<trkpt lat="49.484490" lon="1.462880">
						<ele>87</ele>
						<time>2026-05-01T16:57:32Z</time>
					</trkpt>
					<trkpt lat="49.484860" lon="1.462930">
						<ele>87</ele>
						<time>2026-05-01T16:57:38Z</time>
					</trkpt>
					<trkpt lat="49.485190" lon="1.462900">
						<ele>87</ele>
						<time>2026-05-01T16:57:44Z</time>
					</trkpt>
					<trkpt lat="49.485520" lon="1.462840">
						<ele>85</ele>
						<time>2026-05-01T16:57:50Z</time>
					</trkpt>
					<trkpt lat="49.485670" lon="1.462730">
						<ele>85</ele>
						<time>2026-05-01T16:57:53Z</time>
					</trkpt>
					<trkpt lat="49.485790" lon="1.462720">
						<ele>84</ele>
						<time>2026-05-01T16:57:55Z</time>
					</trkpt>
					<trkpt lat="49.485820" lon="1.462580">
						<ele>85</ele>
						<time>2026-05-01T16:57:57Z</time>
					</trkpt>
					<trkpt lat="49.485920" lon="1.462200">
						<ele>84</ele>
						<time>2026-05-01T16:58:02Z</time>
					</trkpt>
					<trkpt lat="49.486040" lon="1.461980">
						<ele>83</ele>
						<time>2026-05-01T16:58:05Z</time>
					</trkpt>
					<trkpt lat="49.486510" lon="1.461530">
						<ele>80</ele>
						<time>2026-05-01T16:58:15Z</time>
					</trkpt>
					<trkpt lat="49.486740" lon="1.461000">
						<ele>79</ele>
						<time>2026-05-01T16:58:22Z</time>
					</trkpt>
					<trkpt lat="49.486990" lon="1.460260">
						<ele>78</ele>
						<time>2026-05-01T16:58:32Z</time>
					</trkpt>
					<trkpt lat="49.487060" lon="1.459970">
						<ele>78</ele>
						<time>2026-05-01T16:58:35Z</time>
					</trkpt>
					<trkpt lat="49.487100" lon="1.459690">
						<ele>78</ele>
						<time>2026-05-01T16:58:39Z</time>
					</trkpt>
					<trkpt lat="49.487110" lon="1.459480">
						<ele>78</ele>
						<time>2026-05-01T16:58:41Z</time>
					</trkpt>
					<trkpt lat="49.487100" lon="1.459270">
						<ele>78</ele>
						<time>2026-05-01T16:58:44Z</time>
					</trkpt>
					<trkpt lat="49.487060" lon="1.458850">
						<ele>78</ele>
						<time>2026-05-01T16:58:49Z</time>
					</trkpt>
					<trkpt lat="49.487060" lon="1.458840">
						<ele>78</ele>
						<time>2026-05-01T16:58:49Z</time>
					</trkpt>
					<trkpt lat="49.487030" lon="1.458540">
						<ele>78</ele>
						<time>2026-05-01T16:58:52Z</time>
					</trkpt>
					<trkpt lat="49.486970" lon="1.458160">
						<ele>79</ele>
						<time>2026-05-01T16:58:57Z</time>
					</trkpt>
					<trkpt lat="49.486930" lon="1.458000">
						<ele>79</ele>
						<time>2026-05-01T16:58:59Z</time>
					</trkpt>
					<trkpt lat="49.486890" lon="1.457890">
						<ele>79</ele>
						<time>2026-05-01T16:59:00Z</time>
					</trkpt>
					<trkpt lat="49.484980" lon="1.454050">
						<ele>76</ele>
						<time>2026-05-01T16:59:56Z</time>
					</trkpt>
					<trkpt lat="49.483350" lon="1.450570">
						<ele>73</ele>
						<time>2026-05-01T17:00:46Z</time>
					</trkpt>
					<trkpt lat="49.481620" lon="1.446890">
						<ele>79</ele>
						<time>2026-05-01T17:01:38Z</time>
					</trkpt>
					<trkpt lat="49.481350" lon="1.445530">
						<ele>82</ele>
						<time>2026-05-01T17:01:55Z</time>
					</trkpt>
					<trkpt lat="49.481230" lon="1.444680">
						<ele>84</ele>
						<time>2026-05-01T17:02:05Z</time>
					</trkpt>
					<trkpt lat="49.480660" lon="1.443260">
						<ele>83</ele>
						<time>2026-05-01T17:02:24Z</time>
					</trkpt>
					<trkpt lat="49.480290" lon="1.442050">
						<ele>82</ele>
						<time>2026-05-01T17:02:39Z</time>
					</trkpt>
					<trkpt lat="49.479900" lon="1.440960">
						<ele>83</ele>
						<time>2026-05-01T17:02:54Z</time>
					</trkpt>
					<trkpt lat="49.479630" lon="1.440540">
						<ele>82</ele>
						<time>2026-05-01T17:03:01Z</time>
					</trkpt>
					<trkpt lat="49.479110" lon="1.439090">
						<ele>81</ele>
						<time>2026-05-01T17:03:20Z</time>
					</trkpt>
					<trkpt lat="49.478460" lon="1.436740">
						<ele>79</ele>
						<time>2026-05-01T17:03:49Z</time>
					</trkpt>
					<trkpt lat="49.478300" lon="1.435960">
						<ele>77</ele>
						<time>2026-05-01T17:03:59Z</time>
					</trkpt>
					<trkpt lat="49.478280" lon="1.435070">
						<ele>77</ele>
						<time>2026-05-01T17:04:09Z</time>
					</trkpt>
					<trkpt lat="49.478080" lon="1.433820">
						<ele>77</ele>
						<time>2026-05-01T17:04:24Z</time>
					</trkpt>
					<trkpt lat="49.477770" lon="1.432650">
						<ele>78</ele>
						<time>2026-05-01T17:04:38Z</time>
					</trkpt>
					<trkpt lat="49.477620" lon="1.432000">
						<ele>78</ele>
						<time>2026-05-01T17:04:46Z</time>
					</trkpt>
					<trkpt lat="49.477490" lon="1.431330">
						<ele>79</ele>
						<time>2026-05-01T17:04:55Z</time>
					</trkpt>
					<trkpt lat="49.477460" lon="1.430660">
						<ele>80</ele>
						<time>2026-05-01T17:05:02Z</time>
					</trkpt>
					<trkpt lat="49.477410" lon="1.429970">
						<ele>80</ele>
						<time>2026-05-01T17:05:10Z</time>
					</trkpt>
					<trkpt lat="49.477090" lon="1.428170">
						<ele>79</ele>
						<time>2026-05-01T17:05:32Z</time>
					</trkpt>
					<trkpt lat="49.476970" lon="1.427110">
						<ele>79</ele>
						<time>2026-05-01T17:05:44Z</time>
					</trkpt>
					<trkpt lat="49.476930" lon="1.426880">
						<ele>79</ele>
						<time>2026-05-01T17:05:47Z</time>
					</trkpt>
					<trkpt lat="49.476920" lon="1.426820">
						<ele>78</ele>
						<time>2026-05-01T17:05:48Z</time>
					</trkpt>
					<trkpt lat="49.476900" lon="1.426690">
						<ele>78</ele>
						<time>2026-05-01T17:05:49Z</time>
					</trkpt>
					<trkpt lat="49.476620" lon="1.425710">
						<ele>77</ele>
						<time>2026-05-01T17:06:02Z</time>
					</trkpt>
					<trkpt lat="49.476530" lon="1.425370">
						<ele>76</ele>
						<time>2026-05-01T17:06:06Z</time>
					</trkpt>
					<trkpt lat="49.476450" lon="1.425080">
						<ele>76</ele>
						<time>2026-05-01T17:06:10Z</time>
					</trkpt>
					<trkpt lat="49.476400" lon="1.424890">
						<ele>75</ele>
						<time>2026-05-01T17:06:12Z</time>
					</trkpt>
					<trkpt lat="49.476230" lon="1.424230">
						<ele>76</ele>
						<time>2026-05-01T17:06:20Z</time>
					</trkpt>
					<trkpt lat="49.475950" lon="1.422840">
						<ele>73</ele>
						<time>2026-05-01T17:06:37Z</time>
					</trkpt>
					<trkpt lat="49.475900" lon="1.422290">
						<ele>73</ele>
						<time>2026-05-01T17:06:43Z</time>
					</trkpt>
					<trkpt lat="49.475860" lon="1.420640">
						<ele>75</ele>
						<time>2026-05-01T17:07:03Z</time>
					</trkpt>
					<trkpt lat="49.475830" lon="1.420310">
						<ele>75</ele>
						<time>2026-05-01T17:07:06Z</time>
					</trkpt>
					<trkpt lat="49.475480" lon="1.419200">
						<ele>74</ele>
						<time>2026-05-01T17:07:21Z</time>
					</trkpt>
					<trkpt lat="49.475380" lon="1.418750">
						<ele>74</ele>
						<time>2026-05-01T17:07:26Z</time>
					</trkpt>
					<trkpt lat="49.475270" lon="1.418160">
						<ele>74</ele>
						<time>2026-05-01T17:07:33Z</time>
					</trkpt>
					<trkpt lat="49.475170" lon="1.417540">
						<ele>73</ele>
						<time>2026-05-01T17:07:41Z</time>
					</trkpt>
					<trkpt lat="49.475130" lon="1.416980">
						<ele>73</ele>
						<time>2026-05-01T17:07:47Z</time>
					</trkpt>
					<trkpt lat="49.475120" lon="1.413980">
						<ele>75</ele>
						<time>2026-05-01T17:08:22Z</time>
					</trkpt>
					<trkpt lat="49.475000" lon="1.411850">
						<ele>76</ele>
						<time>2026-05-01T17:08:47Z</time>
					</trkpt>
					<trkpt lat="49.474890" lon="1.409850">
						<ele>77</ele>
						<time>2026-05-01T17:09:10Z</time>
					</trkpt>
					<trkpt lat="49.474910" lon="1.409530">
						<ele>77</ele>
						<time>2026-05-01T17:09:13Z</time>
					</trkpt>
					<trkpt lat="49.474930" lon="1.409290">
						<ele>77</ele>
						<time>2026-05-01T17:09:16Z</time>
					</trkpt>
					<trkpt lat="49.475040" lon="1.408750">
						<ele>77</ele>
						<time>2026-05-01T17:09:23Z</time>
					</trkpt>
					<trkpt lat="49.475320" lon="1.407430">
						<ele>76</ele>
						<time>2026-05-01T17:09:39Z</time>
					</trkpt>
					<trkpt lat="49.475510" lon="1.406930">
						<ele>75</ele>
						<time>2026-05-01T17:09:46Z</time>
					</trkpt>
					<trkpt lat="49.475680" lon="1.406640">
						<ele>74</ele>
						<time>2026-05-01T17:09:50Z</time>
					</trkpt>
					<trkpt lat="49.476470" lon="1.405510">
						<ele>70</ele>
						<time>2026-05-01T17:10:09Z</time>
					</trkpt>
					<trkpt lat="49.476540" lon="1.405360">
						<ele>71</ele>
						<time>2026-05-01T17:10:11Z</time>
					</trkpt>
					<trkpt lat="49.476660" lon="1.405460">
						<ele>72</ele>
						<time>2026-05-01T17:10:14Z</time>
					</trkpt>
					<trkpt lat="49.477420" lon="1.405520">
						<ele>72</ele>
						<time>2026-05-01T17:10:27Z</time>
					</trkpt>
					<trkpt lat="49.477720" lon="1.405550">
						<ele>73</ele>
						<time>2026-05-01T17:10:33Z</time>
					</trkpt>
					<trkpt lat="49.477880" lon="1.405600">
						<ele>74</ele>
						<time>2026-05-01T17:10:36Z</time>
					</trkpt>
					<trkpt lat="49.478040" lon="1.405720">
						<ele>75</ele>
						<time>2026-05-01T17:10:39Z</time>
					</trkpt>
					<trkpt lat="49.478210" lon="1.405920">
						<ele>78</ele>
						<time>2026-05-01T17:10:43Z</time>
					</trkpt>
					<trkpt lat="49.478380" lon="1.406040">
						<ele>81</ele>
						<time>2026-05-01T17:10:46Z</time>
					</trkpt>
					<trkpt lat="49.478600" lon="1.406080">
						<ele>83</ele>
						<time>2026-05-01T17:10:50Z</time>
					</trkpt>
					<trkpt lat="49.479760" lon="1.406200">
						<ele>87</ele>
						<time>2026-05-01T17:11:11Z</time>
					</trkpt>
					<trkpt lat="49.480070" lon="1.406240">
						<ele>87</ele>
						<time>2026-05-01T17:11:16Z</time>
					</trkpt>
					<trkpt lat="49.481250" lon="1.406360">
						<ele>92</ele>
						<time>2026-05-01T17:11:37Z</time>
					</trkpt>
					<trkpt lat="49.481440" lon="1.406290">
						<ele>92</ele>
						<time>2026-05-01T17:11:41Z</time>
					</trkpt>
					<trkpt lat="49.482200" lon="1.405900">
						<ele>89</ele>
						<time>2026-05-01T17:11:55Z</time>
					</trkpt>
					<trkpt lat="49.482890" lon="1.405530">
						<ele>87</ele>
						<time>2026-05-01T17:12:08Z</time>
					</trkpt>
					<trkpt lat="49.483140" lon="1.405360">
						<ele>86</ele>
						<time>2026-05-01T17:12:13Z</time>
					</trkpt>
					<trkpt lat="49.483380" lon="1.405150">
						<ele>86</ele>
						<time>2026-05-01T17:12:18Z</time>
					</trkpt>
					<trkpt lat="49.483680" lon="1.404830">
						<ele>84</ele>
						<time>2026-05-01T17:12:24Z</time>
					</trkpt>
					<trkpt lat="49.486510" lon="1.401550">
						<ele>80</ele>
						<time>2026-05-01T17:13:27Z</time>
					</trkpt>
					<trkpt lat="49.486810" lon="1.401120">
						<ele>82</ele>
						<time>2026-05-01T17:13:34Z</time>
					</trkpt>
					<trkpt lat="49.488100" lon="1.399250">
						<ele>84</ele>
						<time>2026-05-01T17:14:06Z</time>
					</trkpt>
					<trkpt lat="49.488230" lon="1.399070">
						<ele>83</ele>
						<time>2026-05-01T17:14:09Z</time>
					</trkpt>
					<trkpt lat="49.488560" lon="1.398670">
						<ele>83</ele>
						<time>2026-05-01T17:14:17Z</time>
					</trkpt>
					<trkpt lat="49.489130" lon="1.398090">
						<ele>82</ele>
						<time>2026-05-01T17:14:29Z</time>
					</trkpt>
					<trkpt lat="49.489160" lon="1.398060">
						<ele>82</ele>
						<time>2026-05-01T17:14:29Z</time>
					</trkpt>
					<trkpt lat="49.489960" lon="1.397310">
						<ele>81</ele>
						<time>2026-05-01T17:14:46Z</time>
					</trkpt>
					<trkpt lat="49.490280" lon="1.396980">
						<ele>81</ele>
						<time>2026-05-01T17:14:53Z</time>
					</trkpt>
					<trkpt lat="49.491850" lon="1.395300">
						<ele>84</ele>
						<time>2026-05-01T17:15:27Z</time>
					</trkpt>
					<trkpt lat="49.492940" lon="1.394140">
						<ele>86</ele>
						<time>2026-05-01T17:15:50Z</time>
					</trkpt>
					<trkpt lat="49.493100" lon="1.394000">
						<ele>87</ele>
						<time>2026-05-01T17:15:54Z</time>
					</trkpt>
					<trkpt lat="49.493250" lon="1.393890">
						<ele>88</ele>
						<time>2026-05-01T17:15:57Z</time>
					</trkpt>
					<trkpt lat="49.493690" lon="1.393650">
						<ele>88</ele>
						<time>2026-05-01T17:16:05Z</time>
					</trkpt>
					<trkpt lat="49.494200" lon="1.393400">
						<ele>89</ele>
						<time>2026-05-01T17:16:15Z</time>
					</trkpt>
					<trkpt lat="49.494260" lon="1.393380">
						<ele>88</ele>
						<time>2026-05-01T17:16:16Z</time>
					</trkpt>
					<trkpt lat="49.494420" lon="1.393310">
						<ele>87</ele>
						<time>2026-05-01T17:16:19Z</time>
					</trkpt>
					<trkpt lat="49.494530" lon="1.393300">
						<ele>86</ele>
						<time>2026-05-01T17:16:21Z</time>
					</trkpt>
					<trkpt lat="49.494640" lon="1.393310">
						<ele>85</ele>
						<time>2026-05-01T17:16:23Z</time>
					</trkpt>
					<trkpt lat="49.495070" lon="1.393500">
						<ele>84</ele>
						<time>2026-05-01T17:16:30Z</time>
					</trkpt>
					<trkpt lat="49.495220" lon="1.393530">
						<ele>84</ele>
						<time>2026-05-01T17:16:33Z</time>
					</trkpt>
					<trkpt lat="49.495480" lon="1.393540">
						<ele>86</ele>
						<time>2026-05-01T17:16:38Z</time>
					</trkpt>
					<trkpt lat="49.496010" lon="1.393360">
						<ele>88</ele>
						<time>2026-05-01T17:16:47Z</time>
					</trkpt>
					<trkpt lat="49.496580" lon="1.393080">
						<ele>91</ele>
						<time>2026-05-01T17:16:58Z</time>
					</trkpt>
					<trkpt lat="49.496870" lon="1.392800">
						<ele>91</ele>
						<time>2026-05-01T17:17:04Z</time>
					</trkpt>
					<trkpt lat="49.497430" lon="1.392170">
						<ele>91</ele>
						<time>2026-05-01T17:17:17Z</time>
					</trkpt>
					<trkpt lat="49.497560" lon="1.392050">
						<ele>90</ele>
						<time>2026-05-01T17:17:19Z</time>
					</trkpt>
					<trkpt lat="49.497770" lon="1.391870">
						<ele>90</ele>
						<time>2026-05-01T17:17:24Z</time>
					</trkpt>
					<trkpt lat="49.497920" lon="1.391770">
						<ele>89</ele>
						<time>2026-05-01T17:17:26Z</time>
					</trkpt>
					<trkpt lat="49.498270" lon="1.391620">
						<ele>89</ele>
						<time>2026-05-01T17:17:33Z</time>
					</trkpt>
					<trkpt lat="49.498910" lon="1.391390">
						<ele>94</ele>
						<time>2026-05-01T17:17:45Z</time>
					</trkpt>
					<trkpt lat="49.499190" lon="1.391290">
						<ele>95</ele>
						<time>2026-05-01T17:17:50Z</time>
					</trkpt>
					<trkpt lat="49.499400" lon="1.391180">
						<ele>95</ele>
						<time>2026-05-01T17:17:54Z</time>
					</trkpt>
					<trkpt lat="49.499780" lon="1.390810">
						<ele>94</ele>
						<time>2026-05-01T17:18:02Z</time>
					</trkpt>
					<trkpt lat="49.500090" lon="1.390490">
						<ele>94</ele>
						<time>2026-05-01T17:18:08Z</time>
					</trkpt>
					<trkpt lat="49.500340" lon="1.390340">
						<ele>94</ele>
						<time>2026-05-01T17:18:13Z</time>
					</trkpt>
					<trkpt lat="49.500790" lon="1.390300">
						<ele>95</ele>
						<time>2026-05-01T17:18:21Z</time>
					</trkpt>
					<trkpt lat="49.501070" lon="1.390240">
						<ele>95</ele>
						<time>2026-05-01T17:18:26Z</time>
					</trkpt>
					<trkpt lat="49.501680" lon="1.390130">
						<ele>95</ele>
						<time>2026-05-01T17:18:37Z</time>
					</trkpt>
					<trkpt lat="49.502280" lon="1.390150">
						<ele>93</ele>
						<time>2026-05-01T17:18:48Z</time>
					</trkpt>
					<trkpt lat="49.502840" lon="1.390240">
						<ele>93</ele>
						<time>2026-05-01T17:18:58Z</time>
					</trkpt>
					<trkpt lat="49.503360" lon="1.390360">
						<ele>94</ele>
						<time>2026-05-01T17:19:07Z</time>
					</trkpt>
					<trkpt lat="49.503900" lon="1.390620">
						<ele>94</ele>
						<time>2026-05-01T17:19:17Z</time>
					</trkpt>
					<trkpt lat="49.504190" lon="1.390740">
						<ele>93</ele>
						<time>2026-05-01T17:19:22Z</time>
					</trkpt>
					<trkpt lat="49.504720" lon="1.390960">
						<ele>96</ele>
						<time>2026-05-01T17:19:32Z</time>
					</trkpt>
					<trkpt lat="49.504980" lon="1.391020">
						<ele>96</ele>
						<time>2026-05-01T17:19:37Z</time>
					</trkpt>
					<trkpt lat="49.505890" lon="1.391030">
						<ele>96</ele>
						<time>2026-05-01T17:19:53Z</time>
					</trkpt>
					<trkpt lat="49.506060" lon="1.390990">
						<ele>96</ele>
						<time>2026-05-01T17:19:56Z</time>
					</trkpt>
					<trkpt lat="49.506220" lon="1.390920">
						<ele>96</ele>
						<time>2026-05-01T17:19:59Z</time>
					</trkpt>
					<trkpt lat="49.506400" lon="1.390760">
						<ele>96</ele>
						<time>2026-05-01T17:20:03Z</time>
					</trkpt>
					<trkpt lat="49.506590" lon="1.390540">
						<ele>95</ele>
						<time>2026-05-01T17:20:07Z</time>
					</trkpt>
					<trkpt lat="49.506820" lon="1.390310">
						<ele>94</ele>
						<time>2026-05-01T17:20:12Z</time>
					</trkpt>
					<trkpt lat="49.507000" lon="1.390190">
						<ele>93</ele>
						<time>2026-05-01T17:20:15Z</time>
					</trkpt>
					<trkpt lat="49.507170" lon="1.390130">
						<ele>93</ele>
						<time>2026-05-01T17:20:19Z</time>
					</trkpt>
					<trkpt lat="49.508330" lon="1.389960">
						<ele>96</ele>
						<time>2026-05-01T17:20:39Z</time>
					</trkpt>
					<trkpt lat="49.508590" lon="1.389960">
						<ele>96</ele>
						<time>2026-05-01T17:20:44Z</time>
					</trkpt>
					<trkpt lat="49.509000" lon="1.389850">
						<ele>96</ele>
						<time>2026-05-01T17:20:51Z</time>
					</trkpt>
					<trkpt lat="49.511110" lon="1.389050">
						<ele>93</ele>
						<time>2026-05-01T17:21:30Z</time>
					</trkpt>
					<trkpt lat="49.511670" lon="1.388930">
						<ele>93</ele>
						<time>2026-05-01T17:21:40Z</time>
					</trkpt>
					<trkpt lat="49.512080" lon="1.388940">
						<ele>92</ele>
						<time>2026-05-01T17:21:47Z</time>
					</trkpt>
					<trkpt lat="49.512520" lon="1.388990">
						<ele>92</ele>
						<time>2026-05-01T17:21:55Z</time>
					</trkpt>
					<trkpt lat="49.512950" lon="1.388990">
						<ele>92</ele>
						<time>2026-05-01T17:22:03Z</time>
					</trkpt>
					<trkpt lat="49.514540" lon="1.388500">
						<ele>97</ele>
						<time>2026-05-01T17:22:32Z</time>
					</trkpt>
					<trkpt lat="49.514580" lon="1.388480">
						<ele>97</ele>
						<time>2026-05-01T17:22:32Z</time>
					</trkpt>
					<trkpt lat="49.515180" lon="1.388300">
						<ele>100</ele>
						<time>2026-05-01T17:22:43Z</time>
					</trkpt>
					<trkpt lat="49.515430" lon="1.388220">
						<ele>100</ele>
						<time>2026-05-01T17:22:48Z</time>
					</trkpt>
					<trkpt lat="49.515770" lon="1.388200">
						<ele>101</ele>
						<time>2026-05-01T17:22:54Z</time>
					</trkpt>
					<trkpt lat="49.516570" lon="1.388310">
						<ele>101</ele>
						<time>2026-05-01T17:23:08Z</time>
					</trkpt>
					<trkpt lat="49.516740" lon="1.388270">
						<ele>100</ele>
						<time>2026-05-01T17:23:11Z</time>
					</trkpt>
					<trkpt lat="49.516880" lon="1.388220">
						<ele>99</ele>
						<time>2026-05-01T17:23:14Z</time>
					</trkpt>
					<trkpt lat="49.517100" lon="1.388060">
						<ele>97</ele>
						<time>2026-05-01T17:23:18Z</time>
					</trkpt>
					<trkpt lat="49.517630" lon="1.387700">
						<ele>96</ele>
						<time>2026-05-01T17:23:28Z</time>
					</trkpt>
					<trkpt lat="49.518050" lon="1.387470">
						<ele>97</ele>
						<time>2026-05-01T17:23:36Z</time>
					</trkpt>
					<trkpt lat="49.518340" lon="1.387420">
						<ele>98</ele>
						<time>2026-05-01T17:23:42Z</time>
					</trkpt>
					<trkpt lat="49.518670" lon="1.387440">
						<ele>98</ele>
						<time>2026-05-01T17:23:47Z</time>
					</trkpt>
					<trkpt lat="49.518970" lon="1.387410">
						<ele>98</ele>
						<time>2026-05-01T17:23:53Z</time>
					</trkpt>
					<trkpt lat="49.519190" lon="1.387330">
						<ele>98</ele>
						<time>2026-05-01T17:23:57Z</time>
					</trkpt>
					<trkpt lat="49.519390" lon="1.387230">
						<ele>98</ele>
						<time>2026-05-01T17:24:01Z</time>
					</trkpt>
					<trkpt lat="49.519760" lon="1.386960">
						<ele>99</ele>
						<time>2026-05-01T17:24:08Z</time>
					</trkpt>
					<trkpt lat="49.519830" lon="1.386910">
						<ele>99</ele>
						<time>2026-05-01T17:24:09Z</time>
					</trkpt>
					<trkpt lat="49.520010" lon="1.386770">
						<ele>99</ele>
						<time>2026-05-01T17:24:13Z</time>
					</trkpt>
					<trkpt lat="49.520170" lon="1.386610">
						<ele>99</ele>
						<time>2026-05-01T17:24:16Z</time>
					</trkpt>
					<trkpt lat="49.520340" lon="1.386400">
						<ele>100</ele>
						<time>2026-05-01T17:24:20Z</time>
					</trkpt>
					<trkpt lat="49.520450" lon="1.386230">
						<ele>101</ele>
						<time>2026-05-01T17:24:23Z</time>
					</trkpt>
					<trkpt lat="49.520640" lon="1.385830">
						<ele>102</ele>
						<time>2026-05-01T17:24:29Z</time>
					</trkpt>
					<trkpt lat="49.520780" lon="1.385480">
						<ele>104</ele>
						<time>2026-05-01T17:24:33Z</time>
					</trkpt>
					<trkpt lat="49.520900" lon="1.385260">
						<ele>105</ele>
						<time>2026-05-01T17:24:37Z</time>
					</trkpt>
					<trkpt lat="49.521030" lon="1.385090">
						<ele>106</ele>
						<time>2026-05-01T17:24:40Z</time>
					</trkpt>
					<trkpt lat="49.521290" lon="1.384870">
						<ele>106</ele>
						<time>2026-05-01T17:24:45Z</time>
					</trkpt>
					<trkpt lat="49.521780" lon="1.384590">
						<ele>106</ele>
						<time>2026-05-01T17:24:54Z</time>
					</trkpt>
					<trkpt lat="49.521990" lon="1.384500">
						<ele>107</ele>
						<time>2026-05-01T17:24:58Z</time>
					</trkpt>
					<trkpt lat="49.522170" lon="1.384450">
						<ele>107</ele>
						<time>2026-05-01T17:25:01Z</time>
					</trkpt>
					<trkpt lat="49.522370" lon="1.384430">
						<ele>106</ele>
						<time>2026-05-01T17:25:05Z</time>
					</trkpt>
					<trkpt lat="49.523020" lon="1.384500">
						<ele>104</ele>
						<time>2026-05-01T17:25:17Z</time>
					</trkpt>
					<trkpt lat="49.523380" lon="1.384470">
						<ele>104</ele>
						<time>2026-05-01T17:25:23Z</time>
					</trkpt>
					<trkpt lat="49.523580" lon="1.384420">
						<ele>104</ele>
						<time>2026-05-01T17:25:27Z</time>
					</trkpt>
					<trkpt lat="49.523770" lon="1.384300">
						<ele>105</ele>
						<time>2026-05-01T17:25:30Z</time>
					</trkpt>
					<trkpt lat="49.524120" lon="1.384020">
						<ele>106</ele>
						<time>2026-05-01T17:25:37Z</time>
					</trkpt>
					<trkpt lat="49.524350" lon="1.383770">
						<ele>108</ele>
						<time>2026-05-01T17:25:42Z</time>
					</trkpt>
					<trkpt lat="49.524430" lon="1.383660">
						<ele>108</ele>
						<time>2026-05-01T17:25:44Z</time>
					</trkpt>
					<trkpt lat="49.524720" lon="1.383130">
						<ele>109</ele>
						<time>2026-05-01T17:25:52Z</time>
					</trkpt>
					<trkpt lat="49.524890" lon="1.382900">
						<ele>108</ele>
						<time>2026-05-01T17:25:56Z</time>
					</trkpt>
					<trkpt lat="49.525430" lon="1.382440">
						<ele>108</ele>
						<time>2026-05-01T17:26:07Z</time>
					</trkpt>
					<trkpt lat="49.525730" lon="1.382230">
						<ele>108</ele>
						<time>2026-05-01T17:26:13Z</time>
					</trkpt>
					<trkpt lat="49.526020" lon="1.382110">
						<ele>109</ele>
						<time>2026-05-01T17:26:18Z</time>
					</trkpt>
					<trkpt lat="49.526270" lon="1.382080">
						<ele>109</ele>
						<time>2026-05-01T17:26:23Z</time>
					</trkpt>
					<trkpt lat="49.526480" lon="1.382090">
						<ele>108</ele>
						<time>2026-05-01T17:26:27Z</time>
					</trkpt>
					<trkpt lat="49.527280" lon="1.382330">
						<ele>106</ele>
						<time>2026-05-01T17:26:41Z</time>
					</trkpt>
					<trkpt lat="49.527580" lon="1.382400">
						<ele>106</ele>
						<time>2026-05-01T17:26:46Z</time>
					</trkpt>
					<trkpt lat="49.528680" lon="1.382480">
						<ele>108</ele>
						<time>2026-05-01T17:27:06Z</time>
					</trkpt>
					<trkpt lat="49.528920" lon="1.382520">
						<ele>109</ele>
						<time>2026-05-01T17:27:10Z</time>
					</trkpt>
					<trkpt lat="49.529610" lon="1.382660">
						<ele>110</ele>
						<time>2026-05-01T17:27:23Z</time>
					</trkpt>
					<trkpt lat="49.530290" lon="1.382820">
						<ele>110</ele>
						<time>2026-05-01T17:27:35Z</time>
					</trkpt>
					<trkpt lat="49.530890" lon="1.383090">
						<ele>110</ele>
						<time>2026-05-01T17:27:46Z</time>
					</trkpt>
					<trkpt lat="49.531150" lon="1.383120">
						<ele>110</ele>
						<time>2026-05-01T17:27:51Z</time>
					</trkpt>
					<trkpt lat="49.531250" lon="1.383100">
						<ele>110</ele>
						<time>2026-05-01T17:27:53Z</time>
					</trkpt>
					<trkpt lat="49.531410" lon="1.383050">
						<ele>110</ele>
						<time>2026-05-01T17:27:55Z</time>
					</trkpt>
					<trkpt lat="49.531500" lon="1.383010">
						<ele>110</ele>
						<time>2026-05-01T17:27:57Z</time>
					</trkpt>
					<trkpt lat="49.531730" lon="1.382920">
						<ele>111</ele>
						<time>2026-05-01T17:28:01Z</time>
					</trkpt>
					<trkpt lat="49.531940" lon="1.382870">
						<ele>111</ele>
						<time>2026-05-01T17:28:05Z</time>
					</trkpt>
					<trkpt lat="49.532130" lon="1.382850">
						<ele>111</ele>
						<time>2026-05-01T17:28:08Z</time>
					</trkpt>
					<trkpt lat="49.532330" lon="1.382870">
						<ele>111</ele>
						<time>2026-05-01T17:28:12Z</time>
					</trkpt>
					<trkpt lat="49.532810" lon="1.383020">
						<ele>110</ele>
						<time>2026-05-01T17:28:21Z</time>
					</trkpt>
					<trkpt lat="49.533010" lon="1.383140">
						<ele>110</ele>
						<time>2026-05-01T17:28:25Z</time>
					</trkpt>
					<trkpt lat="49.533180" lon="1.383310">
						<ele>109</ele>
						<time>2026-05-01T17:28:28Z</time>
					</trkpt>
					<trkpt lat="49.533570" lon="1.383950">
						<ele>110</ele>
						<time>2026-05-01T17:28:38Z</time>
					</trkpt>
					<trkpt lat="49.533750" lon="1.384170">
						<ele>111</ele>
						<time>2026-05-01T17:28:42Z</time>
					</trkpt>
					<trkpt lat="49.533940" lon="1.384340">
						<ele>113</ele>
						<time>2026-05-01T17:28:46Z</time>
					</trkpt>
					<trkpt lat="49.534110" lon="1.384430">
						<ele>114</ele>
						<time>2026-05-01T17:28:50Z</time>
					</trkpt>
					<trkpt lat="49.534530" lon="1.384500">
						<ele>114</ele>
						<time>2026-05-01T17:28:57Z</time>
					</trkpt>
					<trkpt lat="49.534670" lon="1.384550">
						<ele>114</ele>
						<time>2026-05-01T17:29:00Z</time>
					</trkpt>
					<trkpt lat="49.534800" lon="1.384670">
						<ele>114</ele>
						<time>2026-05-01T17:29:02Z</time>
					</trkpt>
					<trkpt lat="49.534900" lon="1.384840">
						<ele>113</ele>
						<time>2026-05-01T17:29:05Z</time>
					</trkpt>
					<trkpt lat="49.535000" lon="1.385160">
						<ele>114</ele>
						<time>2026-05-01T17:29:09Z</time>
					</trkpt>
					<trkpt lat="49.535130" lon="1.385950">
						<ele>119</ele>
						<time>2026-05-01T17:29:18Z</time>
					</trkpt>
					<trkpt lat="49.535220" lon="1.386380">
						<ele>122</ele>
						<time>2026-05-01T17:29:24Z</time>
					</trkpt>
					<trkpt lat="49.535350" lon="1.386700">
						<ele>123</ele>
						<time>2026-05-01T17:29:28Z</time>
					</trkpt>
					<trkpt lat="49.535530" lon="1.386980">
						<ele>124</ele>
						<time>2026-05-01T17:29:33Z</time>
					</trkpt>
					<trkpt lat="49.535820" lon="1.387270">
						<ele>122</ele>
						<time>2026-05-01T17:29:39Z</time>
					</trkpt>
					<trkpt lat="49.536330" lon="1.387600">
						<ele>125</ele>
						<time>2026-05-01T17:29:49Z</time>
					</trkpt>
					<trkpt lat="49.536720" lon="1.387730">
						<ele>126</ele>
						<time>2026-05-01T17:29:56Z</time>
					</trkpt>
					<trkpt lat="49.536990" lon="1.387770">
						<ele>126</ele>
						<time>2026-05-01T17:30:01Z</time>
					</trkpt>
					<trkpt lat="49.537330" lon="1.387710">
						<ele>123</ele>
						<time>2026-05-01T17:30:07Z</time>
					</trkpt>
					<trkpt lat="49.537570" lon="1.387630">
						<ele>121</ele>
						<time>2026-05-01T17:30:11Z</time>
					</trkpt>
					<trkpt lat="49.537990" lon="1.387350">
						<ele>118</ele>
						<time>2026-05-01T17:30:19Z</time>
					</trkpt>
					<trkpt lat="49.538210" lon="1.387240">
						<ele>118</ele>
						<time>2026-05-01T17:30:23Z</time>
					</trkpt>
					<trkpt lat="49.538780" lon="1.387030">
						<ele>122</ele>
						<time>2026-05-01T17:30:34Z</time>
					</trkpt>
					<trkpt lat="49.540100" lon="1.386560">
						<ele>122</ele>
						<time>2026-05-01T17:30:58Z</time>
					</trkpt>
					<trkpt lat="49.540340" lon="1.386530">
						<ele>121</ele>
						<time>2026-05-01T17:31:02Z</time>
					</trkpt>
					<trkpt lat="49.540620" lon="1.386570">
						<ele>119</ele>
						<time>2026-05-01T17:31:07Z</time>
					</trkpt>
					<trkpt lat="49.541790" lon="1.387080">
						<ele>121</ele>
						<time>2026-05-01T17:31:29Z</time>
					</trkpt>
					<trkpt lat="49.542020" lon="1.387220">
						<ele>121</ele>
						<time>2026-05-01T17:31:33Z</time>
					</trkpt>
					<trkpt lat="49.542210" lon="1.387380">
						<ele>121</ele>
						<time>2026-05-01T17:31:37Z</time>
					</trkpt>
					<trkpt lat="49.542390" lon="1.387640">
						<ele>121</ele>
						<time>2026-05-01T17:31:41Z</time>
					</trkpt>
					<trkpt lat="49.542510" lon="1.387950">
						<ele>123</ele>
						<time>2026-05-01T17:31:45Z</time>
					</trkpt>
					<trkpt lat="49.542760" lon="1.388900">
						<ele>128</ele>
						<time>2026-05-01T17:31:57Z</time>
					</trkpt>
					<trkpt lat="49.542840" lon="1.389020">
						<ele>128</ele>
						<time>2026-05-01T17:31:59Z</time>
					</trkpt>
					<trkpt lat="49.542970" lon="1.389130">
						<ele>128</ele>
						<time>2026-05-01T17:32:02Z</time>
					</trkpt>
					<trkpt lat="49.543100" lon="1.389180">
						<ele>128</ele>
						<time>2026-05-01T17:32:04Z</time>
					</trkpt>
					<trkpt lat="49.543300" lon="1.389240">
						<ele>127</ele>
						<time>2026-05-01T17:32:08Z</time>
					</trkpt>
					<trkpt lat="49.543480" lon="1.389290">
						<ele>128</ele>
						<time>2026-05-01T17:32:11Z</time>
					</trkpt>
					<trkpt lat="49.543860" lon="1.389410">
						<ele>129</ele>
						<time>2026-05-01T17:32:18Z</time>
					</trkpt>
					<trkpt lat="49.544140" lon="1.389480">
						<ele>130</ele>
						<time>2026-05-01T17:32:23Z</time>
					</trkpt>
					<trkpt lat="49.544370" lon="1.389500">
						<ele>132</ele>
						<time>2026-05-01T17:32:27Z</time>
					</trkpt>
					<trkpt lat="49.544610" lon="1.389460">
						<ele>134</ele>
						<time>2026-05-01T17:32:32Z</time>
					</trkpt>
					<trkpt lat="49.544860" lon="1.389340">
						<ele>133</ele>
						<time>2026-05-01T17:32:36Z</time>
					</trkpt>
					<trkpt lat="49.545800" lon="1.388390">
						<ele>130</ele>
						<time>2026-05-01T17:32:56Z</time>
					</trkpt>
					<trkpt lat="49.545980" lon="1.388300">
						<ele>129</ele>
						<time>2026-05-01T17:33:00Z</time>
					</trkpt>
					<trkpt lat="49.546200" lon="1.388290">
						<ele>128</ele>
						<time>2026-05-01T17:33:04Z</time>
					</trkpt>
					<trkpt lat="49.546400" lon="1.388370">
						<ele>129</ele>
						<time>2026-05-01T17:33:07Z</time>
					</trkpt>
					<trkpt lat="49.547390" lon="1.389180">
						<ele>129</ele>
						<time>2026-05-01T17:33:27Z</time>
					</trkpt>
					<trkpt lat="49.547720" lon="1.389390">
						<ele>130</ele>
						<time>2026-05-01T17:33:33Z</time>
					</trkpt>
					<trkpt lat="49.547820" lon="1.389440">
						<ele>130</ele>
						<time>2026-05-01T17:33:35Z</time>
					</trkpt>
					<trkpt lat="49.547980" lon="1.389490">
						<ele>130</ele>
						<time>2026-05-01T17:33:38Z</time>
					</trkpt>
					<trkpt lat="49.548270" lon="1.389530">
						<ele>128</ele>
						<time>2026-05-01T17:33:43Z</time>
					</trkpt>
					<trkpt lat="49.548640" lon="1.389470">
						<ele>128</ele>
						<time>2026-05-01T17:33:50Z</time>
					</trkpt>
					<trkpt lat="49.550510" lon="1.388840">
						<ele>129</ele>
						<time>2026-05-01T17:34:24Z</time>
					</trkpt>
					<trkpt lat="49.550670" lon="1.388780">
						<ele>130</ele>
						<time>2026-05-01T17:34:27Z</time>
					</trkpt>
					<trkpt lat="49.550870" lon="1.388680">
						<ele>130</ele>
						<time>2026-05-01T17:34:31Z</time>
					</trkpt>
					<trkpt lat="49.551150" lon="1.388470">
						<ele>131</ele>
						<time>2026-05-01T17:34:36Z</time>
					</trkpt>
					<trkpt lat="49.552180" lon="1.387290">
						<ele>133</ele>
						<time>2026-05-01T17:34:59Z</time>
					</trkpt>
					<trkpt lat="49.552570" lon="1.386850">
						<ele>134</ele>
						<time>2026-05-01T17:35:08Z</time>
					</trkpt>
					<trkpt lat="49.552700" lon="1.386790">
						<ele>133</ele>
						<time>2026-05-01T17:35:10Z</time>
					</trkpt>
					<trkpt lat="49.552830" lon="1.386800">
						<ele>133</ele>
						<time>2026-05-01T17:35:12Z</time>
					</trkpt>
					<trkpt lat="49.552940" lon="1.386890">
						<ele>134</ele>
						<time>2026-05-01T17:35:15Z</time>
					</trkpt>
					<trkpt lat="49.553010" lon="1.386990">
						<ele>134</ele>
						<time>2026-05-01T17:35:16Z</time>
					</trkpt>
					<trkpt lat="49.553030" lon="1.387170">
						<ele>134</ele>
						<time>2026-05-01T17:35:19Z</time>
					</trkpt>
					<trkpt lat="49.553090" lon="1.387210">
						<ele>134</ele>
						<time>2026-05-01T17:35:20Z</time>
					</trkpt>
					<trkpt lat="49.553150" lon="1.387280">
						<ele>134</ele>
						<time>2026-05-01T17:35:21Z</time>
					</trkpt>
					<trkpt lat="49.553190" lon="1.387390">
						<ele>134</ele>
						<time>2026-05-01T17:35:22Z</time>
					</trkpt>
					<trkpt lat="49.553200" lon="1.387560">
						<ele>135</ele>
						<time>2026-05-01T17:35:24Z</time>
					</trkpt>
					<trkpt lat="49.553190" lon="1.388010">
						<ele>136</ele>
						<time>2026-05-01T17:35:30Z</time>
					</trkpt>
					<trkpt lat="49.553200" lon="1.388180">
						<ele>136</ele>
						<time>2026-05-01T17:35:32Z</time>
					</trkpt>
					<trkpt lat="49.553230" lon="1.388290">
						<ele>136</ele>
						<time>2026-05-01T17:35:33Z</time>
					</trkpt>
					<trkpt lat="49.553290" lon="1.388410">
						<ele>135</ele>
						<time>2026-05-01T17:35:35Z</time>
					</trkpt>
					<trkpt lat="49.553350" lon="1.388460">
						<ele>135</ele>
						<time>2026-05-01T17:35:36Z</time>
					</trkpt>
					<trkpt lat="49.553460" lon="1.388500">
						<ele>135</ele>
						<time>2026-05-01T17:35:38Z</time>
					</trkpt>
					<trkpt lat="49.553550" lon="1.388500">
						<ele>134</ele>
						<time>2026-05-01T17:35:40Z</time>
					</trkpt>
					<trkpt lat="49.553660" lon="1.388470">
						<ele>134</ele>
						<time>2026-05-01T17:35:42Z</time>
					</trkpt>
					<trkpt lat="49.553940" lon="1.388380">
						<ele>133</ele>
						<time>2026-05-01T17:35:47Z</time>
					</trkpt>
					<trkpt lat="49.554080" lon="1.388330">
						<ele>132</ele>
						<time>2026-05-01T17:35:49Z</time>
					</trkpt>
					<trkpt lat="49.554380" lon="1.388240">
						<ele>132</ele>
						<time>2026-05-01T17:35:55Z</time>
					</trkpt>
					<trkpt lat="49.554840" lon="1.388080">
						<ele>132</ele>
						<time>2026-05-01T17:36:03Z</time>
					</trkpt>
					<trkpt lat="49.554970" lon="1.388000">
						<ele>132</ele>
						<time>2026-05-01T17:36:06Z</time>
					</trkpt>
					<trkpt lat="49.555090" lon="1.387910">
						<ele>132</ele>
						<time>2026-05-01T17:36:08Z</time>
					</trkpt>
					<trkpt lat="49.555180" lon="1.387820">
						<ele>132</ele>
						<time>2026-05-01T17:36:10Z</time>
					</trkpt>
					<trkpt lat="49.555270" lon="1.387700">
						<ele>131</ele>
						<time>2026-05-01T17:36:12Z</time>
					</trkpt>
					<trkpt lat="49.555390" lon="1.387500">
						<ele>131</ele>
						<time>2026-05-01T17:36:15Z</time>
					</trkpt>
					<trkpt lat="49.556370" lon="1.385460">
						<ele>138</ele>
						<time>2026-05-01T17:36:44Z</time>
					</trkpt>
					<trkpt lat="49.556950" lon="1.384010">
						<ele>139</ele>
						<time>2026-05-01T17:37:04Z</time>
					</trkpt>
					<trkpt lat="49.557050" lon="1.383790">
						<ele>140</ele>
						<time>2026-05-01T17:37:07Z</time>
					</trkpt>
					<trkpt lat="49.557150" lon="1.383600">
						<ele>140</ele>
						<time>2026-05-01T17:37:10Z</time>
					</trkpt>
					<trkpt lat="49.557300" lon="1.383390">
						<ele>139</ele>
						<time>2026-05-01T17:37:14Z</time>
					</trkpt>
					<trkpt lat="49.558460" lon="1.382190">
						<ele>141</ele>
						<time>2026-05-01T17:37:38Z</time>
					</trkpt>
					<trkpt lat="49.560500" lon="1.380090">
						<ele>147</ele>
						<time>2026-05-01T17:38:22Z</time>
					</trkpt>
					<trkpt lat="49.560800" lon="1.379690">
						<ele>148</ele>
						<time>2026-05-01T17:38:29Z</time>
					</trkpt>
					<trkpt lat="49.561080" lon="1.379200">
						<ele>151</ele>
						<time>2026-05-01T17:38:37Z</time>
					</trkpt>
					<trkpt lat="49.561200" lon="1.378950">
						<ele>152</ele>
						<time>2026-05-01T17:38:40Z</time>
					</trkpt>
					<trkpt lat="49.561320" lon="1.378650">
						<ele>152</ele>
						<time>2026-05-01T17:38:44Z</time>
					</trkpt>
					<trkpt lat="49.561470" lon="1.378220">
						<ele>151</ele>
						<time>2026-05-01T17:38:50Z</time>
					</trkpt>
					<trkpt lat="49.561570" lon="1.377970">
						<ele>150</ele>
						<time>2026-05-01T17:38:53Z</time>
					</trkpt>
					<trkpt lat="49.561660" lon="1.377750">
						<ele>150</ele>
						<time>2026-05-01T17:38:56Z</time>
					</trkpt>
					<trkpt lat="49.562580" lon="1.376010">
						<ele>154</ele>
						<time>2026-05-01T17:39:22Z</time>
					</trkpt>
					<trkpt lat="49.562890" lon="1.375440">
						<ele>156</ele>
						<time>2026-05-01T17:39:31Z</time>
					</trkpt>
					<trkpt lat="49.563170" lon="1.374960">
						<ele>156</ele>
						<time>2026-05-01T17:39:38Z</time>
					</trkpt>
					<trkpt lat="49.563360" lon="1.374710">
						<ele>155</ele>
						<time>2026-05-01T17:39:43Z</time>
					</trkpt>
					<trkpt lat="49.563770" lon="1.374420">
						<ele>155</ele>
						<time>2026-05-01T17:39:51Z</time>
					</trkpt>
					<trkpt lat="49.564320" lon="1.374140">
						<ele>155</ele>
						<time>2026-05-01T17:40:01Z</time>
					</trkpt>
					<trkpt lat="49.564720" lon="1.373880">
						<ele>157</ele>
						<time>2026-05-01T17:40:09Z</time>
					</trkpt>
					<trkpt lat="49.565040" lon="1.373660">
						<ele>158</ele>
						<time>2026-05-01T17:40:15Z</time>
					</trkpt>
					<trkpt lat="49.565550" lon="1.373190">
						<ele>160</ele>
						<time>2026-05-01T17:40:26Z</time>
					</trkpt>
					<trkpt lat="49.566060" lon="1.372780">
						<ele>161</ele>
						<time>2026-05-01T17:40:36Z</time>
					</trkpt>
					<trkpt lat="49.566420" lon="1.372600">
						<ele>161</ele>
						<time>2026-05-01T17:40:43Z</time>
					</trkpt>
					<trkpt lat="49.567070" lon="1.372320">
						<ele>161</ele>
						<time>2026-05-01T17:40:55Z</time>
					</trkpt>
					<trkpt lat="49.567300" lon="1.372200">
						<ele>162</ele>
						<time>2026-05-01T17:40:59Z</time>
					</trkpt>
					<trkpt lat="49.567520" lon="1.372060">
						<ele>163</ele>
						<time>2026-05-01T17:41:03Z</time>
					</trkpt>
					<trkpt lat="49.567680" lon="1.371910">
						<ele>165</ele>
						<time>2026-05-01T17:41:06Z</time>
					</trkpt>
					<trkpt lat="49.567800" lon="1.371750">
						<ele>166</ele>
						<time>2026-05-01T17:41:09Z</time>
					</trkpt>
					<trkpt lat="49.567900" lon="1.371590">
						<ele>166</ele>
						<time>2026-05-01T17:41:12Z</time>
					</trkpt>
					<trkpt lat="49.568060" lon="1.371180">
						<ele>167</ele>
						<time>2026-05-01T17:41:17Z</time>
					</trkpt>
					<trkpt lat="49.568200" lon="1.370650">
						<ele>167</ele>
						<time>2026-05-01T17:41:24Z</time>
					</trkpt>
					<trkpt lat="49.568520" lon="1.369590">
						<ele>170</ele>
						<time>2026-05-01T17:41:37Z</time>
					</trkpt>
					<trkpt lat="49.568730" lon="1.369150">
						<ele>173</ele>
						<time>2026-05-01T17:41:44Z</time>
					</trkpt>
					<trkpt lat="49.569380" lon="1.367980">
						<ele>175</ele>
						<time>2026-05-01T17:42:02Z</time>
					</trkpt>
					<trkpt lat="49.569580" lon="1.367640">
						<ele>176</ele>
						<time>2026-05-01T17:42:07Z</time>
					</trkpt>
					<trkpt lat="49.569770" lon="1.367340">
						<ele>177</ele>
						<time>2026-05-01T17:42:12Z</time>
					</trkpt>
					<trkpt lat="49.569950" lon="1.367140">
						<ele>177</ele>
						<time>2026-05-01T17:42:16Z</time>
					</trkpt>
					<trkpt lat="49.570110" lon="1.367030">
						<ele>177</ele>
						<time>2026-05-01T17:42:19Z</time>
					</trkpt>
					<trkpt lat="49.570290" lon="1.366920">
						<ele>177</ele>
						<time>2026-05-01T17:42:22Z</time>
					</trkpt>
					<trkpt lat="49.570550" lon="1.366820">
						<ele>178</ele>
						<time>2026-05-01T17:42:27Z</time>
					</trkpt>
					<trkpt lat="49.571690" lon="1.366630">
						<ele>180</ele>
						<time>2026-05-01T17:42:47Z</time>
					</trkpt>
					<trkpt lat="49.573010" lon="1.366370">
						<ele>182</ele>
						<time>2026-05-01T17:43:11Z</time>
					</trkpt>
					<trkpt lat="49.573090" lon="1.366360">
						<ele>182</ele>
						<time>2026-05-01T17:43:12Z</time>
					</trkpt>
					<trkpt lat="49.575930" lon="1.366400">
						<ele>195</ele>
						<time>2026-05-01T17:44:03Z</time>
					</trkpt>
					<trkpt lat="49.576320" lon="1.366410">
						<ele>196</ele>
						<time>2026-05-01T17:44:10Z</time>
					</trkpt>
					<trkpt lat="49.578480" lon="1.366440">
						<ele>198</ele>
						<time>2026-05-01T17:44:48Z</time>
					</trkpt>
					<trkpt lat="49.578620" lon="1.366420">
						<ele>198</ele>
						<time>2026-05-01T17:44:51Z</time>
					</trkpt>
					<trkpt lat="49.578830" lon="1.366380">
						<ele>199</ele>
						<time>2026-05-01T17:44:55Z</time>
					</trkpt>
					<trkpt lat="49.578990" lon="1.366300">
						<ele>199</ele>
						<time>2026-05-01T17:44:58Z</time>
					</trkpt>
					<trkpt lat="49.579190" lon="1.366160">
						<ele>199</ele>
						<time>2026-05-01T17:45:02Z</time>
					</trkpt>
					<trkpt lat="49.579390" lon="1.365970">
						<ele>199</ele>
						<time>2026-05-01T17:45:06Z</time>
					</trkpt>
					<trkpt lat="49.579640" lon="1.365650">
						<ele>199</ele>
						<time>2026-05-01T17:45:11Z</time>
					</trkpt>
					<trkpt lat="49.580280" lon="1.364750">
						<ele>198</ele>
						<time>2026-05-01T17:45:27Z</time>
					</trkpt>
					<trkpt lat="49.580930" lon="1.363860">
						<ele>192</ele>
						<time>2026-05-01T17:45:42Z</time>
					</trkpt>
					<trkpt lat="49.581210" lon="1.363490">
						<ele>189</ele>
						<time>2026-05-01T17:45:49Z</time>
					</trkpt>
					<trkpt lat="49.581340" lon="1.363320">
						<ele>189</ele>
						<time>2026-05-01T17:45:52Z</time>
					</trkpt>
					<trkpt lat="49.581660" lon="1.362880">
						<ele>186</ele>
						<time>2026-05-01T17:46:00Z</time>
					</trkpt>
					<trkpt lat="49.582230" lon="1.362080">
						<ele>187</ele>
						<time>2026-05-01T17:46:13Z</time>
					</trkpt>
					<trkpt lat="49.582710" lon="1.361410">
						<ele>187</ele>
						<time>2026-05-01T17:46:25Z</time>
					</trkpt>
					<trkpt lat="49.583170" lon="1.360780">
						<ele>191</ele>
						<time>2026-05-01T17:46:36Z</time>
					</trkpt>
					<trkpt lat="49.583380" lon="1.360470">
						<ele>192</ele>
						<time>2026-05-01T17:46:41Z</time>
					</trkpt>
					<trkpt lat="49.583510" lon="1.360300">
						<ele>193</ele>
						<time>2026-05-01T17:46:44Z</time>
					</trkpt>
					<trkpt lat="49.583940" lon="1.359720">
						<ele>194</ele>
						<time>2026-05-01T17:46:54Z</time>
					</trkpt>
					<trkpt lat="49.584010" lon="1.359570">
						<ele>194</ele>
						<time>2026-05-01T17:46:56Z</time>
					</trkpt>
					<trkpt lat="49.584060" lon="1.359410">
						<ele>194</ele>
						<time>2026-05-01T17:46:58Z</time>
					</trkpt>
					<trkpt lat="49.584120" lon="1.359300">
						<ele>194</ele>
						<time>2026-05-01T17:47:00Z</time>
					</trkpt>
					<trkpt lat="49.584180" lon="1.359220">
						<ele>194</ele>
						<time>2026-05-01T17:47:01Z</time>
					</trkpt>
					<trkpt lat="49.584390" lon="1.359110">
						<ele>195</ele>
						<time>2026-05-01T17:47:05Z</time>
					</trkpt>
					<trkpt lat="49.584450" lon="1.359090">
						<ele>195</ele>
						<time>2026-05-01T17:47:06Z</time>
					</trkpt>
					<trkpt lat="49.584710" lon="1.358990">
						<ele>196</ele>
						<time>2026-05-01T17:47:11Z</time>
					</trkpt>
					<trkpt lat="49.584810" lon="1.358970">
						<ele>196</ele>
						<time>2026-05-01T17:47:13Z</time>
					</trkpt>
					<trkpt lat="49.584870" lon="1.358920">
						<ele>196</ele>
						<time>2026-05-01T17:47:14Z</time>
					</trkpt>
					<trkpt lat="49.584930" lon="1.358850">
						<ele>196</ele>
						<time>2026-05-01T17:47:16Z</time>
					</trkpt>
					</trkseg>
				</trk>
			</gpx>